Date StartTime U_cm/s V_cm/s W_cm/s Ustd_cm/s Vstd_cm/s Wstd_cm/s Uvar_(cm/s)^2 Vvar_(cm/s)^2 Wvar_(cm/s)^2 KE_(m/s)^2 TurbulentKE_(m/s)^2 HorizWindSpeed_cm/s FrictionSpeec_cm/s DragCoef SpeedOfSound_m/s SonicTemperature_C Pressure_mb 
11/10/2013  00:00:00     -122.221      -45.662      -16.436       19.568       28.678       17.832      382.898      822.447      317.982        0.941        0.076      130.472        9.324        0.005      335.290        5.823      864.304
11/10/2013  00:01:00     -155.557      -44.340      -10.054       21.341       21.601       14.691      455.436      466.603      215.839        1.370        0.057      161.753        9.256        0.003      335.247        5.753      864.307
11/10/2013  00:02:00     -137.384      -58.081       -4.866       41.360       27.278       18.395     1710.688      744.077      338.364        1.253        0.140      149.156       16.771        0.013      335.246        5.753      864.300
11/10/2013  00:03:00     -137.596      -39.051      -15.204       15.536       25.128       13.552      241.374      631.429      183.643        1.087        0.053      143.030        7.613        0.003      335.269        5.791      864.296
11/10/2013  00:04:00      -85.595      -65.776       -3.590       41.186       24.700       18.240     1696.263      610.100      332.685        0.715        0.132      107.949       11.384        0.011      335.312        5.861      864.298
11/10/2013  00:05:00      -99.402      -57.250       -2.525       27.157       26.951       16.660      737.502      726.382      277.551        0.745        0.087      114.710        9.757        0.007      335.339        5.906      864.300
11/10/2013  00:06:00     -105.679      -61.987       -8.863       31.462       18.259       18.950      989.839      333.394      359.099        0.839        0.084      122.517       15.759        0.017      335.331        5.892      864.306
11/10/2013  00:07:00      -93.853      -59.413        2.422       35.164       23.527       21.541     1236.538      553.507      464.000        0.730        0.113      111.077       20.797        0.035      335.266        5.784      864.318
11/10/2013  00:08:00      -70.596      -55.668        8.608       39.582       32.502       24.258     1566.702     1056.406      588.445        0.568        0.161       89.904       24.813        0.076      335.243        5.746      864.343
11/10/2013  00:09:00      -56.241      -59.522        8.587       39.288       30.081       20.347     1543.557      904.862      414.019        0.482        0.143       81.890       14.488        0.031      335.257        5.769      864.357
11/10/2013  00:10:00      -75.293      -52.861        5.888       39.258       34.103       20.685     1541.179     1163.031      427.852        0.581        0.157       91.997       20.218        0.048      335.251        5.760      864.357
11/10/2013  00:11:00      -83.029      -49.802        2.053       50.367       36.004       24.974     2536.810     1296.313      623.703        0.692        0.223       96.819       24.820        0.066      335.262        5.777      864.347
11/10/2013  00:12:00      -57.230      -46.874       11.716       49.770       35.805       22.237     2477.007     1281.997      494.494        0.493        0.213       73.976       25.720        0.121      335.288        5.821      864.356
11/10/2013  00:13:00      -86.947      -58.362        0.876       52.192       28.335       24.177     2724.032      802.856      584.516        0.754        0.206      104.718       23.205        0.049      335.282        5.812      864.356
11/10/2013  00:14:00      -85.261      -44.060        3.948       55.253       31.606       20.797     3052.868      998.947      432.501        0.685        0.224       95.973       21.188        0.049      335.363        5.945      864.351
11/10/2013  00:15:00      -74.602      -42.022        7.957       41.565       28.543       19.253     1727.647      814.727      370.685        0.515        0.146       85.624       16.674        0.038      335.403        6.013      864.352
11/10/2013  00:16:00      -65.733      -34.262        4.318       37.807       22.917       18.366     1429.357      525.184      337.295        0.390        0.115       74.127       18.637        0.063      335.475        6.134      864.357
11/10/2013  00:17:00      -63.984      -35.893       -0.351       28.151       19.802       18.004      792.506      392.116      324.147        0.345        0.075       73.364       16.181        0.049      335.426        6.051      864.363
11/10/2013  00:18:00      -60.662      -26.716        6.513       30.125       19.572       15.646      907.516      383.057      244.798        0.299        0.077       66.284       11.478        0.030      335.383        5.981      864.368
11/10/2013  00:19:00      -46.789      -28.598        3.037       30.558       21.000       15.302      933.768      440.984      234.141        0.231        0.080       54.837       16.196        0.087      335.319        5.872      864.374
11/10/2013  00:20:00      -49.428      -26.516        3.239       26.818       22.758       12.486      719.217      517.909      155.905        0.227        0.070       56.092       13.937        0.062      335.304        5.848      864.393
11/10/2013  00:21:00      -55.547      -34.927       -1.332       23.865       21.371       11.627      569.526      456.741      135.191        0.273        0.058       65.615       12.001        0.033      335.458        6.104      864.400
11/10/2013  00:22:00      -80.748       -4.396       -8.884       18.468        8.510        9.493      341.082       72.417       90.109        0.356        0.025       80.867       10.634        0.017      335.384        5.982      864.397
11/10/2013  00:23:00      -91.554      -15.301      -13.495       18.748       16.399        8.841      351.479      268.914       78.167        0.475        0.035       92.823        6.023        0.004      335.359        5.940      864.389
11/10/2013  00:24:00      -38.390      -16.714        4.351       17.794       13.466       10.918      316.636      181.326      119.205        0.119        0.031       41.871        9.919        0.056      335.265        5.782      864.395
11/10/2013  00:25:00      -38.310      -29.728       -0.817       22.325       21.870       16.313      498.398      478.299      266.115        0.180        0.062       48.491       15.119        0.097      335.360        5.941      864.394
11/10/2013  00:26:00      -30.563      -17.107        2.109       16.901       13.425        8.662      285.656      180.223       75.027        0.089        0.027       35.025        4.993        0.020      335.332        5.893      864.382
11/10/2013  00:27:00      -54.084      -16.408       -4.008       13.857       11.912        9.227      192.011      141.898       85.141        0.181        0.021       56.518        5.470        0.009      335.366        5.949      864.396
11/10/2013  00:28:00      -78.435      -36.850      -10.640       15.404        9.053        7.357      237.291       81.958       54.125        0.400        0.019       86.660        6.764        0.006      335.326        5.884      864.405
11/10/2013  00:29:00      -74.778      -44.148      -16.879       26.137       16.025       12.849      683.147      256.795      165.091        0.447        0.055       86.837        4.393        0.003      335.295        5.833      864.408
11/10/2013  00:30:00      -88.455      -50.842       -8.342       16.166       11.074       12.611      261.343      122.644      159.026        0.551        0.027      102.025        6.756        0.004      335.282        5.811      864.401
11/10/2013  00:31:00      -81.642      -37.200       -4.657       11.376       17.326        9.743      129.404      300.196       94.919        0.430        0.026       89.718        2.068        0.001      335.210        5.691      864.400
11/10/2013  00:32:00      -40.720      -24.200       -3.528       30.499       16.233       12.717      930.164      263.520      161.725        0.181        0.068       47.369       11.366        0.058      335.204        5.683      864.406
11/10/2013  00:33:00      -11.171      -20.254       -4.953       16.980       13.978       13.709      288.311      195.398      187.936        0.062        0.034       23.130        9.497        0.169      335.201        5.677      864.416
11/10/2013  00:34:00      -29.374      -23.404        3.677       22.013       18.476       13.285      484.584      341.355      176.501        0.121        0.050       37.557        9.089        0.059      335.172        5.630      864.430
11/10/2013  00:35:00      -63.443      -42.697        1.434       23.874       14.086       12.053      569.976      198.405      145.282        0.338        0.046       76.473        5.176        0.005      335.185        5.652      864.427
11/10/2013  00:36:00      -99.501      -51.900       -2.883       18.205       17.822       10.908      331.418      317.607      118.981        0.669        0.038      112.223        8.078        0.005      335.149        5.593      864.421
11/10/2013  00:37:00     -102.503      -52.267       -1.228       19.077       19.803       14.802      363.932      392.158      219.094        0.711        0.049      115.059        4.471        0.002      335.161        5.609      864.421
11/10/2013  00:38:00     -123.959      -46.416       -4.163       21.372       26.242       14.967      456.747      688.645      224.007        0.945        0.068      132.364        9.153        0.005      335.145        5.583      864.427
11/10/2013  00:39:00     -108.057      -42.341        4.345       40.804       31.836       21.689     1664.983     1013.530      470.409        0.832        0.157      116.056       23.118        0.040      335.085        5.485      864.432
11/10/2013  00:40:00     -124.687      -36.937        0.344       35.199       25.972       18.755     1238.984      674.524      351.733        0.959        0.113      130.043       18.829        0.021      335.098        5.507      864.435
11/10/2013  00:41:00      -89.857      -39.411        5.077       36.692       24.424       16.766     1346.319      596.527      281.089        0.594        0.111       98.120       14.994        0.023      335.009        5.360      864.440
11/10/2013  00:42:00     -116.580      -30.827        0.987       31.697       29.377       20.194     1004.717      862.995      407.796        0.841        0.114      120.587       19.205        0.025      335.003        5.349      864.444
11/10/2013  00:43:00     -115.779       -9.584        0.597       43.093       26.998       23.476     1857.045      728.899      551.099        0.832        0.157      116.175       25.078        0.047      334.912        5.199      864.448
11/10/2013  00:44:00     -105.785      -23.761       -2.970       38.718       30.237       22.659     1499.107      914.252      513.445        0.734        0.146      108.420       21.619        0.040      334.850        5.095      864.443
11/10/2013  00:45:00     -144.592      -50.883       -2.275       42.145       27.955       20.514     1776.184      781.494      420.834        1.324        0.149      153.284       20.384        0.018      334.944        5.251      864.437
11/10/2013  00:46:00      -93.742      -59.046       -5.560       39.799       24.867       18.149     1583.956      618.389      329.376        0.742        0.127      110.788       18.161        0.027      334.948        5.259      864.441
11/10/2013  00:47:00      -74.526      -59.632        4.583       36.428       22.403       17.452     1327.022      501.912      304.578        0.563        0.107       95.447       13.588        0.020      334.929        5.226      864.451
11/10/2013  00:48:00      -59.240      -23.839        0.727       27.938       24.946       12.921      780.529      622.285      166.947        0.282        0.078       63.856       13.093        0.042      334.928        5.226      864.464
11/10/2013  00:49:00      -51.611      -23.343       -2.669       15.403       16.336       11.969      237.242      266.858      143.260        0.193        0.032       56.644        7.270        0.016      335.001        5.343      864.459
11/10/2013  00:50:00      -87.698      -25.498      -11.973       27.321       13.704       11.021      746.436      187.810      121.473        0.477        0.053       91.330       12.564        0.019      335.000        5.343      864.453
11/10/2013  00:51:00     -123.362      -44.818      -12.897       20.565       17.786       15.645      422.931      316.330      244.768        0.919        0.049      131.251       12.613        0.009      334.972        5.297      864.454
11/10/2013  00:52:00     -113.137      -52.217      -18.396       18.112       17.522       12.867      328.035      307.014      165.547        0.833        0.040      124.606        8.070        0.004      334.957        5.272      864.461
11/10/2013  00:53:00      -91.085      -58.115       -4.889       21.954       16.776       16.015      481.959      281.447      256.481        0.636        0.051      108.046       14.599        0.018      334.933        5.232      864.460
11/10/2013  00:54:00     -105.123      -42.259       -0.790       27.033       20.556       16.738      730.769      422.546      280.164        0.714        0.072      113.299       15.672        0.019      334.944        5.249      864.451
11/10/2013  00:55:00      -82.386      -43.847        3.839       36.245       23.785       19.509     1313.708      565.735      380.597        0.549        0.113       93.328       21.077        0.051      334.863        5.116      864.442
11/10/2013  00:56:00      -97.717      -53.530       -4.116       20.085       16.951       14.132      403.398      287.352      199.709        0.666        0.045      111.419        8.502        0.006      334.885        5.153      864.431
11/10/2013  00:57:00      -72.352      -43.107        3.456       31.754       16.701       16.041     1008.290      278.912      257.328        0.432        0.077       84.220       16.822        0.040      334.864        5.119      864.424
11/10/2013  00:58:00     -106.853      -52.003       -3.146       20.463       13.670       15.143      418.725      186.874      229.313        0.748        0.042      118.836       13.905        0.014      334.842        5.079      864.433
11/10/2013  00:59:00      -87.768      -43.107       -3.201       34.572       20.227       14.888     1195.228      409.145      221.660        0.570        0.091       97.783       16.759        0.029      334.829        5.058      864.449
11/10/2013  01:00:00     -103.007      -49.767        0.175       39.757       22.955       17.864     1580.641      526.951      319.115        0.776        0.121      114.399       19.106        0.028      334.776        4.971      864.461
11/10/2013  01:01:00     -118.836      -59.989       -5.787       36.822       28.447       20.097     1355.864      809.218      403.904        1.016        0.128      133.119       20.711        0.024      334.787        4.989      864.450
11/10/2013  01:02:00     -138.128      -38.856      -15.071       18.410       19.731       14.101      338.931      389.316      198.826        1.087        0.046      143.489       10.395        0.005      334.752        4.930      864.440
11/10/2013  01:03:00     -143.080      -38.942       -6.490       20.867       18.888       14.735      435.448      356.768      217.114        1.152        0.050      148.285       10.194        0.005      334.701        4.847      864.455
11/10/2013  01:04:00     -149.746      -41.022       -8.915       24.750       20.556       13.030      612.550      422.563      169.780        1.270        0.060      155.263       10.970        0.005      334.595        4.670      864.466
11/10/2013  01:05:00     -154.765      -48.757       -7.292       28.971       24.707       16.766      839.327      610.459      281.084        1.406        0.087      162.263       14.440        0.008      334.538        4.578      864.469
11/10/2013  01:06:00     -140.276      -55.625        0.718       34.288       29.767       21.222     1175.686      886.087      450.383        1.264        0.126      150.903       15.745        0.011      334.599        4.676      864.465
11/10/2013  01:07:00     -127.303      -39.487       -6.496       31.478       24.715       21.994      990.836      610.849      483.744        0.995        0.104      133.286       15.593        0.014      334.623        4.717      864.464
11/10/2013  01:08:00      -92.505      -20.280       -2.029       31.602       37.486       21.101      998.684     1405.206      445.242        0.591        0.142       94.702       21.816        0.053      334.598        4.676      864.450
11/10/2013  01:09:00      -48.386       -4.161        1.280       47.378       26.195       18.627     2244.648      686.158      346.964        0.282        0.164       48.565       21.536        0.197      334.547        4.591      864.437
11/10/2013  01:10:00      -40.999       -9.465        6.235       31.953       24.311       24.891     1021.015      591.010      619.553        0.202        0.112       42.078       26.274        0.390      334.541        4.580      864.441
11/10/2013  01:11:00      -84.797      -26.860      -14.633       38.251       16.030       12.194     1463.106      256.962      148.695        0.500        0.093       88.949       12.800        0.021      334.562        4.616      864.421
11/10/2013  01:12:00     -140.032      -11.913      -20.286       22.092       17.304       10.544      488.043      299.442      111.180        1.053        0.045      140.538        8.190        0.003      334.585        4.655      864.397
11/10/2013  01:13:00     -115.673      -21.200      -21.405       14.472       15.967       10.851      209.426      254.959      117.753        0.743        0.029      117.600        5.210        0.002      334.568        4.625      864.380
11/10/2013  01:14:00     -120.820      -23.960      -21.162       19.910       12.390       11.282      396.401      153.514      127.276        0.815        0.034      123.173        7.185        0.003      334.585        4.654      864.368
11/10/2013  01:15:00      -84.994      -21.974      -10.794       23.230       18.977       15.085      539.641      360.111      227.550        0.448        0.056       87.789       15.396        0.031      334.595        4.672      864.346
11/10/2013  01:16:00      -81.156      -25.632      -14.831       14.339       15.163       11.933      205.594      229.930      142.400        0.402        0.029       85.107        7.120        0.007      334.669        4.795      864.342
11/10/2013  01:17:00     -117.875      -15.105      -14.606       18.211       13.946       13.200      331.645      194.493      174.248        0.752        0.035      118.839        9.663        0.007      334.616        4.705      864.346
11/10/2013  01:18:00     -114.790      -26.896      -15.357       15.410       16.625       11.716      237.460      276.384      137.270        0.739        0.033      117.898        9.505        0.007      334.654        4.770      864.340
11/10/2013  01:19:00     -109.379      -47.521      -13.500       29.558       20.719       14.274      873.700      429.285      203.755        0.796        0.075      119.256       15.024        0.016      334.659        4.778      864.335
11/10/2013  01:20:00     -129.426      -49.086       -7.662       20.745       21.195       15.713      430.335      449.211      246.907        1.017        0.056      138.422       10.810        0.006      334.612        4.699      864.338
11/10/2013  01:21:00     -121.987      -69.519       -8.309       19.051       21.378       18.083      362.942      457.022      326.987        1.046        0.057      140.405       12.711        0.008      334.680        4.811      864.341
11/10/2013  01:22:00     -111.295      -47.575       -8.682       18.412       21.310       13.615      338.995      454.133      185.381        0.785        0.049      121.037        9.661        0.006      334.740        4.912      864.350
11/10/2013  01:23:00      -95.429      -42.763       -8.323       17.932       13.744       11.315      321.571      188.900      128.039        0.582        0.032      104.572        9.628        0.008      334.651        4.763      864.360
11/10/2013  01:24:00      -78.077      -41.370       -1.221       28.572       16.962       12.266      816.344      287.695      150.462        0.453        0.063       88.360       12.156        0.019      334.637        4.740      864.373
11/10/2013  01:25:00      -43.955      -29.736        3.127       29.939       16.244       14.784      896.362      263.855      218.557        0.210        0.069       53.068       14.963        0.079      334.594        4.670      864.363
11/10/2013  01:26:00      -74.575      -37.327       -6.135       29.953       15.255       13.170      897.158      232.720      173.439        0.415        0.065       83.395       10.144        0.015      334.596        4.674      864.348
11/10/2013  01:27:00      -78.045      -49.296       -2.497       27.195       23.247       17.908      739.592      540.428      320.688        0.506        0.080       92.310       11.463        0.015      334.661        4.780      864.350
11/10/2013  01:28:00      -49.342      -32.596       10.320       42.826       28.799       24.013     1834.089      829.377      576.616        0.342        0.162       59.137       23.642        0.160      334.667        4.791      864.352
11/10/2013  01:29:00     -103.336      -89.232        6.083       47.808       39.821       28.413     2285.645     1585.741      807.310        1.168        0.234      136.531       28.707        0.044      334.708        4.858      864.352
11/10/2013  01:30:00      -88.010      -52.085        6.852       64.077       42.300       29.454     4105.852     1789.277      867.511        0.863        0.338      102.268       32.218        0.099      334.805        5.021      864.355
11/10/2013  01:31:00     -120.551      -58.301        1.048       37.505       30.732       23.991     1406.618      944.478      575.553        1.043        0.146      133.909       22.969        0.029      334.817        5.041      864.343
11/10/2013  01:32:00     -113.841      -53.699       -5.036       24.221       23.849       15.432      586.637      568.781      238.151        0.863        0.070      125.870       10.945        0.008      334.877        5.140      864.325
11/10/2013  01:33:00      -82.206      -40.863        4.583       35.257       22.905       21.335     1243.071      524.641      455.181        0.534        0.111       91.802       20.983        0.052      334.836        5.072      864.329
11/10/2013  01:34:00      -75.819      -41.599        6.934       39.254       28.901       23.382     1540.876      835.243      546.713        0.522        0.146       86.481       14.871        0.030      334.700        4.846      864.360
11/10/2013  01:35:00      -82.115      -61.790        6.000       53.240       43.868       30.983     2834.502     1924.390      959.970        0.816        0.286      102.766       28.125        0.075      334.653        4.768      864.387
11/10/2013  01:36:00      -98.305      -56.815        9.305       58.298       47.738       30.522     3398.678     2278.922      931.610        0.979        0.330      113.542       33.374        0.086      334.735        4.902      864.393
11/10/2013  01:37:00      -64.427      -47.068        1.725       45.435       32.093       22.311     2064.383     1029.990      497.764        0.498        0.180       79.788       17.066        0.046      334.710        4.863      864.407
11/10/2013  01:38:00      -80.372      -44.759        2.117       30.057       33.207       18.930      903.438     1102.699      358.345        0.542        0.118       91.995       17.000        0.034      334.739        4.910      864.402
11/10/2013  01:39:00      -76.653      -42.484       -5.460       31.501       14.476       12.845      992.343      209.544      164.999        0.454        0.068       87.638        6.866        0.006      334.817        5.039      864.374
11/10/2013  01:40:00      -98.998      -24.615       -7.460       21.379       11.875       12.278      457.074      141.021      150.750        0.561        0.037      102.012       10.416        0.010      334.725        4.887      864.361
11/10/2013  01:41:00     -122.824      -33.294       -6.967       24.368       18.066       15.347      593.812      326.389      235.517        0.870        0.058      127.256       14.414        0.013      334.776        4.971      864.368
11/10/2013  01:42:00     -132.421      -51.657       -1.149       19.632       20.910       12.567      385.432      437.247      157.924        1.059        0.049      142.139       13.157        0.009      334.663        4.783      864.378
11/10/2013  01:43:00     -127.923      -60.570       -6.216       23.723       17.893       16.138      562.778      320.172      260.436        1.061        0.057      141.538       13.442        0.009      334.613        4.701      864.388
11/10/2013  01:44:00     -130.225      -48.825       -4.143       36.142       19.056       15.874     1306.214      363.134      251.983        1.064        0.096      139.077       15.716        0.013      334.609        4.695      864.393
11/10/2013  01:45:00     -116.988      -54.050        0.493       32.841       30.642       20.926     1078.552      938.918      437.881        0.953        0.123      128.870       14.549        0.013      334.601        4.681      864.403
11/10/2013  01:46:00     -130.535      -79.606      -15.592       23.350       21.773       18.690      545.223      474.078      349.305        1.249        0.068      152.894       15.700        0.011      334.789        4.992      864.398
11/10/2013  01:47:00     -126.537      -41.344      -11.346       17.031       21.269       17.444      290.062      452.373      304.292        0.945        0.052      133.120        6.935        0.003      334.790        4.995      864.385
11/10/2013  01:48:00     -104.638      -41.275      -10.160       15.013       14.751       11.248      225.384      217.589      126.521        0.666        0.028      112.484        6.897        0.004      334.668        4.792      864.377
11/10/2013  01:49:00      -79.844      -49.645       -1.242       31.138       31.534       21.215      969.564      994.396      450.074        0.563        0.121       94.020       19.784        0.044      334.655        4.770      864.386
11/10/2013  01:50:00      -72.585      -64.072       -3.444       43.879       23.744       25.703     1925.407      563.796      660.623        0.627        0.157       96.818       21.610        0.050      334.570        4.629      864.387
11/10/2013  01:51:00     -120.566      -61.097        2.060       40.399       26.449       22.207     1632.096      699.561      493.151        1.055        0.141      135.162       23.579        0.030      334.504        4.520      864.376
11/10/2013  01:52:00      -99.935      -54.788       -3.735       43.632       31.044       17.861     1903.736      963.703      319.016        0.809        0.159      113.968       12.840        0.013      334.492        4.500      864.369
11/10/2013  01:53:00      -47.681      -38.189        4.288       35.665       31.608       15.896     1272.020      999.056      252.676        0.314        0.126       61.089       17.995        0.087      334.581        4.649      864.377
11/10/2013  01:54:00      -76.269      -43.063        3.380       41.193       17.542       17.541     1696.875      307.737      307.681        0.500        0.116       87.587       21.311        0.059      334.726        4.890      864.396
11/10/2013  01:55:00      -59.294      -34.799        6.239       38.562       17.972       17.940     1487.022      322.978      321.860        0.345        0.107       68.751       19.120        0.077      334.629        4.727      864.414
11/10/2013  01:56:00      -50.144      -39.546       -2.762       28.690       14.681       13.111      823.088      215.534      171.888        0.265        0.061       63.862        9.514        0.022      334.701        4.846      864.404
11/10/2013  01:57:00      -82.411      -41.566       -3.579       24.776       12.596       11.394      613.848      158.657      129.821        0.472        0.045       92.300        9.318        0.010      334.721        4.881      864.401
11/10/2013  01:58:00     -112.409      -36.821        0.336       32.141       19.677       16.608     1033.030      387.174      275.812        0.784        0.085      118.286       15.116        0.016      334.561        4.612      864.417
11/10/2013  01:59:00      -66.376      -35.464        8.554       54.882       34.125       20.305     3012.023     1164.540      412.275        0.516        0.229       75.256       21.508        0.082      334.465        4.456      864.453
11/10/2013  02:00:00      -68.561      -58.458       -0.176       43.466       40.902       24.114     1889.259     1672.999      581.493        0.613        0.207       90.100       29.472        0.107      334.559        4.612      864.460
11/10/2013  02:01:00      -73.646      -50.925       -3.678       32.544       25.895       16.306     1059.133      670.531      265.872        0.501        0.100       89.538       14.187        0.025      334.695        4.838      864.437
11/10/2013  02:02:00      -44.731      -33.958       10.856       33.009       28.082       14.229     1089.598      788.596      202.465        0.268        0.104       56.161       15.635        0.078      334.697        4.840      864.434
11/10/2013  02:03:00      -73.799      -61.938        0.969       30.781       26.664       17.301      947.461      710.957      299.333        0.562        0.098       96.347       14.670        0.023      334.723        4.883      864.443
11/10/2013  02:04:00     -121.416      -52.264       -3.435       23.053       19.586       15.164      531.440      383.600      229.953        0.931        0.057      132.187        6.124        0.002      334.651        4.765      864.443
11/10/2013  02:05:00      -70.184      -40.460        3.906       30.029       20.042       16.982      901.739      401.672      288.381        0.408        0.080       81.012       16.490        0.041      334.640        4.745      864.448
11/10/2013  02:06:00      -50.001      -22.087        0.887       27.123       14.165       14.372      735.681      200.644      206.546        0.207        0.057       54.662       10.005        0.034      334.601        4.681      864.454
11/10/2013  02:07:00      -81.912      -29.989       -1.098       22.133       18.795       11.993      489.876      353.238      143.826        0.430        0.049       87.229        8.690        0.010      334.590        4.663      864.461
11/10/2013  02:08:00      -70.224      -32.636        1.606       33.890       19.333       17.844     1148.519      373.781      318.404        0.392        0.092       77.437       18.167        0.055      334.510        4.530      864.487
11/10/2013  02:09:00      -20.428      -38.436        3.979       24.222       23.594       18.811      586.683      556.674      353.855        0.170        0.075       43.527       16.546        0.144      334.548        4.592      864.515
11/10/2013  02:10:00      -79.717      -57.915       -4.307       29.371       26.566       14.069      862.674      705.747      197.929        0.575        0.088       98.534       11.324        0.013      334.600        4.678      864.520
11/10/2013  02:11:00     -102.104      -53.258       -2.994       38.957       29.600       19.639     1517.641      876.152      385.693        0.802        0.139      115.159       18.300        0.025      334.661        4.780      864.501
11/10/2013  02:12:00      -76.509      -40.349       -0.166       38.227       20.342       18.297     1461.293      413.790      334.768        0.485        0.110       86.497       22.107        0.065      334.639        4.744      864.486
11/10/2013  02:13:00      -65.986      -45.700       -1.843       31.999       27.865       20.264     1023.943      776.486      410.620        0.433        0.111       80.266       15.071        0.035      334.575        4.637      864.480
11/10/2013  02:14:00      -67.300      -61.761        3.991       36.440       30.144       20.294     1327.907      908.631      411.856        0.550        0.132       91.344       20.478        0.050      334.567        4.625      864.475
11/10/2013  02:15:00      -44.744      -51.677        3.480       46.767       32.867       22.620     2187.163     1080.234      511.650        0.423        0.189       68.356       23.892        0.122      334.600        4.678      864.473
11/10/2013  02:16:00     -110.558      -18.818      -11.711       15.637       21.831       10.905      244.516      476.612      118.930        0.678        0.042      112.149        5.627        0.003      334.575        4.638      864.461
11/10/2013  02:17:00      -78.433       17.872       -5.989       28.041       22.250       10.034      786.309      495.070      100.674        0.394        0.069       80.444        8.687        0.012      334.380        4.316      864.448
11/10/2013  02:18:00      -75.654      -38.789       -6.831       16.115       18.416       10.517      259.681      339.164      110.601        0.399        0.035       85.018        7.073        0.007      334.432        4.401      864.473
11/10/2013  02:19:00      -68.241      -20.593       -0.456       22.036       19.708       10.544      485.564      388.418      111.177        0.303        0.049       71.281        8.283        0.014      334.408        4.362      864.498
11/10/2013  02:20:00      -57.276       12.583       -1.897       14.925       10.767        9.084      222.756      115.918       82.512        0.193        0.021       58.642        6.738        0.013      334.393        4.337      864.501
11/10/2013  02:21:00      -67.270       10.395       -4.576       10.905        9.498        7.341      118.925       90.209       53.890        0.246        0.013       68.068        5.247        0.006      334.496        4.506      864.493
11/10/2013  02:22:00      -48.096        1.653       -2.489       10.200        9.461        6.290      104.034       89.502       39.563        0.128        0.012       48.125        2.334        0.002      334.523        4.551      864.493
11/10/2013  02:23:00      -30.364      -24.244       -0.606       18.895       10.414       11.179      357.021      108.442      124.960        0.105        0.030       38.855       10.305        0.070      334.498        4.510      864.507
11/10/2013  02:24:00      -68.578      -31.769       -9.654       18.044       11.565       11.392      325.595      133.755      129.768        0.320        0.029       75.580       10.683        0.020      334.437        4.409      864.516
11/10/2013  02:25:00      -70.144      -18.238       -8.330       12.612       10.272        6.245      159.071      105.520       39.004        0.281        0.015       72.476        4.467        0.004      334.320        4.216      864.500
11/10/2013  02:26:00      -64.433      -22.179       -6.947       14.979        8.905        9.136      224.366       79.302       83.465        0.254        0.019       68.144        6.873        0.010      334.305        4.190      864.486
11/10/2013  02:27:00      -88.146      -37.994      -11.357       16.263       17.215        9.611      264.487      296.360       92.362        0.500        0.033       95.986        6.593        0.005      334.348        4.264      864.494
11/10/2013  02:28:00      -87.158      -46.001       -6.759       19.901       17.274       13.526      396.049      298.379      182.961        0.532        0.044       98.552       10.616        0.012      334.298        4.179      864.516
11/10/2013  02:29:00      -66.328      -17.179        3.546       17.841       21.658       13.337      318.297      469.070      177.864        0.284        0.048       68.517       11.597        0.029      334.359        4.280      864.519
11/10/2013  02:30:00      -17.845      -18.045       -1.173       17.209       15.725       10.035      296.157      247.270      100.702        0.064        0.032       25.379        9.306        0.134      334.347        4.261      864.504
11/10/2013  02:31:00       -3.734       -3.331        6.067        9.579       12.887        6.107       91.756      166.077       37.291        0.018        0.015        5.004        4.782        0.913      334.365        4.292      864.494
11/10/2013  02:32:00      -11.851       -2.700       -4.100       10.300        7.575        7.133      106.093       57.377       50.885        0.019        0.011       12.155        3.663        0.091      334.361        4.284      864.494
11/10/2013  02:33:00      -33.806      -17.072       -0.396       17.177       10.628        6.843      295.042      112.958       46.825        0.094        0.023       37.872        4.417        0.014      334.462        4.453      864.492
11/10/2013  02:34:00      -65.028       -2.923        0.352        7.763       13.795        9.033       60.262      190.307       81.591        0.228        0.017       65.093        5.693        0.008      334.550        4.598      864.483
11/10/2013  02:35:00      -30.890      -17.511       -3.055       12.571       12.374       10.266      158.023      153.112      105.381        0.084        0.021       35.508        3.664        0.011      334.395        4.339      864.482
11/10/2013  02:36:00      -33.729        1.540       -4.886        5.925       15.192        5.433       35.106      230.806       29.516        0.073        0.015       33.764        3.458        0.010      334.257        4.111      864.492
11/10/2013  02:37:00      -17.698       25.152       -4.789       12.188        5.256        6.115      148.537       27.628       37.398        0.059        0.011       30.755        6.795        0.049      334.375        4.306      864.485
11/10/2013  02:38:00      -10.465        3.109       -3.962        8.828        8.340        6.069       77.940       69.558       36.832        0.016        0.009       10.917        4.574        0.176      334.437        4.412      864.471
11/10/2013  02:39:00      -24.673      -18.741       -3.490       12.856       16.821        5.925      165.275      282.954       35.111        0.073        0.024       30.983        5.146        0.028      334.434        4.404      864.469
11/10/2013  02:40:00      -32.741      -26.231       -3.957       16.054       13.080       11.733      257.728      171.077      137.666        0.117        0.028       41.952        8.502        0.041      334.470        4.467      864.481
11/10/2013  02:41:00      -47.147      -44.172       -0.104       13.869       14.425       10.009      192.350      208.068      100.181        0.234        0.025       64.607        5.690        0.008      334.458        4.444      864.489
11/10/2013  02:42:00      -26.733      -21.548        7.242       26.197       12.812       12.670      686.272      164.137      160.521        0.112        0.051       34.336        9.075        0.070      334.469        4.463      864.497
11/10/2013  02:43:00      -30.960      -38.190        1.649       19.881       27.835       12.814      395.259      774.772      164.198        0.188        0.067       49.163       10.269        0.044      334.395        4.339      864.509
11/10/2013  02:44:00      -46.652      -78.197        5.389       33.600       43.546       24.181     1128.964     1896.244      584.719        0.596        0.180       91.056       25.682        0.080      334.462        4.450      864.525
11/10/2013  02:45:00      -84.982      -58.997        1.190       27.861       30.885       19.681      776.214      953.853      387.327        0.641        0.106      103.454       17.731        0.029      334.437        4.410      864.535
11/10/2013  02:46:00      -76.868      -33.837        2.582       41.697       30.089       21.318     1738.627      905.370      454.452        0.508        0.155       83.986       20.897        0.062      334.320        4.215      864.544
11/10/2013  02:47:00     -106.636      -71.025       -7.964       28.080       21.266       15.006      788.458      452.244      225.167        0.897        0.073      128.124       11.630        0.008      334.425        4.388      864.565
11/10/2013  02:48:00      -83.610      -50.862        5.005       44.449       33.828       24.346     1975.713     1144.343      592.706        0.666        0.186       97.865       23.399        0.057      334.378        4.310      864.582
11/10/2013  02:49:00     -115.228      -80.746       -0.713       49.200       38.327       28.891     2420.652     1468.969      834.676        1.226        0.236      140.703       29.587        0.044      334.390        4.331      864.602
11/10/2013  02:50:00     -101.070      -68.062        0.073       38.482       35.921       21.661     1480.850     1290.284      469.189        0.904        0.162      121.851       18.946        0.024      334.400        4.349      864.619
11/10/2013  02:51:00      -69.862      -33.046        0.891       33.013       17.388       18.311     1089.870      302.344      335.298        0.385        0.086       77.284       15.127        0.038      334.330        4.234      864.620
11/10/2013  02:52:00      -47.823      -56.788        6.174       42.784       35.329       22.279     1830.467     1248.124      496.356        0.456        0.179       74.242       27.218        0.134      334.358        4.279      864.613
11/10/2013  02:53:00      -69.984      -49.787        2.854       29.352       27.622       20.312      861.557      762.961      412.574        0.471        0.102       85.887       13.126        0.023      334.380        4.315      864.616
11/10/2013  02:54:00      -23.075      -21.956        9.510       38.933       21.036       14.509     1515.776      442.525      210.498        0.164        0.108       31.852       13.480        0.179      334.350        4.265      864.632
11/10/2013  02:55:00      -25.935       -8.471        2.942       25.853       20.380       12.710      668.380      415.354      161.553        0.100        0.062       27.284       12.467        0.209      334.240        4.082      864.638
11/10/2013  02:56:00      -42.639       16.996       -1.312       17.129       14.580       13.870      293.408      212.576      192.365        0.140        0.035       45.902        7.143        0.024      334.140        3.915      864.620
11/10/2013  02:57:00      -22.459       13.605       -0.556       16.541       10.603       10.194      273.597      112.421      103.918        0.059        0.024       26.258        8.180        0.097      334.318        4.213      864.580
11/10/2013  02:58:00      -28.876       -0.650       -5.776       11.326       10.934        7.636      128.281      119.559       58.309        0.059        0.015       28.883        4.442        0.024      334.305        4.190      864.566
11/10/2013  02:59:00      -77.793      -17.387       -8.691       14.046       12.186        8.452      197.294      148.497       71.444        0.342        0.021       79.712        8.534        0.011      334.277        4.143      864.566
11/10/2013  03:00:00      -85.574        5.373       -9.034       12.532       13.123        8.747      157.063      172.211       76.509        0.392        0.020       85.742        4.286        0.002      334.033        3.739      864.568
11/10/2013  03:01:00      -77.348      -18.835       -7.187       18.252       20.144       12.257      333.126      405.772      150.224        0.364        0.044       79.608       10.018        0.016      333.856        3.445      864.586
11/10/2013  03:02:00      -55.101       -2.463       -6.432       16.420       17.776       10.835      269.613      315.972      117.392        0.189        0.035       55.156        7.261        0.017      333.757        3.281      864.582
11/10/2013  03:03:00      -41.615      -10.647      -10.169       10.019       14.357        8.889      100.386      206.135       79.022        0.117        0.019       42.955        7.667        0.032      333.942        3.589      864.587
11/10/2013  03:04:00      -53.179      -31.327      -12.339       14.812       12.668        9.350      219.381      160.474       87.419        0.221        0.023       61.720        4.938        0.006      333.933        3.574      864.616
11/10/2013  03:05:00      -70.212      -31.384      -13.329       15.185       16.808        8.607      230.598      282.517       74.089        0.334        0.029       76.907        3.147        0.002      333.763        3.292      864.644
11/10/2013  03:06:00      -58.865      -37.595       -9.788       20.822       17.900       13.890      433.560      320.406      192.943        0.296        0.047       69.846        6.788        0.009      333.689        3.168      864.642
11/10/2013  03:07:00      -65.905      -18.585       -7.116       16.040       16.883       12.099      257.269      285.051      146.384        0.271        0.034       68.475        9.013        0.017      333.729        3.236      864.624
11/10/2013  03:08:00      -84.682      -18.796      -11.910       19.862       15.172       11.692      394.480      230.204      136.706        0.421        0.038       86.743        6.262        0.005      333.682        3.156      864.624
11/10/2013  03:09:00      -83.236      -24.018       -7.818       22.269       21.348       12.590      495.902      455.733      158.511        0.434        0.056       86.632       12.000        0.019      333.623        3.059      864.655
11/10/2013  03:10:00      -84.672      -18.766      -13.212       21.552       16.232       13.405      464.471      263.488      179.706        0.430        0.045       86.727       11.576        0.018      333.606        3.031      864.668
11/10/2013  03:11:00      -49.050      -34.296       -6.090       48.462       22.277       16.132     2348.584      496.267      260.247        0.336        0.155       59.850       20.895        0.122      333.652        3.108      864.681
11/10/2013  03:12:00      -49.059      -37.233        0.763       38.384       34.145       22.400     1473.298     1165.850      501.748        0.347        0.157       61.588       16.249        0.070      333.689        3.168      864.699
11/10/2013  03:13:00      -81.393      -15.568       -3.429       34.185       20.800       16.749     1168.599      432.644      280.519        0.438        0.094       82.868       19.848        0.057      333.662        3.123      864.695
11/10/2013  03:14:00      -82.919        7.199      -12.470       15.356       14.929        9.938      235.793      222.876       98.773        0.382        0.028       83.231        5.295        0.004      333.748        3.266      864.685
11/10/2013  03:15:00      -95.382        2.026      -17.565        8.546        9.657        8.767       73.040       93.250       76.863        0.483        0.012       95.403        1.755        0.000      333.719        3.217      864.682
11/10/2013  03:16:00      -77.947      -14.854      -16.448       16.908       12.395        8.809      285.884      153.627       77.605        0.354        0.026       79.349        8.289        0.011      333.796        3.346      864.679
11/10/2013  03:17:00      -90.677      -36.627      -13.678       12.392       15.414        9.560      153.566      237.580       91.403        0.512        0.024       97.795        4.904        0.003      333.865        3.462      864.700
11/10/2013  03:18:00      -97.576      -31.070      -12.334       21.092       14.638       14.009      444.860      214.262      196.256        0.575        0.043      102.403       11.594        0.013      333.767        3.297      864.715
11/10/2013  03:19:00      -95.801      -23.924      -15.744       20.804       10.872       10.416      432.810      118.190      108.501        0.533        0.033       98.744        7.154        0.005      333.913        3.541      864.702
11/10/2013  03:20:00     -103.978      -32.598      -14.797       11.480       12.857        7.744      131.794      165.304       59.963        0.622        0.018      108.968        5.320        0.002      333.873        3.472      864.680
11/10/2013  03:21:00     -103.164      -36.631       -9.957       15.925       15.810       10.412      253.596      249.954      108.414        0.635        0.031      109.474        8.145        0.006      333.925        3.560      864.666
11/10/2013  03:22:00      -65.636      -23.043       -8.063       16.629        9.192        7.955      276.514       84.489       63.275        0.266        0.021       69.563        8.342        0.014      333.927        3.564      864.653
11/10/2013  03:23:00      -90.341      -50.566        1.349       19.647       16.582       11.706      385.999      274.973      137.027        0.576        0.040      103.530        4.725        0.002      333.946        3.594      864.645
11/10/2013  03:24:00      -79.534      -35.253       -1.604       20.293        9.720        9.798      411.798       94.487       95.991        0.409        0.030       86.997        4.543        0.003      333.964        3.627      864.638
11/10/2013  03:25:00      -83.928       -1.736       -7.369       10.986       14.716        6.721      120.691      216.567       45.170        0.374        0.019       83.946        5.225        0.004      334.357        4.277      864.627
11/10/2013  03:26:00     -113.774      -38.676       -9.771       21.465       19.129       13.930      460.742      365.914      194.040        0.778        0.051      120.168        4.460        0.001      334.109        3.866      864.621
11/10/2013  03:27:00     -111.254      -11.788      -13.287       25.513       22.730       14.166      650.933      516.667      200.676        0.703        0.068      111.877       15.064        0.018      333.885        3.492      864.608
11/10/2013  03:28:00      -66.177        6.242       -3.022       15.298        9.309        8.728      234.019       86.656       76.172        0.241        0.020       66.471        6.517        0.010      334.033        3.739      864.578
11/10/2013  03:29:00      -50.191      -19.114       -8.222       14.892       14.594        7.856      221.780      212.996       61.710        0.172        0.025       53.707        4.199        0.006      334.059        3.782      864.559
11/10/2013  03:30:00      -57.699      -34.869       -7.595       30.942       21.212       17.156      957.411      449.937      294.336        0.315        0.085       67.416       10.415        0.024      333.889        3.501      864.559
11/10/2013  03:31:00      -48.468      -58.506      -16.635       33.120       33.631       16.100     1096.907     1131.029      259.219        0.427        0.124       75.974       19.097        0.063      333.776        3.314      864.592
11/10/2013  03:32:00      -24.414      -58.482      -11.284       19.684       16.572       14.315      387.459      274.616      204.911        0.251        0.043       63.373       10.658        0.028      333.890        3.501      864.635
11/10/2013  03:33:00      -89.165      -33.515      -16.966       19.782       20.653       15.764      391.336      426.542      248.516        0.521        0.053       95.255        6.567        0.005      334.086        3.826      864.656
11/10/2013  03:34:00      -97.520      -19.654      -13.284       13.844       14.247       11.371      191.657      202.980      129.289        0.530        0.026       99.481        8.205        0.007      333.915        3.545      864.657
11/10/2013  03:35:00      -90.674      -38.222       -5.249       24.044       22.329       14.055      578.107      498.606      197.552        0.549        0.064       98.401       12.339        0.016      333.823        3.388      864.644
11/10/2013  03:36:00      -79.215      -37.712      -11.343       13.483       14.239       11.882      181.787      202.746      141.181        0.418        0.026       87.734        2.395        0.001      333.748        3.267      864.639
11/10/2013  03:37:00      -94.856       -7.554      -10.832       40.788       19.401       10.335     1663.631      376.398      106.816        0.566        0.107       95.156       12.209        0.016      333.786        3.327      864.656
11/10/2013  03:38:00      -96.636      -22.899      -13.986       14.495       16.563       10.998      210.099      274.324      120.959        0.533        0.030       99.313        6.216        0.004      333.894        3.508      864.664
11/10/2013  03:39:00     -122.491      -36.936      -11.892       17.677       18.249       12.054      312.480      333.021      145.303        0.865        0.040      127.938        5.345        0.002      333.846        3.428      864.666
11/10/2013  03:40:00     -138.105      -39.236      -12.350       30.453       32.495       26.561      927.410     1055.904      705.499        1.173        0.134      143.571       21.031        0.021      333.736        3.247      864.681
11/10/2013  03:41:00     -142.849      -52.387      -15.894       22.637       21.189       19.134      512.428      448.984      366.098        1.236        0.066      152.152        9.799        0.004      333.632        3.073      864.695
11/10/2013  03:42:00     -124.489      -41.062       -7.101       24.477       26.628       17.770      599.102      709.077      315.780        0.943        0.081      131.086       14.077        0.012      333.642        3.091      864.718
11/10/2013  03:43:00     -113.395      -14.251       -4.288       44.856       26.286       20.454     2012.049      690.956      418.362        0.810        0.156      114.287       21.521        0.035      333.618        3.052      864.730
11/10/2013  03:44:00     -108.667      -37.504       -5.978       30.091       28.714       13.911      905.474      824.521      193.513        0.759        0.096      114.957       16.828        0.021      333.586        2.998      864.744
11/10/2013  03:45:00      -55.671      -33.896        4.963       44.222       19.868       19.626     1955.616      394.721      385.199        0.350        0.137       65.179       24.185        0.138      333.618        3.051      864.749
11/10/2013  03:46:00      -61.769      -30.247       -4.358       18.838       16.343       12.623      354.865      267.106      159.338        0.277        0.039       68.777        6.173        0.008      333.648        3.099      864.727
11/10/2013  03:47:00      -22.598      -23.663      -10.593       18.167       18.521       11.428      330.038      343.027      130.610        0.099        0.040       32.720       10.826        0.109      333.779        3.316      864.720
11/10/2013  03:48:00      -32.059      -27.654       -2.317       17.451       11.234       12.191      304.531      126.209      148.629        0.119        0.029       42.338        8.690        0.042      334.116        3.877      864.716
11/10/2013  03:49:00      -79.167      -48.386       -1.638       22.720       19.618       16.831      516.178      384.861      283.299        0.490        0.059       92.783       13.101        0.020      333.869        3.466      864.721
11/10/2013  03:50:00      -88.067      -53.535      -10.551       18.011       12.933       12.728      324.410      167.253      161.998        0.569        0.033      103.062        7.675        0.006      333.717        3.214      864.729
11/10/2013  03:51:00      -84.353      -44.502      -12.598       13.467       18.389       11.652      181.358      338.163      135.769        0.495        0.033       95.372        7.862        0.007      333.777        3.315      864.723
11/10/2013  03:52:00      -77.334      -23.754      -11.364       10.026       10.164        7.075      100.513      103.316       50.061        0.346        0.013       80.899        3.500        0.002      333.768        3.299      864.724
11/10/2013  03:53:00     -112.302      -40.944      -11.694       22.719       23.661       13.621      516.172      559.856      185.530        0.784        0.063      119.533       10.872        0.008      333.776        3.314      864.733
11/10/2013  03:54:00     -139.820      -59.348       -6.001       22.024       16.700       14.909      485.040      278.889      222.287        1.205        0.049      151.894       11.780        0.006      333.712        3.206      864.749
11/10/2013  03:55:00     -127.927      -52.669       -2.736       21.553       19.305       15.595      464.545      372.687      243.218        1.011        0.054      138.345       11.754        0.007      333.682        3.156      864.757
11/10/2013  03:56:00     -121.383      -34.630      -11.478       24.799       18.168       14.534      615.011      330.084      211.239        0.861        0.058      126.226       14.351        0.013      333.650        3.105      864.760
11/10/2013  03:57:00     -132.507      -17.694      -10.575       30.834       19.093       19.431      950.760      364.540      377.568        0.984        0.085      133.683       18.723        0.020      333.567        2.966      864.763
11/10/2013  03:58:00     -154.141      -12.954      -13.349       26.970       22.073       16.639      727.400      487.236      276.854        1.280        0.075      154.685       11.219        0.005      333.482        2.825      864.767
11/10/2013  03:59:00     -134.260      -11.799       -8.194       39.079       26.946       20.578     1527.140      726.067      423.458        1.045        0.134      134.777       20.789        0.024      333.516        2.881      864.775
11/10/2013  04:00:00      -83.707      -19.964       -1.359       36.442       16.055       19.556     1328.025      257.761      382.434        0.469        0.098       86.055       19.954        0.054      333.496        2.848      864.787
11/10/2013  04:01:00      -67.213      -13.547       -8.183       26.337       26.728        9.249      693.640      714.366       85.551        0.313        0.075       68.565        7.259        0.011      333.636        3.080      864.799
11/10/2013  04:02:00      -69.533       18.300        2.078       24.614       26.386       16.862      605.855      696.197      284.332        0.338        0.079       71.901       12.676        0.031      333.749        3.267      864.792
11/10/2013  04:03:00      -80.055       17.932       -8.289       19.441       28.755       14.790      377.944      826.860      218.758        0.411        0.071       82.038        6.586        0.006      333.867        3.464      864.783
11/10/2013  04:04:00      -74.117      -13.436      -11.399       14.158       30.867       13.555      200.451      952.785      183.729        0.357        0.067       75.325       14.343        0.036      333.752        3.274      864.788
11/10/2013  04:05:00     -100.699      -50.054      -18.542       21.941       19.407       14.937      481.415      376.620      223.103        0.704        0.054      112.453        6.258        0.003      333.611        3.038      864.809
11/10/2013  04:06:00      -53.788      -42.141       -1.496       37.986       24.159       17.778     1442.935      583.643      316.042        0.351        0.117       68.330       14.912        0.048      333.547        2.932      864.844
11/10/2013  04:07:00      -19.761       -9.489       -7.545       13.673        9.811       12.648      186.949       96.259      159.961        0.049        0.022       21.921        9.884        0.203      333.564        2.962      864.847
11/10/2013  04:08:00      -28.387       13.646       -0.705       15.617        8.343        8.559      243.894       69.600       73.249        0.069        0.019       31.496        5.136        0.027      333.738        3.249      864.844
11/10/2013  04:09:00       15.047       39.401       -4.801       13.879       12.217        7.165      192.621      149.253       51.332        0.110        0.020       42.177        5.773        0.019      334.296        4.173      864.845
11/10/2013  04:10:00      -20.018        0.473       -1.990        9.600       17.626        7.066       92.153      310.665       49.931        0.043        0.023       20.023        8.067        0.162      334.150        3.934      864.858
11/10/2013  04:11:00      -33.336      -27.954       -7.624       10.350        7.211        8.097      107.113       52.000       65.562        0.109        0.011       43.505        4.235        0.009      333.857        3.448      864.876
11/10/2013  04:12:00      -40.446      -21.353       -2.403       10.922       11.275        8.371      119.291      127.133       70.067        0.121        0.016       45.737        5.309        0.013      333.600        3.021      864.896
11/10/2013  04:13:00      -56.452      -12.054       -8.262       17.429        9.985        8.441      303.774       99.700       71.248        0.194        0.024       57.725        9.974        0.030      333.520        2.887      864.913
11/10/2013  04:14:00      -78.003      -16.390      -15.558       18.052       13.231       10.566      325.887      175.069      111.645        0.360        0.031       79.706        4.288        0.003      333.602        3.024      864.936
11/10/2013  04:15:00     -108.873      -23.151      -14.204       11.578        8.828        6.878      134.044       77.938       47.300        0.643        0.013      111.308        5.172        0.002      333.532        2.907      864.961
11/10/2013  04:16:00     -121.539      -39.881      -17.379       10.367       11.420        7.877      107.468      130.422       62.051        0.848        0.015      127.915        3.225        0.001      333.516        2.881      864.973
11/10/2013  04:17:00     -123.788      -26.408      -18.844       15.448       12.220       10.931      238.641      149.324      119.478        0.844        0.025      126.573       10.194        0.006      333.509        2.871      864.971
11/10/2013  04:18:00     -110.446      -23.889      -19.968       11.127        8.952        9.525      123.808       80.138       90.722        0.673        0.015      113.000        6.993        0.004      333.533        2.909      864.974
11/10/2013  04:19:00     -104.352      -27.993      -21.450        7.448       11.694        7.504       55.473      136.756       56.308        0.619        0.012      108.042        4.775        0.002      333.581        2.989      864.998
11/10/2013  04:20:00     -101.162      -34.340      -21.081        9.770       10.273        8.046       95.445      105.536       64.744        0.606        0.013      106.831        6.221        0.003      333.683        3.160      865.022
11/10/2013  04:21:00      -92.708      -15.988      -13.151        9.496       11.942        8.040       90.183      142.605       64.634        0.466        0.015       94.076        4.977        0.003      333.664        3.127      865.028
11/10/2013  04:22:00      -78.880      -13.599      -11.336       12.730       11.757       11.891      162.054      138.222      141.400        0.349        0.022       80.044        7.799        0.009      333.614        3.043      865.023
11/10/2013  04:23:00      -86.066      -19.837      -14.719       10.933        9.826        9.296      119.524       96.555       86.424        0.416        0.015       88.322        4.826        0.003      333.591        3.005      865.022
11/10/2013  04:24:00      -94.393      -27.020       -9.232       10.061       11.197        8.051      101.234      125.384       64.825        0.501        0.015       98.184        3.032        0.001      333.625        3.062      865.027
11/10/2013  04:25:00     -102.277      -32.711       -5.472       14.316       15.469       10.029      204.938      239.285      100.578        0.605        0.027      107.380        8.111        0.006      333.687        3.164      865.038
11/10/2013  04:26:00      -96.461      -27.363       -9.182       10.540       16.339        9.732      111.093      266.964       94.720        0.531        0.024      100.267        8.516        0.007      333.701        3.189      865.043
11/10/2013  04:27:00      -81.573      -20.523      -13.844       17.203       14.260       12.965      295.929      203.358      168.087        0.397        0.033       84.115       11.110        0.017      333.722        3.225      865.031
11/10/2013  04:28:00      -94.758       -1.532      -13.882        7.414        8.263        6.267       54.967       68.284       39.279        0.467        0.008       94.771        3.096        0.001      333.595        3.013      865.002
11/10/2013  04:29:00      -97.859       -9.925      -14.730       17.519       13.591       11.534      306.904      184.721      133.042        0.526        0.031       98.361        8.382        0.007      333.548        2.935      864.993
11/10/2013  04:30:00      -92.187      -14.235      -14.187       15.739       13.586        9.576      247.725      184.587       91.701        0.471        0.026       93.280        6.117        0.004      333.543        2.925      864.997
11/10/2013  04:31:00      -85.942      -30.188      -12.334       12.853       18.027       10.829      165.197      324.962      117.269        0.453        0.030       91.090        7.444        0.007      333.500        2.854      865.024
11/10/2013  04:32:00     -105.583      -48.115      -14.627       19.729       12.178        7.216      389.234      148.298       52.069        0.713        0.029      116.029        4.256        0.001      333.507        2.865      865.057
11/10/2013  04:33:00     -124.293      -62.739      -10.497       11.450       13.947        8.481      131.113      194.516       71.920        0.995        0.020      139.229        5.412        0.002      333.549        2.936      865.079
11/10/2013  04:34:00     -108.124      -36.319      -13.552       13.018       14.207        9.410      169.476      201.847       88.549        0.683        0.023      114.061        4.045        0.001      333.593        3.008      865.083
11/10/2013  04:35:00      -80.697      -28.220       -8.611       17.318       10.253        6.450      299.903      105.120       41.602        0.391        0.022       85.489        5.967        0.005      333.714        3.211      865.079
11/10/2013  04:36:00      -48.431      -23.282       -5.857       11.986        7.604        6.213      143.667       57.824       38.600        0.158        0.012       53.737        5.497        0.010      333.872        3.473      865.069
11/10/2013  04:37:00      -15.860      -15.894       -0.940       13.488        9.611        5.654      181.929       92.375       31.962        0.041        0.015       22.453        5.279        0.055      333.948        3.598      865.059
11/10/2013  04:38:00      -26.389      -18.989       -7.058       10.929        5.239        5.025      119.445       27.447       25.250        0.064        0.009       32.511        3.315        0.010      333.876        3.479      865.054
11/10/2013  04:39:00      -30.165      -17.244       -1.790        7.190        5.798        3.877       51.698       33.621       15.034        0.066        0.005       34.746        2.884        0.007      333.888        3.499      865.050
11/10/2013  04:40:00      -46.366      -21.917       -2.601        7.332        6.487        5.262       53.755       42.083       27.690        0.138        0.006       51.286        2.529        0.002      333.795        3.344      865.056
11/10/2013  04:41:00      -66.085      -28.464       -1.937        9.831        6.577        6.265       96.657       43.260       39.252        0.268        0.009       71.955        1.499        0.000      333.702        3.191      865.070
11/10/2013  04:42:00      -65.724      -25.283       -6.113        6.845        6.557        5.950       46.856       42.994       35.408        0.256        0.006       70.419        3.806        0.003      333.724        3.226      865.086
11/10/2013  04:43:00      -71.678      -25.561       -8.257        6.825        7.118        5.999       46.587       50.667       35.990        0.300        0.007       76.099        4.165        0.003      333.669        3.135      865.100
11/10/2013  04:44:00      -99.526      -21.871      -10.968       19.624        8.710        9.878      385.091       75.858       97.576        0.553        0.028      101.901        9.191        0.008      333.682        3.157      865.107
11/10/2013  04:45:00     -121.003      -24.724      -14.301       22.694       20.145       12.828      514.995      405.838      164.570        0.827        0.054      123.503       11.492        0.009      333.618        3.052      865.106
11/10/2013  04:46:00     -122.141       -2.919      -13.645       22.855       17.248       17.681      522.360      297.482      312.625        0.812        0.057      122.175       14.636        0.014      333.514        2.877      865.097
11/10/2013  04:47:00     -100.598      -13.846      -11.745       20.504       14.296       15.653      420.428      204.377      245.029        0.566        0.043      101.546       10.979        0.012      333.562        2.957      865.087
11/10/2013  04:48:00      -45.300      -21.735       -4.810       31.561       11.399        8.206      996.126      129.941       67.337        0.187        0.060       50.245       12.126        0.058      333.571        2.972      865.069
11/10/2013  04:49:00       16.032      -13.677       -3.154       12.241       10.965       13.475      149.834      120.223      181.585        0.045        0.023       21.073        7.432        0.124      333.622        3.057      865.056
11/10/2013  04:50:00        2.727       -4.033       -4.041       10.206        8.221        4.511      104.163       67.588       20.351        0.012        0.010        4.868        3.237        0.442      333.710        3.203      865.053
11/10/2013  04:51:00      -30.811      -14.214        0.162       21.172       13.166        7.217      448.244      173.341       52.086        0.091        0.034       33.932        6.345        0.035      333.683        3.159      865.050
11/10/2013  04:52:00      -56.774      -10.322      -14.355        8.556        8.693        7.157       73.209       75.575       51.217        0.187        0.010       57.704        5.049        0.008      333.417        2.718      865.064
11/10/2013  04:53:00      -49.437      -34.007      -10.641       16.505       14.640        9.466      272.400      214.316       89.598        0.214        0.029       60.004        9.011        0.023      333.448        2.769      865.096
11/10/2013  04:54:00      -49.294      -31.184       -3.115       25.514       15.979       11.081      650.985      255.313      122.793        0.222        0.051       58.329       10.927        0.035      333.384        2.662      865.140
11/10/2013  04:55:00     -121.697      -58.298      -10.205       22.781       16.251       12.155      518.959      264.085      147.741        0.962        0.047      134.940        7.863        0.003      333.445        2.764      865.162
11/10/2013  04:56:00     -138.042      -54.336      -11.988       20.102       26.875       13.077      404.082      722.278      171.014        1.172        0.065      148.351        8.572        0.003      333.407        2.700      865.171
11/10/2013  04:57:00     -110.899      -72.361        0.297       37.228       30.782       20.918     1385.930      947.555      437.560        1.015        0.139      132.419       18.028        0.019      333.434        2.746      865.172
11/10/2013  04:58:00     -110.499      -48.660       -6.958       23.984       23.227       14.206      575.248      539.498      201.812        0.797        0.066      120.738        6.556        0.003      333.451        2.773      865.171
11/10/2013  04:59:00     -114.427      -36.066       -0.406       31.441       21.770       15.785      988.542      473.945      249.154        0.805        0.086      119.977       14.040        0.014      333.600        3.020      865.174
11/10/2013  05:00:00      -99.711      -34.608       -0.200       19.769       22.096       14.995      390.801      488.245      224.858        0.612        0.055      105.546        9.141        0.008      333.581        2.988      865.177
11/10/2013  05:01:00      -92.514      -21.603       -2.376       23.327       18.370        9.994      544.150      337.442       99.886        0.501        0.049       95.002        8.391        0.008      333.463        2.794      865.174
11/10/2013  05:02:00      -66.749       -6.493       -3.132       17.293       10.573        9.203      299.047      111.786       84.689        0.250        0.025       67.064        5.875        0.008      333.395        2.682      865.186
11/10/2013  05:03:00      -48.050       -9.609       -3.936        9.918        9.142        6.798       98.358       83.583       46.208        0.132        0.011       49.001        4.712        0.009      333.487        2.833      865.190
11/10/2013  05:04:00      -59.811       -5.411       -6.278        9.724        8.004        7.040       94.566       64.072       49.557        0.193        0.010       60.056        5.008        0.007      333.465        2.797      865.188
11/10/2013  05:05:00      -83.211      -15.239       -8.790       11.421       11.089       10.224      130.445      122.955      104.536        0.380        0.018       84.595        5.583        0.004      333.507        2.867      865.186
11/10/2013  05:06:00     -110.981      -17.739      -14.226       23.097       18.328       13.106      533.479      335.915      171.772        0.694        0.052      112.390       11.687        0.011      333.451        2.772      865.174
11/10/2013  05:07:00      -69.980      -31.573        1.446       36.040       21.628       18.546     1298.888      467.758      343.951        0.400        0.106       76.773       19.979        0.068      333.279        2.488      865.170
11/10/2013  05:08:00      -47.077      -20.652        0.956       26.826       14.630       13.939      719.645      214.039      194.303        0.189        0.056       51.408       14.588        0.081      333.220        2.391      865.165
11/10/2013  05:09:00      -55.210      -20.413        2.524       28.316       19.675       11.600      801.818      387.089      134.569        0.240        0.066       58.863       10.333        0.031      333.258        2.455      865.167
11/10/2013  05:10:00      -61.256      -35.807        0.978       39.989       31.450       15.807     1599.107      989.080      249.859        0.394        0.142       70.953       17.113        0.058      333.344        2.596      865.186
11/10/2013  05:11:00      -92.627      -41.926        0.744       28.513       26.477       17.464      813.004      701.013      304.990        0.608        0.091      101.673       12.394        0.015      333.361        2.624      865.205
11/10/2013  05:12:00     -109.126       10.291       -6.821       38.967       19.111       12.782     1518.436      365.214      163.390        0.705        0.102      109.610       15.483        0.020      333.237        2.419      865.204
11/10/2013  05:13:00     -105.268        6.356      -14.123       33.950       21.205       14.615     1152.585      449.658      213.602        0.657        0.091      105.459       12.880        0.015      333.217        2.386      865.193
11/10/2013  05:14:00      -51.114      -14.245       -2.212       20.209       21.964       11.056      408.395      482.396      122.241        0.192        0.051       53.062        4.008        0.006      333.086        2.168      865.204
11/10/2013  05:15:00     -129.547      -51.465       -9.681       33.367       25.612       17.714     1113.354      655.950      313.799        1.080        0.104      139.395       12.786        0.008      332.951        1.949      865.228
11/10/2013  05:16:00      -83.316      -34.234       13.277       50.048       48.679       36.229     2504.786     2369.603     1312.554        0.724        0.309       90.075       33.473        0.138      332.920        1.897      865.245
11/10/2013  05:17:00      -72.415        9.148        5.387       55.653       47.092       32.441     3097.265     2217.655     1052.408        0.586        0.318       72.991       31.110        0.182      332.855        1.789      865.257
11/10/2013  05:18:00      -59.948        0.712       -8.669       39.461       30.617       19.542     1557.185      937.375      381.894        0.327        0.144       59.952       20.250        0.114      332.923        1.902      865.243
11/10/2013  05:19:00      -55.565       -5.915      -10.429       20.901       19.861       15.126      436.843      394.475      228.794        0.215        0.053       55.879       11.329        0.041      333.116        2.220      865.208
11/10/2013  05:20:00      -34.831      -24.818       -7.078       18.256       15.429       10.306      333.283      238.048      106.215        0.128        0.034       42.769        7.200        0.028      333.081        2.162      865.167
11/10/2013  05:21:00       16.059      -25.076       -2.236       16.107       22.697       17.172      259.443      515.146      294.888        0.098        0.053       29.778       15.040        0.255      333.262        2.461      865.148
11/10/2013  05:22:00        3.970      -10.066        1.263       20.338       11.255       13.688      413.647      126.672      187.367        0.042        0.036       10.820        9.693        0.802      333.419        2.723      865.140
11/10/2013  05:23:00      -47.124      -21.381       -7.943       18.596       15.079       12.847      345.793      227.380      165.042        0.174        0.037       51.748        6.385        0.015      333.130        2.244      865.146
11/10/2013  05:24:00     -103.273      -13.684      -11.912       17.270       12.262       11.029      298.252      150.369      121.642        0.578        0.029      104.176       11.092        0.011      333.154        2.282      865.158
11/10/2013  05:25:00     -125.867      -21.316      -21.012       14.757       17.311       10.124      217.761      299.658      102.505        0.868        0.031      127.659        4.963        0.002      333.087        2.173      865.167
11/10/2013  05:26:00     -118.323       -8.857      -16.206       25.029       14.815       13.244      626.468      219.470      175.411        0.768        0.051      118.654       11.994        0.010      333.060        2.128      865.173
11/10/2013  05:27:00      -68.619      -30.810       -8.108       33.717       19.629       14.542     1136.866      385.311      211.472        0.373        0.087       75.218       10.945        0.021      332.969        1.979      865.166
11/10/2013  05:28:00      -51.366      -15.257       -7.114       12.810       14.362        9.763      164.088      206.270       95.319        0.169        0.023       53.584        3.208        0.004      333.005        2.037      865.176
11/10/2013  05:29:00      -58.146      -28.203      -15.586       11.425       12.604        8.254      130.541      158.849       68.134        0.239        0.018       64.625        5.508        0.007      333.120        2.227      865.199
11/10/2013  05:30:00      -76.928      -41.568      -18.068       20.253       14.446        9.897      410.171      208.701       97.953        0.434        0.036       87.441        5.179        0.004      333.200        2.360      865.219
11/10/2013  05:31:00     -103.099      -10.957      -18.981       17.564       22.112       12.363      308.494      488.956      152.834        0.603        0.048      103.679        7.726        0.006      333.121        2.228      865.227
11/10/2013  05:32:00      -89.839      -27.224      -16.686       32.284       31.284       21.027     1042.240      978.711      442.155        0.578        0.123       93.873       22.581        0.058      333.137        2.254      865.216
11/10/2013  05:33:00     -116.090        5.484      -16.900       18.177       14.553       11.204      330.414      211.785      125.521        0.723        0.033      116.220        7.333        0.004      333.097        2.189      865.210
11/10/2013  05:34:00      -94.053      -21.096      -17.547       13.572       13.380        9.165      184.186      179.023       84.000        0.502        0.022       96.389        6.297        0.004      333.116        2.220      865.212
11/10/2013  05:35:00     -100.932      -49.346      -14.659       22.036       25.066       13.498      485.589      628.294      182.197        0.707        0.065      112.349       10.470        0.009      333.081        2.163      865.224
11/10/2013  05:36:00      -91.495      -60.475       -7.264       15.047       25.244       16.570      226.409      637.257      274.552        0.661        0.057      109.675       13.526        0.015      333.184        2.332      865.250
11/10/2013  05:37:00      -83.166      -28.953      -12.564       14.645       13.057       11.295      214.469      170.475      127.567        0.421        0.026       88.062        9.009        0.010      333.265        2.466      865.264
11/10/2013  05:38:00      -71.508      -41.561       -5.245        9.114       11.142        6.761       83.056      124.136       45.715        0.356        0.013       82.709        5.078        0.004      333.328        2.570      865.285
11/10/2013  05:39:00      -77.564      -40.333       -2.042       15.870       11.598       11.813      251.851      134.508      139.546        0.409        0.026       87.424        9.510        0.012      333.399        2.689      865.283
11/10/2013  05:40:00      -72.302      -29.649       -0.166       12.166       10.471        8.525      148.023      109.638       72.676        0.322        0.017       78.145        6.070        0.006      333.421        2.724      865.271
11/10/2013  05:41:00      -69.131      -17.567      -12.220        9.367       13.655        7.630       87.735      186.462       58.214        0.278        0.017       71.328        5.091        0.005      333.461        2.788      865.264
11/10/2013  05:42:00      -76.498       -7.082       -8.827       19.057       13.482        9.467      363.168      181.752       89.629        0.331        0.032       76.826        5.681        0.005      333.383        2.662      865.244
11/10/2013  05:43:00      -92.016      -26.192       -7.503       26.018       18.308       13.492      676.923      335.190      182.024        0.520        0.060       95.671       14.366        0.023      333.508        2.869      865.241
11/10/2013  05:44:00      -58.316      -46.101        7.996       36.344       20.427       19.478     1320.854      417.280      379.406        0.385        0.106       74.338       21.908        0.087      333.452        2.774      865.257
11/10/2013  05:45:00      -34.832      -24.160       -9.341       26.389       17.275       11.492      696.386      298.418      132.075        0.151        0.056       42.391       11.134        0.069      333.261        2.460      865.262
11/10/2013  05:46:00      -14.292      -11.620       -4.038       10.873       12.523       10.513      118.217      156.817      110.521        0.037        0.019       18.419        6.068        0.109      333.252        2.444      865.256
11/10/2013  05:47:00       18.409       32.808       -1.039       16.304       27.077       12.472      265.836      733.149      155.559        0.129        0.058       37.619       14.581        0.150      333.272        2.477      865.250
11/10/2013  05:48:00       28.505       25.160       -8.903       16.458       10.954        6.986      270.853      119.991       48.797        0.098        0.022       38.020        5.369        0.020      333.292        2.509      865.253
11/10/2013  05:49:00       -7.060       26.675       -2.338       10.787       25.465        9.961      116.363      648.470       99.228        0.082        0.043       27.594        7.481        0.073      333.296        2.518      865.270
11/10/2013  05:50:00       -9.323       -4.803        1.077        7.370       12.918        7.940       54.317      166.879       63.041        0.020        0.014       10.488        7.972        0.578      333.273        2.478      865.291
11/10/2013  05:51:00      -27.308      -14.479       -5.564        9.427        8.603        8.936       88.868       74.003       79.854        0.061        0.012       30.909        4.384        0.020      333.192        2.345      865.321
11/10/2013  05:52:00      -23.355       -5.670       -4.259        5.281        7.018        5.333       27.893       49.257       28.437        0.035        0.005       24.034        4.398        0.033      333.255        2.449      865.335
11/10/2013  05:53:00      -40.451        4.255       -4.443        7.447        5.161        7.392       55.456       26.637       54.645        0.091        0.007       40.674        4.193        0.011      333.083        2.167      865.344
11/10/2013  05:54:00      -45.006       -5.743       -2.275        6.157        7.395        8.957       37.915       54.683       80.233        0.112        0.009       45.371        2.850        0.004      333.095        2.185      865.363
11/10/2013  05:55:00      -21.071      -15.267       -6.653       15.950        8.184        6.229      254.387       66.980       38.804        0.054        0.018       26.020        7.051        0.073      333.157        2.286      865.392
11/10/2013  05:56:00      -52.051      -28.301       -7.070       25.994       14.854       10.068      675.674      220.655      101.361        0.228        0.050       59.248        5.433        0.008      333.109        2.209      865.430
11/10/2013  05:57:00      -70.067      -37.432       -8.232       10.412        8.399        8.072      108.400       70.535       65.162        0.331        0.012       79.439        4.730        0.004      333.117        2.222      865.451
11/10/2013  05:58:00      -77.535      -33.656       -6.418       12.441       10.959        7.391      154.767      120.089       54.624        0.376        0.016       84.524        3.291        0.002      333.187        2.338      865.464
11/10/2013  05:59:00      -55.575      -18.362       -6.861       13.068       11.068        9.644      170.765      122.502       92.997        0.193        0.019       58.530        6.904        0.014      333.264        2.463      865.466
11/10/2013  06:00:00      -39.186      -23.525        1.648       22.918        7.347        8.386      525.256       53.980       70.332        0.137        0.032       45.705       11.005        0.058      333.375        2.649      865.460
11/10/2013  06:01:00       -9.324      -13.110        4.280        8.980       11.982        6.742       80.645      143.573       45.460        0.027        0.013       16.088        4.948        0.095      333.506        2.866      865.456
11/10/2013  06:02:00      -18.079       -4.208        0.442        9.652        7.379        8.901       93.153       54.446       79.232        0.029        0.011       18.563        8.373        0.203      333.442        2.760      865.447
11/10/2013  06:03:00      -37.710        4.853       -5.268        7.736        8.278        8.652       59.840       68.526       74.851        0.084        0.010       38.021        3.145        0.007      333.390        2.674      865.414
11/10/2013  06:04:00      -44.937       12.308       -4.310        9.470        5.725        5.411       89.677       32.771       29.276        0.117        0.008       46.593        5.323        0.013      333.390        2.674      865.368
11/10/2013  06:05:00      -15.113       19.771        0.519       11.933        5.852        3.288      142.401       34.248       10.808        0.040        0.009       24.886        2.216        0.008      333.698        3.184      865.334
11/10/2013  06:06:00      -42.349       17.340       -7.710       12.314        9.336        7.326      151.643       87.161       53.673        0.122        0.015       45.762        7.079        0.024      333.540        2.923      865.337
11/10/2013  06:07:00      -70.432      -24.546       -9.144       12.597       14.743        6.126      158.678      217.362       37.525        0.303        0.021       74.587        4.805        0.004      333.408        2.703      865.367
11/10/2013  06:08:00      -98.931      -42.604       -7.828       14.815       14.407        7.222      219.474      207.564       52.154        0.607        0.024      107.714        3.544        0.001      333.074        2.152      865.405
11/10/2013  06:09:00     -117.824      -36.568       -8.149       14.556       15.318        9.055      211.872      234.630       81.992        0.791        0.026      123.368        7.037        0.003      333.002        2.032      865.441
11/10/2013  06:10:00      -83.684      -13.076      -11.227       23.448       16.166       11.062      549.802      261.324      122.360        0.412        0.047       84.699       11.490        0.018      332.934        1.920      865.462
11/10/2013  06:11:00      -69.304      -17.102       -6.421       21.492       13.434       10.281      461.910      180.480      105.700        0.294        0.037       71.383        6.964        0.010      332.921        1.898      865.474
11/10/2013  06:12:00      -92.342      -15.760       -6.313       25.253       18.748       13.276      637.732      351.472      176.252        0.499        0.058       93.677        9.834        0.011      332.906        1.874      865.486
11/10/2013  06:13:00     -113.163      -25.862       -5.034       28.346       17.665       15.034      803.506      312.038      226.031        0.742        0.067      116.081       15.131        0.017      333.040        2.095      865.492
11/10/2013  06:14:00      -84.076      -19.709        4.196       34.086       22.238       16.915     1161.839      494.542      286.125        0.471        0.097       86.355       16.640        0.037      332.986        2.003      865.500
11/10/2013  06:15:00      -93.528       -8.524       -4.559       24.651       15.013       11.153      607.685      225.385      124.383        0.490        0.048       93.916       12.851        0.019      332.992        2.014      865.504
11/10/2013  06:16:00      -60.669        0.580       -7.200       22.641       20.967       15.220      512.621      439.604      231.639        0.246        0.059       60.672       10.144        0.028      332.951        1.946      865.490
11/10/2013  06:17:00      -57.933       11.263       -5.983       28.046       18.420       15.502      786.584      339.292      240.318        0.244        0.068       59.018       14.760        0.063      332.940        1.929      865.484
11/10/2013  06:18:00      -92.842      -20.330       -2.794       33.297       27.454       15.541     1108.677      753.730      241.532        0.557        0.105       95.042        9.250        0.009      332.885        1.838      865.488
11/10/2013  06:19:00      -81.856      -25.646       -5.179       36.707       30.118       27.024     1347.414      907.077      730.270        0.518        0.149       85.779       12.549        0.021      332.817        1.728      865.498
11/10/2013  06:20:00      -77.644      -51.276       -9.535       39.200       26.578       20.571     1536.675      706.375      423.174        0.571        0.133       93.048       17.566        0.036      332.687        1.511      865.510
11/10/2013  06:21:00      -33.617      -34.079        3.979       41.101       26.221       21.946     1689.323      687.552      481.636        0.258        0.143       47.869       26.707        0.311      332.733        1.589      865.516
11/10/2013  06:22:00      -19.492      -16.446        3.167       27.675       18.780       24.338      765.899      352.682      592.362        0.119        0.086       25.503       18.336        0.517      332.738        1.597      865.515
11/10/2013  06:23:00      -81.730      -24.631      -12.250       19.083       22.697       17.501      364.162      515.175      306.298        0.431        0.059       85.361        8.060        0.009      332.737        1.595      865.497
11/10/2013  06:24:00      -70.734      -46.583       -1.349       26.737       23.327       17.150      714.868      544.131      294.119        0.436        0.078       84.695       15.068        0.032      332.733        1.589      865.504
11/10/2013  06:25:00      -97.390      -22.873       -7.442       20.645       13.219       10.976      426.215      174.737      120.464        0.539        0.036      100.040        8.304        0.007      332.708        1.546      865.523
11/10/2013  06:26:00      -55.145      -24.267       -9.641       12.830        9.841        9.697      164.616       96.847       94.025        0.204        0.018       60.248        7.234        0.014      332.797        1.693      865.549
11/10/2013  06:27:00      -78.450        1.589       -8.392       24.571       14.660        8.336      603.720      214.926       69.486        0.356        0.044       78.467        8.898        0.013      332.783        1.671      865.553
11/10/2013  06:28:00     -115.323        3.138      -13.917       15.218       10.667        8.509      231.584      113.779       72.399        0.696        0.021      115.365        5.236        0.002      332.830        1.748      865.537
11/10/2013  06:29:00     -109.985       -1.687      -16.540       21.911       14.854       11.890      480.075      220.655      141.384        0.661        0.042      109.998       11.574        0.011      332.882        1.835      865.517
11/10/2013  06:30:00      -77.166       10.997       -9.185       11.191       11.609        8.071      125.233      134.770       65.143        0.324        0.016       77.946        4.757        0.004      333.009        2.043      865.490
11/10/2013  06:31:00      -52.594       31.454      -11.010       11.518        8.108        6.321      132.671       65.734       39.960        0.206        0.012       61.282        2.095        0.001      333.486        2.832      865.460
11/10/2013  06:32:00      -15.588       24.227        0.508       17.045       11.768       14.818      290.539      138.488      219.573        0.074        0.032       28.808       15.303        0.282      333.643        3.093      865.438
11/10/2013  06:33:00       17.899       30.723        4.994       16.251       13.802        9.776      264.086      190.492       95.560        0.092        0.028       35.557        8.444        0.056      333.345        2.597      865.433
11/10/2013  06:34:00        7.131       39.916       -3.283       11.349       13.472       10.822      128.798      181.487      117.122        0.104        0.021       40.548        9.113        0.051      333.111        2.211      865.440
11/10/2013  06:35:00      -12.866       -2.549        8.314       24.308       24.063        9.355      590.859      579.031       87.522        0.075        0.063       13.116        8.850        0.455      333.139        2.259      865.472
11/10/2013  06:36:00      -65.644      -17.043      -13.536        8.213        9.790        8.424       67.454       95.852       70.960        0.251        0.012       67.820        3.301        0.002      332.982        2.000      865.508
11/10/2013  06:37:00     -103.500      -21.060      -13.630       12.770       12.413        9.699      163.080      154.091       94.080        0.588        0.021      105.621        6.395        0.004      332.810        1.716      865.541
11/10/2013  06:38:00     -110.289      -33.914      -15.703       13.650       20.690       14.762      186.314      428.059      217.923        0.720        0.042      115.386       10.323        0.008      332.697        1.529      865.570
11/10/2013  06:39:00     -101.659      -45.156      -18.071       23.060       15.519       11.234      531.745      240.832      126.207        0.680        0.045      111.237        9.782        0.008      332.657        1.463      865.595
11/10/2013  06:40:00      -67.131      -33.162      -15.579       17.610       15.690       10.917      310.120      246.191      119.173        0.326        0.034       74.875        4.754        0.004      332.695        1.524      865.612
11/10/2013  06:41:00      -87.788        1.699      -11.314       12.844        8.241        6.791      164.958       67.910       46.115        0.406        0.014       87.804        3.166        0.001      332.970        1.979      865.596
11/10/2013  06:42:00      -44.208       -7.073       -3.453       19.854       12.948        7.266      394.182      167.651       52.796        0.132        0.031       44.771        7.155        0.026      332.902        1.867      865.578
11/10/2013  06:43:00      -38.683       -8.738       -9.208       12.431        6.907        7.743      154.538       47.713       59.953        0.096        0.013       39.658        9.397        0.056      333.037        2.091      865.555
11/10/2013  06:44:00      -65.320       -3.629      -11.277        6.958        7.313        6.273       48.416       53.475       39.350        0.227        0.007       65.420        2.844        0.002      333.307        2.536      865.545
11/10/2013  06:45:00      -62.135      -19.523       -9.936        7.077        8.001        7.264       50.083       64.022       52.771        0.225        0.008       65.130        2.784        0.002      333.160        2.292      865.550
11/10/2013  06:46:00      -63.617      -25.181      -10.301        7.441        7.888        6.010       55.370       62.217       36.118        0.247        0.008       68.419        2.411        0.001      333.085        2.169      865.570
11/10/2013  06:47:00      -81.425      -17.382      -11.731       11.005        6.742        6.385      121.104       45.458       40.763        0.364        0.010       83.260        4.188        0.003      333.031        2.081      865.597
11/10/2013  06:48:00     -120.189      -20.418      -17.064       29.834       13.176       12.619      890.075      173.610      159.229        0.819        0.061      121.910       10.928        0.008      333.051        2.113      865.624
11/10/2013  06:49:00     -157.695      -24.291      -20.670       13.484       16.448       10.982      181.807      270.549      120.604        1.323        0.029      159.555        6.605        0.002      332.873        1.820      865.650
11/10/2013  06:50:00     -145.827       -3.166      -15.951       29.782       21.505       20.393      886.940      462.470      415.884        1.165        0.088      145.862       16.304        0.012      332.684        1.507      865.657
11/10/2013  06:51:00      -99.040      -10.055       -7.257       30.051       21.314       17.673      903.063      454.304      312.349        0.582        0.083       99.550       17.106        0.030      332.628        1.414      865.658
11/10/2013  06:52:00      -59.104       -4.535      -11.494       23.077       20.197       10.691      532.525      407.913      114.301        0.235        0.053       59.278        9.399        0.025      332.680        1.501      865.646
11/10/2013  06:53:00      -32.687       -6.017       -0.768       15.380       19.181       11.366      236.553      367.918      129.197        0.092        0.037       33.237        7.306        0.048      332.826        1.742      865.628
11/10/2013  06:54:00      -27.605      -20.048       -2.481       13.543       10.305       10.391      183.400      106.187      107.979        0.078        0.020       34.117        9.267        0.074      332.993        2.018      865.606
11/10/2013  06:55:00      -24.893      -10.843       -9.847       18.159       10.453        8.647      329.748      109.271       74.774        0.067        0.026       27.152        9.885        0.133      333.221        2.393      865.582
11/10/2013  06:56:00       24.954        2.217        9.088       15.673       14.376        7.905      245.628      206.679       62.491        0.061        0.026       25.052        4.628        0.034      333.240        2.425      865.559
11/10/2013  06:57:00       19.412       37.742      -11.184       14.294        8.146        8.134      204.316       66.357       66.162        0.113        0.017       42.441        5.511        0.017      333.125        2.235      865.555
11/10/2013  06:58:00      -18.200       12.647       -4.621       10.702       17.723        6.263      114.541      314.109       39.221        0.049        0.023       22.163        6.992        0.100      333.179        2.325      865.559
11/10/2013  06:59:00      -54.938      -13.945      -11.364       11.838       11.180        7.197      140.132      124.998       51.798        0.183        0.016       56.681        2.642        0.002      333.063        2.134      865.582
11/10/2013  07:00:00      -83.864      -32.862      -13.689       21.338       12.450        7.341      455.305      155.007       53.893        0.448        0.033       90.073        6.512        0.005      332.892        1.851      865.601
11/10/2013  07:01:00     -135.905      -35.704      -16.885       23.295       18.820       13.221      542.671      354.201      174.791        1.055        0.054      140.517        4.223        0.001      332.739        1.598      865.605
11/10/2013  07:02:00      -92.830      -26.789       -5.607       24.660       29.362       20.158      608.126      862.134      406.326        0.562        0.094       96.618       15.680        0.026      332.673        1.488      865.626
11/10/2013  07:03:00      -96.993      -39.760       -6.618       19.146       28.399       17.463      366.565      806.527      304.945        0.625        0.074      104.826        5.318        0.003      332.685        1.509      865.638
11/10/2013  07:04:00      -73.609      -40.791       -8.388       22.599       28.587       15.354      510.704      817.221      235.747        0.436        0.078       84.156       12.209        0.021      332.786        1.676      865.659
11/10/2013  07:05:00      -69.182      -24.445      -14.907       15.819       19.070       11.174      250.237      363.677      124.861        0.317        0.037       73.373        6.177        0.007      332.806        1.709      865.671
11/10/2013  07:06:00      -73.311      -21.360      -14.941       21.569       18.843       13.665      465.212      355.062      186.738        0.353        0.050       76.359       11.309        0.022      332.936        1.924      865.663
11/10/2013  07:07:00      -53.749      -18.532       -9.888       22.867       24.016       13.618      522.903      576.767      185.454        0.231        0.064       56.854       14.503        0.065      332.961        1.963      865.658
11/10/2013  07:08:00      -67.719       -7.327       -9.175       13.960       11.056        9.096      194.894      122.227       82.729        0.256        0.020       68.114        4.941        0.005      333.097        2.189      865.650
11/10/2013  07:09:00      -37.734      -25.094       -6.142       12.379        7.673        6.921      153.232       58.875       47.907        0.118        0.013       45.316        6.002        0.018      333.207        2.370      865.654
11/10/2013  07:10:00        1.518      -12.338        3.332        4.883        7.146        6.446       23.846       51.071       41.552        0.014        0.006       12.431        3.233        0.068      333.449        2.770      865.666
11/10/2013  07:11:00       -1.013       16.853       27.988       12.055       12.403       14.223      145.319      153.845      202.307        0.078        0.025       16.883       10.340        0.375      333.545        2.930      865.679
11/10/2013  07:12:00       -9.872       16.349       23.744        6.977       13.249       13.001       48.684      175.528      169.026        0.066        0.020       19.099       10.583        0.307      333.388        2.670      865.682
11/10/2013  07:13:00      -31.334        0.230        3.082       12.321        6.104        7.118      151.802       37.253       50.662        0.062        0.012       31.335        6.326        0.041      333.489        2.837      865.692
11/10/2013  07:14:00      -59.754      -17.644      -11.794       10.763        9.031        7.636      115.839       81.566       58.311        0.214        0.013       62.305        5.536        0.008      333.254        2.447      865.728
11/10/2013  07:15:00      -56.350      -20.604      -12.455       15.809       13.593        8.297      249.914      184.767       68.839        0.213        0.025       59.999        6.950        0.013      333.244        2.430      865.760
11/10/2013  07:16:00      -84.178      -16.774      -13.531       19.087        9.422        9.039      364.327       88.773       81.700        0.404        0.027       85.833        7.350        0.007      333.225        2.399      865.800
11/10/2013  07:17:00      -97.619        4.817      -10.201       21.754       14.386        8.839      473.249      206.961       78.133        0.521        0.038       97.738        2.884        0.001      333.221        2.392      865.808
11/10/2013  07:18:00      -89.116        7.540      -12.038       13.611        9.690        7.053      185.272       93.900       49.749        0.424        0.016       89.434        4.450        0.002      333.242        2.428      865.818
11/10/2013  07:19:00      -44.187       15.443       -6.562       14.097       13.215       12.470      198.725      174.638      155.499        0.138        0.026       46.808        9.469        0.041      333.347        2.601      865.820
11/10/2013  07:20:00      -38.765       32.570       -8.540       11.442       14.629        9.548      130.930      214.011       91.158        0.154        0.022       50.631        7.730        0.023      333.621        3.056      865.806
11/10/2013  07:21:00       -1.973        9.905        2.566       14.656       13.843       14.796      214.795      191.618      218.919        0.037        0.031       10.100        5.774        0.327      333.921        3.555      865.800
11/10/2013  07:22:00      -48.222       11.880       -6.838       19.323       15.685       11.645      373.381      246.029      135.608        0.163        0.038       49.664        9.365        0.036      333.646        3.099      865.821
11/10/2013  07:23:00      -48.218       -6.752       -0.904        9.510       14.716        8.949       90.438      216.569       80.078        0.138        0.019       48.689        6.760        0.019      333.533        2.910      865.846
11/10/2013  07:24:00      -54.792      -10.956      -10.232        7.915        9.663        6.319       62.641       93.380       39.932        0.171        0.010       55.876        4.900        0.008      333.621        3.056      865.847
11/10/2013  07:25:00      -44.358      -15.178       -5.978        5.511        6.859        5.471       30.369       47.040       29.937        0.117        0.005       46.883        3.170        0.005      333.562        2.956      865.829
11/10/2013  07:26:00      -42.159      -15.190       -3.586        8.098        8.090        5.474       65.585       65.449       29.970        0.109        0.008       44.812        4.653        0.011      333.581        2.991      865.811
11/10/2013  07:27:00      -40.184       -9.177       -0.159        8.802       10.454        6.343       77.470      109.284       40.236        0.096        0.011       41.219        4.676        0.013      333.642        3.091      865.823
11/10/2013  07:28:00      -34.720       -6.716       -0.214        7.072        9.423        6.329       50.016       88.794       40.057        0.071        0.009       35.364        3.072        0.008      333.763        3.292      865.847
11/10/2013  07:29:00      -19.313       -2.889       -2.593        6.173        6.203        3.188       38.105       38.477       10.165        0.024        0.004       19.528        1.243        0.004      333.890        3.503      865.859
11/10/2013  07:30:00        3.151        7.004       10.693       21.312        6.893       10.741      454.189       47.518      115.362        0.040        0.031        7.680       11.931        2.413      334.109        3.865      865.844
11/10/2013  07:31:00       25.440       17.433        6.353        8.784        5.593        9.946       77.153       31.285       98.914        0.060        0.010       30.840        6.583        0.046      334.137        3.911      865.825
11/10/2013  07:32:00        5.269        9.013       -5.160        8.458        6.811        5.671       71.541       46.383       32.161        0.014        0.008       10.440        6.004        0.331      334.189        3.998      865.833
11/10/2013  07:33:00      -35.684      -10.602       -1.443        7.593       10.024        5.302       57.661      100.471       28.113        0.079        0.009       37.226        4.563        0.015      333.947        3.596      865.852
11/10/2013  07:34:00      -41.664       -4.393       -4.084        6.549       10.886        4.662       42.891      118.500       21.730        0.098        0.009       41.895        3.709        0.008      333.878        3.485      865.855
11/10/2013  07:35:00      -38.687        2.836       -5.723        9.669        5.786        4.282       93.493       33.473       18.335        0.084        0.007       38.791        3.935        0.010      333.938        3.584      865.851
11/10/2013  07:36:00       -8.115       -2.463        0.508        6.802        3.510        5.913       46.265       12.322       34.963        0.008        0.005        8.480        5.531        0.425      334.275        4.142      865.853
11/10/2013  07:37:00       -5.927        5.201        6.447       11.653       11.555       11.393      135.794      133.528      129.796        0.025        0.020        7.886        8.848        1.259      334.519        4.546      865.866
11/10/2013  07:38:00       -4.692        9.656       19.372       12.970       14.009       12.347      168.218      196.246      152.452        0.050        0.026       10.735       12.120        1.275      334.643        4.752      865.864
11/10/2013  07:39:00        6.556       16.637       21.139        9.594       12.176        9.436       92.038      148.262       89.035        0.055        0.016       17.882        6.262        0.123      334.566        4.624      865.869
11/10/2013  07:40:00       16.238       21.492       21.629       15.368       12.931       11.840      236.172      167.222      140.188        0.087        0.027       26.936       10.316        0.147      334.545        4.589      865.876
11/10/2013  07:41:00       28.138       34.388       34.361       10.843       14.692       12.893      117.565      215.868      166.231        0.183        0.025       44.432        9.638        0.047      334.521        4.546      865.895
11/10/2013  07:42:00       24.412       32.377       22.384       25.895       17.325       20.795      670.557      300.150      432.426        0.177        0.070       40.549       14.212        0.123      334.533        4.570      865.933
11/10/2013  07:43:00        2.147       38.952       47.976       14.681       18.276        7.439      215.535      334.025       55.345        0.221        0.030       39.012        8.113        0.043      334.634        4.736      865.972
11/10/2013  07:44:00        9.949       39.837       46.118       15.601       17.238       10.204      243.377      297.142      104.120        0.223        0.032       41.060        7.469        0.033      334.656        4.773      865.997
11/10/2013  07:45:00        3.998       21.390       38.424       16.982       23.262       12.170      288.380      541.139      148.117        0.146        0.049       21.760       16.145        0.550      334.788        4.991      865.995
11/10/2013  07:46:00      -13.353       -5.191       11.595        9.053        9.231       12.570       81.964       85.220      157.998        0.033        0.016       14.327        9.340        0.425      334.574        4.639      865.981
11/10/2013  07:47:00      -16.541       -5.426       -0.549        9.425        5.963        4.467       88.824       35.556       19.953        0.022        0.007       17.409        3.947        0.051      334.382        4.319      865.969
11/10/2013  07:48:00       -5.642       -8.932       -7.853        6.761        7.536        6.960       45.707       56.790       48.441        0.016        0.008       10.564        4.991        0.223      334.722        4.883      865.964
11/10/2013  07:49:00       -7.580       -4.511       10.556        5.995        6.491       13.069       35.945       42.135      170.795        0.022        0.012        8.821        8.402        0.907      335.135        5.569      865.956
11/10/2013  07:50:00       -4.894        7.981       30.899        4.664       10.909        5.674       21.751      119.009       32.189        0.061        0.009        9.362        5.633        0.362      335.352        5.929      865.950
11/10/2013  07:51:00       -5.797        5.746       24.914        6.410        8.839        6.357       41.086       78.119       40.406        0.042        0.008        8.163        4.578        0.315      335.261        5.778      865.933
11/10/2013  07:52:00      -43.646       -4.345        1.478       14.013       11.166       12.263      196.377      124.681      150.380        0.120        0.024       43.862       11.909        0.074      334.665        4.788      865.924
11/10/2013  07:53:00      -49.854      -15.799       -5.727        8.494        6.589        5.290       72.152       43.415       27.988        0.146        0.007       52.298        3.989        0.006      334.588        4.659      865.933
11/10/2013  07:54:00      -14.349       -4.801       -8.055       11.132        7.201        7.227      123.923       51.856       52.236        0.026        0.011       15.131        4.647        0.094      334.817        5.041      865.941
11/10/2013  07:55:00      -14.049        5.826        0.557        8.436        8.739       10.030       71.160       76.364      100.606        0.024        0.012       15.209        3.862        0.064      334.937        5.239      865.951
11/10/2013  07:56:00        0.607       19.776       20.392        8.530       14.625       11.944       72.762      213.894      142.660        0.062        0.021       19.786        9.954        0.253      335.177        5.637      865.954
11/10/2013  07:57:00       -1.844       27.866       47.834       13.123       19.260       10.836      172.215      370.964      117.410        0.186        0.033       27.927        7.753        0.077      335.258        5.770      865.952
11/10/2013  07:58:00       -4.133       30.002       57.033        9.708       25.921       10.779       94.236      671.918      116.197        0.253        0.044       30.285        6.273        0.043      335.272        5.795      865.965
11/10/2013  07:59:00       -1.712       54.219       69.318       15.248       31.405       15.888      232.514      986.263      252.438        0.461        0.074       54.246       16.662        0.094      335.205        5.685      865.971
11/10/2013  08:00:00       56.847       63.847       38.909       28.069       30.018       30.454      787.851      901.093      927.450        0.572        0.131       85.487       22.956        0.072      334.905        5.186      865.975
11/10/2013  08:01:00       29.113       47.829       46.011       26.545       28.483       27.354      704.633      811.270      748.252        0.376        0.113       55.993       12.612        0.051      335.040        5.411      865.999
11/10/2013  08:02:00        0.880       54.519       58.573       24.109       32.341       20.819      581.268     1045.968      433.442        0.423        0.103       54.526       10.696        0.038      335.144        5.584      866.014
11/10/2013  08:03:00        9.211       25.437       33.405       22.731       20.885       17.301      516.695      436.195      299.327        0.155        0.063       27.054       15.259        0.318      335.324        5.882      866.018
11/10/2013  08:04:00       -6.734       36.938       62.135        9.657       24.372       13.469       93.263      593.978      181.412        0.307        0.043       37.547       13.944        0.138      335.293        5.830      866.017
11/10/2013  08:05:00        2.193       17.606       40.961       25.614       30.237       22.483      656.084      914.254      505.487        0.203        0.104       17.742       21.014        1.403      335.389        5.991      866.024
11/10/2013  08:06:00       -1.949       50.593       64.595       15.084       24.836       13.857      227.533      616.840      192.023        0.389        0.052       50.631       14.377        0.081      335.313        5.864      866.040
11/10/2013  08:07:00       11.238       28.487       40.537       20.418       14.283       11.408      416.902      204.009      130.141        0.167        0.038       30.624        6.853        0.050      335.344        5.914      866.051
11/10/2013  08:08:00       38.140       52.104       36.686       20.156       12.002       18.405      406.261      144.053      338.750        0.320        0.044       64.572       10.003        0.024      335.032        5.398      866.056
11/10/2013  08:09:00       31.406       41.988       32.116       22.885       12.734        9.152      523.720      162.145       83.755        0.228        0.038       52.434        4.977        0.009      335.040        5.409      866.059
11/10/2013  08:10:00       26.014       51.447       45.614       23.617       20.804       15.594      557.786      432.794      243.163        0.332        0.062       57.650       12.797        0.049      335.240        5.741      866.058
11/10/2013  08:11:00       -0.036       25.154       45.731       12.673       18.274        9.959      160.612      333.953       99.184        0.166        0.030       25.154        7.575        0.091      335.511        6.193      866.054
11/10/2013  08:12:00       10.642       25.225       41.800       16.560       26.911       16.371      274.231      724.180      268.010        0.188        0.063       27.378       16.436        0.360      335.362        5.946      866.047
11/10/2013  08:13:00       -7.205       30.284       53.251       10.266       24.672       15.756      105.390      608.688      248.258        0.238        0.048       31.129       15.695        0.254      335.613        6.362      866.039
11/10/2013  08:14:00        1.577       14.076       20.769       20.841       17.688       22.702      434.351      312.864      515.388        0.095        0.063       14.164       13.861        0.958      335.697        6.503      866.044
11/10/2013  08:15:00       -5.567      -38.261        6.590       17.760       21.632       19.668      315.425      467.954      386.815        0.135        0.059       38.664       12.333        0.102      335.595        6.334      866.054
11/10/2013  08:16:00      -14.049      -13.932        8.925       19.312       15.230       10.968      372.935      231.952      120.292        0.060        0.036       19.785        5.046        0.065      335.469        6.124      866.062
11/10/2013  08:17:00      -25.430      -13.961        0.889       21.121       17.655       15.565      446.091      311.709      242.259        0.092        0.050       29.010       18.929        0.426      335.478        6.138      866.083
11/10/2013  08:18:00      -28.854       -4.150       -1.396       10.084       17.650        9.052      101.687      311.513       81.945        0.067        0.025       29.151        9.812        0.113      335.301        5.843      866.096
11/10/2013  08:19:00      -37.680      -16.536        1.716       30.723       14.526        9.705      943.898      210.997       94.185        0.147        0.062       41.149        9.871        0.058      335.466        6.117      866.100
11/10/2013  08:20:00      -30.786       -7.035        1.640       17.330       27.180       10.188      300.328      738.772      103.791        0.107        0.057       31.579        9.512        0.091      335.396        6.002      866.104
11/10/2013  08:21:00      -15.536        4.974        3.024       11.830       12.040       12.675      139.943      144.957      160.645        0.036        0.022       16.313        9.115        0.312      335.735        6.566      866.110
11/10/2013  08:22:00      -34.449      -39.489       -5.719       19.937       18.943       14.057      397.489      358.841      197.602        0.187        0.048       52.404        8.026        0.023      335.362        5.944      866.124
11/10/2013  08:23:00      -25.033       25.650       17.311       29.367       34.655       25.650      862.410     1200.998      657.946        0.215        0.136       35.841       25.623        0.511      335.664        6.448      866.138
11/10/2013  08:24:00       -9.909       12.720       13.412       17.957       12.595       16.213      322.442      158.628      262.873        0.059        0.037       16.124        6.493        0.162      335.802        6.678      866.148
11/10/2013  08:25:00      -46.021      -19.947       -4.475       30.463       21.725       17.126      927.985      471.983      293.296        0.211        0.085       50.158       13.482        0.072      335.545        6.249      866.152
11/10/2013  08:26:00      -88.238       -1.233        9.641       42.741       30.901       26.015     1826.807      954.861      676.772        0.567        0.173       88.247       24.054        0.074      335.499        6.174      866.161
11/10/2013  08:27:00      -35.492       -2.899       13.537       37.377       31.137       21.692     1397.061      969.505      470.536        0.214        0.142       35.610       20.402        0.328      335.721        6.544      866.173
11/10/2013  08:28:00       -7.163        3.029       24.362       36.470       26.840       25.748     1330.043      720.385      662.953        0.168        0.136        7.777       24.177        9.664      335.926        6.885      866.185
11/10/2013  08:29:00      -29.432       -6.913       12.364       37.728       24.538       19.073     1423.381      602.133      363.783        0.173        0.119       30.233       18.808        0.387      335.918        6.872      866.187
11/10/2013  08:30:00      -43.428      -27.552        8.554       35.776       34.522       25.743     1279.920     1191.778      662.720        0.293        0.157       51.431       25.725        0.250      335.778        6.638      866.193
11/10/2013  08:31:00      -49.589      -50.952       -0.159       26.752       27.318       19.288      715.670      746.267      372.022        0.344        0.092       71.100       14.663        0.043      335.573        6.296      866.187
11/10/2013  08:32:00      -23.910      -31.356        5.268       24.466       25.030       15.639      598.594      626.494      244.574        0.153        0.073       39.432       11.674        0.088      335.740        6.576      866.176
11/10/2013  08:33:00      -28.397      -39.689       -3.373       13.924       18.395       14.151      193.880      338.378      200.261        0.156        0.037       48.801       12.522        0.066      335.630        6.391      866.170
11/10/2013  08:34:00      -64.166      -19.424       -0.292       14.438       16.190       10.409      208.466      262.117      108.351        0.254        0.029       67.041        6.620        0.010      335.602        6.345      866.163
11/10/2013  08:35:00      -38.967      -47.427        1.318       18.501       16.552       12.266      342.285      273.983      150.466        0.227        0.038       61.381        7.094        0.013      335.623        6.381      866.158
11/10/2013  08:36:00      -59.725      -29.761       -0.091       33.593       15.472       16.466     1128.515      239.390      271.138        0.305        0.082       66.729       14.827        0.049      335.725        6.551      866.161
11/10/2013  08:37:00      -23.395      -37.178       -5.430       13.638       13.583        9.611      185.992      184.494       92.365        0.121        0.023       43.927        4.326        0.010      335.740        6.575      866.157
11/10/2013  08:38:00      -40.580      -31.996       -1.303       16.807       13.320       11.891      282.473      177.434      141.386        0.164        0.030       51.677       10.478        0.041      335.834        6.731      866.148
11/10/2013  08:39:00      -29.205      -23.380       -1.465       18.158        9.875        9.585      329.708       97.522       91.870        0.096        0.026       37.411        9.613        0.066      335.852        6.762      866.141
11/10/2013  08:40:00      -42.307      -35.555       -2.668       29.827       31.854        7.403      889.673     1014.668       54.806        0.251        0.098       55.263        6.055        0.012      335.890        6.826      866.140
11/10/2013  08:41:00      -41.055      -25.075       -4.454       12.873       10.571        8.483      165.706      111.746       71.965        0.134        0.017       48.107        7.839        0.027      335.881        6.810      866.132
11/10/2013  08:42:00      -43.888      -26.683       -3.080       12.597       17.671       11.992      158.686      312.251      143.812        0.163        0.031       51.363        4.375        0.007      335.896        6.835      866.121
11/10/2013  08:43:00      -35.656      -16.320      -10.573       10.589        9.687        9.190      112.137       93.836       84.456        0.097        0.015       39.214        6.929        0.031      335.949        6.922      866.108
11/10/2013  08:44:00      -33.250       -6.691       -4.414       12.671       12.735        7.389      160.565      162.174       54.591        0.077        0.019       33.916        6.972        0.042      335.963        6.945      866.103
11/10/2013  08:45:00      -45.598      -29.734       -2.956       18.846       17.273       11.987      355.190      298.355      143.679        0.188        0.040       54.436        7.916        0.021      335.974        6.964      866.097
11/10/2013  08:46:00      -34.766      -17.265       -5.181       13.383        9.619        8.074      179.104       92.524       65.188        0.094        0.017       38.817        8.056        0.043      336.052        7.095      866.089
11/10/2013  08:47:00      -35.357        2.241       -5.085        7.842        9.203        6.558       61.503       84.701       43.007        0.074        0.009       35.428        3.092        0.008      336.055        7.100      866.086
11/10/2013  08:48:00      -43.488       19.860      -20.471       10.258       11.566        7.147      105.224      133.762       51.077        0.150        0.015       47.808        5.066        0.011      336.107        7.186      866.086
11/10/2013  08:49:00      -53.581       -2.367      -11.301       17.175       13.724        9.932      294.979      188.341       98.639        0.179        0.029       53.633        7.276        0.018      336.088        7.155      866.097
11/10/2013  08:50:00      -48.449      -42.826       -2.773       18.719       18.248       13.552      350.417      332.992      183.660        0.253        0.043       64.663        6.047        0.009      336.146        7.251      866.110
11/10/2013  08:51:00      -55.888      -29.831        1.856       35.688       21.689       22.163     1273.661      470.395      491.209        0.313        0.112       63.351       18.440        0.085      336.260        7.441      866.123
11/10/2013  08:52:00      -62.458      -51.179       -4.654       19.985       26.654       12.244      399.405      710.423      149.926        0.390        0.063       80.748        9.055        0.013      336.185        7.317      866.125
11/10/2013  08:53:00      -63.817      -61.730       -1.832       23.043       29.321       15.413      530.996      859.715      237.562        0.476        0.081       88.788       14.280        0.026      336.219        7.373      866.119
11/10/2013  08:54:00      -60.590      -72.631       -5.305       23.757       23.375       16.576      564.404      546.407      274.764        0.518        0.069       94.585       12.385        0.017      336.283        7.481      866.112
11/10/2013  08:55:00      -44.062      -68.302       -0.743       26.268       30.036       14.853      689.985      902.175      220.597        0.421        0.091       81.281       18.119        0.050      336.316        7.537      866.125
11/10/2013  08:56:00      -64.274      -96.815       -4.591       14.135       27.850       14.070      199.796      775.620      197.962        0.735        0.059      116.208        9.507        0.007      336.274        7.466      866.131
11/10/2013  08:57:00      -66.295      -90.151       -4.665       22.429       34.239       19.870      503.041     1172.306      394.828        0.731        0.104      111.903       13.983        0.016      336.322        7.547      866.141
11/10/2013  08:58:00      -64.381     -115.388       -5.159       22.662       26.360       16.219      513.549      694.831      263.056        0.948        0.074      132.134       14.066        0.011      336.349        7.590      866.151
11/10/2013  08:59:00      -61.922      -64.781       -7.153       30.312       19.398       16.263      918.808      376.274      264.495        0.482        0.078       89.615        8.674        0.009      336.430        7.726      866.155
11/10/2013  09:00:00      -74.955     -121.684       -2.832       25.029       34.850       11.133      626.446     1214.532      123.945        1.120        0.098      142.917       11.190        0.006      336.399        7.672      866.146
11/10/2013  09:01:00      -32.598      -37.652       10.681       41.875       47.213       25.400     1753.486     2229.091      645.148        0.361        0.231       49.802       26.325        0.279      336.792        8.332      866.130
11/10/2013  09:02:00      -33.558      -24.653        6.031       35.015       40.892       26.599     1226.067     1672.191      707.525        0.269        0.180       41.640       27.261        0.429      336.908        8.526      866.105
11/10/2013  09:03:00      -41.057      -42.630       11.006       38.864       32.489       20.350     1510.441     1055.548      414.127        0.330        0.149       59.186       18.783        0.101      336.930        8.563      866.091
11/10/2013  09:04:00      -37.497      -30.711        4.304       42.130       32.010       22.326     1774.969     1024.650      498.449        0.283        0.165       48.468       18.840        0.151      336.906        8.521      866.086
11/10/2013  09:05:00      -18.646      -17.587        2.711       28.571       19.928       17.436      816.288      397.115      304.005        0.109        0.076       25.632       10.769        0.177      336.944        8.587      866.086
11/10/2013  09:06:00      -20.536       -1.922       12.960       17.693       27.674       25.692      313.028      765.831      660.061        0.117        0.087       20.626       18.821        0.833      337.229        9.064      866.088
11/10/2013  09:07:00      -11.991        7.921       25.912       10.933       20.805       15.445      119.534      432.864      238.548        0.083        0.040       14.371       10.089        0.493      337.715        9.877      866.089
11/10/2013  09:08:00      -27.588       17.240       -8.375       21.019       31.326       21.372      441.802      981.323      456.778        0.150        0.094       32.532       11.257        0.120      337.122        8.884      866.079
11/10/2013  09:09:00      -17.036        9.209       14.973       18.643       30.276       31.887      347.555      916.609     1016.796        0.144        0.114       19.366       28.876        2.223      337.356        9.276      866.071
11/10/2013  09:10:00      -16.654       33.344       24.996       25.274       23.282       28.949      638.783      542.045      838.030        0.202        0.101       37.272       13.941        0.140      337.405        9.355      866.068
11/10/2013  09:11:00      -38.992        5.222       -5.864       28.919       25.167       12.341      836.330      633.364      152.302        0.160        0.081       39.340        6.870        0.030      337.033        8.734      866.066
11/10/2013  09:12:00        3.820        2.592       21.993       12.103       17.136       19.866      146.493      293.634      394.642        0.067        0.042        4.616       14.183        9.440      337.901       10.189      866.078
11/10/2013  09:13:00      -27.714       -4.805        2.601       20.648       18.530       16.610      426.328      343.376      275.891        0.092        0.052       28.127       13.502        0.230      337.372        9.301      866.095
11/10/2013  09:14:00      -16.255      -17.406       20.622       28.329       33.154       20.327      802.526     1099.169      413.201        0.165        0.116       23.815       11.522        0.234      337.467        9.461      866.093
11/10/2013  09:15:00       17.131      -37.173       39.115       37.817       90.437       42.524     1430.147     8178.924     1808.281        0.731        0.571       40.930       53.995        1.740      337.540        9.583      866.076
11/10/2013  09:16:00       26.259      -33.643       32.026       43.110       82.080       43.017     1858.429     6737.191     1850.473        0.664        0.522       42.678       44.501        1.087      337.668        9.796      866.062
11/10/2013  09:17:00       16.388       13.529       51.760       36.278       37.053       30.669     1316.064     1372.912      940.616        0.338        0.181       21.251       24.113        1.288      337.561        9.617      866.060
11/10/2013  09:18:00        7.546        7.413       45.848       28.915       50.462       41.074      836.080     2546.366     1687.092        0.364        0.253       10.578       41.116       15.108      337.351        9.266      866.063
11/10/2013  09:19:00       -8.874       -7.303       -2.331       15.029       15.261       17.610      225.883      232.894      310.097        0.045        0.038       11.493        9.683        0.710      337.593        9.671      866.068
11/10/2013  09:20:00      -33.031        7.136       -5.377       29.441       15.231       21.257      866.745      231.980      451.880        0.136        0.078       33.793       18.912        0.313      337.418        9.379      866.068
11/10/2013  09:21:00       -2.125       12.270       19.540       27.591       30.148       27.684      761.276      908.907      766.391        0.149        0.122       12.453       29.382        5.567      337.427        9.394      866.069
11/10/2013  09:22:00        4.606       25.171       37.105       17.754       22.462       13.981      315.204      504.553      195.457        0.152        0.051       25.589       13.637        0.284      337.780        9.985      866.057
11/10/2013  09:23:00       79.083       48.397       10.506       43.347       31.152       22.165     1879.000      970.466      491.297        0.602        0.167       92.717       11.245        0.015      337.291        9.164      866.039
11/10/2013  09:24:00       66.347       61.956       -7.167       44.106       36.336       28.835     1945.346     1320.327      831.458        0.619        0.205       90.777       20.274        0.050      337.191        8.999      866.035
11/10/2013  09:25:00       14.058       11.616       14.092       35.785       22.025       28.121     1280.544      485.105      790.796        0.154        0.128       18.236       11.887        0.425      337.718        9.881      866.037
11/10/2013  09:26:00       46.719       47.714       58.261       58.419       41.669       36.292     3412.777     1736.279     1317.106        0.716        0.323       66.778       29.720        0.198      337.778        9.982      866.040
11/10/2013  09:27:00       73.009       74.285       78.689       48.607       35.858       31.228     2362.616     1285.828      975.214        1.083        0.231      104.157       12.075        0.013      337.426        9.393      866.042
11/10/2013  09:28:00       33.634        6.628       51.865       42.981       50.384       32.704     1847.377     2538.544     1069.551        0.466        0.273       34.281       32.091        0.876      337.819       10.052      866.055
11/10/2013  09:29:00       37.782      -29.346        8.811       36.487       66.549       37.924     1331.268     4428.735     1438.220        0.478        0.360       47.841       46.017        0.925      337.559        9.617      866.062
11/10/2013  09:30:00       81.607       99.155       54.043       37.176       41.058       28.220     1382.049     1685.730      796.361        1.164        0.193      128.419       23.071        0.032      337.553        9.603      866.058
11/10/2013  09:31:00       77.103      103.300       76.852       46.443       32.323       32.395     2156.974     1044.784     1049.434        1.339        0.213      128.902       25.460        0.039      337.620        9.717      866.046
11/10/2013  09:32:00      148.647       92.858       17.516       55.650       39.024       37.246     3096.874     1522.869     1387.296        1.852        0.300      175.267       24.626        0.020      337.199        9.011      866.035
11/10/2013  09:33:00       93.555       86.468       69.523       64.707       49.319       36.716     4187.026     2432.364     1348.033        1.451        0.398      127.394       19.419        0.023      337.585        9.658      866.028
11/10/2013  09:34:00      144.817       83.276       47.363       73.475       63.648       56.734     5398.512     4051.046     3218.789        2.141        0.633      167.053       46.617        0.078      337.391        9.331      866.027
11/10/2013  09:35:00      133.586       97.120       69.256       61.629       52.718       53.993     3798.190     2779.215     2915.226        2.078        0.475      165.159       41.520        0.063      337.546        9.590      866.013
11/10/2013  09:36:00      133.303      121.406       74.507       41.562       40.048       43.274     1727.376     1603.850     1872.675        2.163        0.260      180.302       26.716        0.022      337.418        9.377      866.014
11/10/2013  09:37:00       74.684       51.514       66.556       52.375       48.881       38.882     2743.144     2389.398     1511.833        0.965        0.332       90.727       37.278        0.169      337.612        9.704      866.015
11/10/2013  09:38:00       58.867      101.702       96.841       43.718       41.617       36.008     1911.265     1731.978     1296.542        1.406        0.247      117.510       30.798        0.069      337.694        9.841      866.013
11/10/2013  09:39:00       78.556       75.998       49.334       50.876       49.794       46.178     2588.379     2479.453     2132.401        1.079        0.360      109.301       39.391        0.130      337.685        9.826      866.013
11/10/2013  09:40:00       73.142      -52.221       10.892       48.682       63.085       43.710     2369.951     3979.665     1910.564        0.823        0.413       89.871       39.772        0.196      337.642        9.753      866.016
11/10/2013  09:41:00       48.329       41.907       63.828       55.472       72.744       44.690     3077.160     5291.700     1997.169        0.926        0.518       63.968       45.825        0.513      337.920       10.220      866.008
11/10/2013  09:42:00      115.465       68.441       20.594       49.740       33.301       53.437     2474.097     1108.948     2855.557        1.244        0.322      134.225       37.413        0.078      337.797       10.013      866.002
11/10/2013  09:43:00       96.920      112.738       68.406       83.020       69.309       70.632     6892.326     4803.761     4988.899        2.173        0.834      148.672       60.737        0.167      337.821       10.053      866.001
11/10/2013  09:44:00       92.291      126.712       97.517       84.290       46.025       60.527     7104.820     2118.304     3663.556        2.348        0.644      156.759       61.401        0.153      337.448        9.426      866.007
11/10/2013  09:45:00      102.984      108.596       80.983       52.982       46.821       56.605     2807.083     2192.176     3204.136        1.858        0.410      149.662       53.304        0.127      337.458        9.445      866.013
11/10/2013  09:46:00       36.132       39.357       61.843       47.310       89.386       38.572     2238.282     7989.937     1487.786        0.920        0.586       53.428       47.679        0.796      337.868       10.132      866.007
11/10/2013  09:47:00       20.847       19.539       32.899       33.233       46.657       40.215     1104.457     2176.907     1617.232        0.340        0.245       28.572       35.157        1.514      338.059       10.453      866.017
11/10/2013  09:48:00      108.298       82.899       48.895       79.580       59.106       50.400     6332.903     3493.569     2540.128        1.668        0.618      136.384       33.703        0.061      337.878       10.149      866.014
11/10/2013  09:49:00       14.701       69.758      104.868       39.124       53.009       30.837     1530.653     2809.903      950.900        1.068        0.265       71.290       27.389        0.148      338.076       10.483      866.006
11/10/2013  09:50:00       12.338       35.219       65.417       33.988       58.746       31.803     1155.209     3451.121     1011.435        0.564        0.281       37.317       35.854        0.923      338.013       10.378      866.018
11/10/2013  09:51:00       26.091      -32.463       38.721       37.973       50.846       37.595     1441.968     2585.288     1413.392        0.434        0.272       41.648       32.329        0.603      338.448       11.106      865.997
11/10/2013  09:52:00       88.031       42.442       65.914       59.278       78.120       48.784     3513.895     6102.679     2379.862        1.294        0.600       97.728       42.264        0.187      338.058       10.452      865.992
11/10/2013  09:53:00      107.646       89.083       33.768       74.625       48.039       34.914     5568.958     2307.739     1218.964        1.488        0.455      139.726       31.733        0.052      337.931       10.237      865.979
11/10/2013  09:54:00       99.309      122.628      100.657       83.322       60.127       46.179     6942.514     3615.198     2132.520        2.386        0.635      157.797       36.248        0.053      337.889       10.165      865.959
11/10/2013  09:55:00      118.091       98.680       87.277       49.479       47.523       45.908     2448.151     2258.406     2107.584        1.906        0.341      153.894       36.014        0.055      337.826       10.062      865.937
11/10/2013  09:56:00       78.370       79.016       81.443       51.353       50.034       40.469     2637.151     2503.398     1637.780        1.290        0.339      111.289       30.682        0.076      338.039       10.421      865.924
11/10/2013  09:57:00       30.067      -25.546       43.752       46.074       92.803       38.229     2122.809     8612.309     1461.480        0.783        0.610       39.454       42.432        1.157      338.204       10.697      865.918
11/10/2013  09:58:00       44.603       43.537       73.268       57.803       70.673       41.775     3341.144     4994.726     1745.129        0.967        0.504       62.329       40.809        0.429      338.176       10.648      865.908
11/10/2013  09:59:00       37.133       40.731       23.603       33.929       38.242       28.810     1151.203     1462.479      829.990        0.352        0.172       55.117       21.177        0.148      337.842       10.089      865.904
11/10/2013  10:00:00       15.614        3.934       41.802       42.021       43.448       37.033     1765.792     1887.746     1371.430        0.351        0.251       16.101       29.344        3.321      338.438       11.089      865.891
11/10/2013  10:01:00       56.388       77.647       99.742       56.418       54.302       41.412     3183.016     2948.680     1714.924        1.350        0.392       95.962       41.065        0.183      338.154       10.612      865.886
11/10/2013  10:02:00       99.401       76.089       35.251       50.204       40.738       41.058     2520.434     1659.578     1685.728        1.139        0.293      125.180       29.684        0.056      337.756        9.945      865.879
11/10/2013  10:03:00       46.153       56.897       -9.204       25.393       33.523       20.698      644.797     1123.770      428.403        0.382        0.110       73.262       18.379        0.063      337.767        9.964      865.875
11/10/2013  10:04:00       78.038       46.962       13.558       28.906       33.205       28.295      835.572     1102.574      800.614        0.561        0.137       91.079       18.604        0.042      337.976       10.315      865.851
11/10/2013  10:05:00       97.492       66.489       23.244       39.962       33.020       31.904     1596.988     1090.335     1017.844        0.908        0.185      118.007       23.437        0.039      338.168       10.637      865.836
11/10/2013  10:06:00       31.757       46.118       53.924       47.658       41.535       29.075     2271.309     1725.142      845.374        0.544        0.242       55.995       28.406        0.257      338.428       11.073      865.831
11/10/2013  10:07:00       17.455       75.412       73.846       24.033       35.837       18.027      577.588     1284.325      324.981        0.682        0.109       77.406       17.024        0.048      338.428       11.073      865.839
11/10/2013  10:08:00       20.053       83.989       94.589       27.870       34.140       17.538      776.714     1165.513      307.568        0.933        0.112       86.350       17.215        0.040      338.291       10.843      865.836
11/10/2013  10:09:00       42.441       58.550       49.332       41.741       28.962       36.229     1742.347      838.796     1312.545        0.578        0.195       72.314       20.864        0.083      338.205       10.699      865.853
11/10/2013  10:10:00       30.881       38.308       47.271       40.222       41.328       35.120     1617.803     1707.975     1233.403        0.461        0.228       49.205       28.452        0.334      338.289       10.838      865.859
11/10/2013  10:11:00       19.820       62.006       87.966       52.670       71.853       51.754     2774.120     5162.820     2678.496        1.129        0.531       65.097       56.448        0.752      338.459       11.124      865.865
11/10/2013  10:12:00       18.736       49.430       89.339       46.839       64.609       43.572     2193.871     4174.358     1898.513        0.952        0.413       52.862       39.463        0.557      338.567       11.307      865.877
11/10/2013  10:13:00       37.470       24.224       53.595       47.156       54.482       51.051     2223.694     2968.266     2606.156        0.633        0.390       44.619       48.981        1.205      338.417       11.054      865.867
11/10/2013  10:14:00       29.101       74.091       96.373       55.544       70.792       45.581     3085.094     5011.452     2077.667        1.290        0.509       79.602       49.409        0.385      338.354       10.947      865.868
11/10/2013  10:15:00       20.466       58.062       82.965       41.611       47.928       32.255     1731.510     2297.097     1040.354        0.787        0.253       61.563       29.176        0.225      338.532       11.247      865.855
11/10/2013  10:16:00       70.454      -93.967       -6.752       51.684       69.555       46.722     2671.228     4837.945     2182.906        1.176        0.485      117.446       43.763        0.139      338.298       10.854      865.846
11/10/2013  10:17:00       34.944      -89.507        6.156       51.748       68.708       46.595     2677.905     4720.816     2171.068        0.942        0.478       96.087       47.144        0.241      338.667       11.474      865.829
11/10/2013  10:18:00        1.285       55.845       74.558       24.479       34.719       22.961      599.219     1205.422      527.228        0.551        0.117       55.859       18.145        0.106      338.656       11.458      865.808
11/10/2013  10:19:00       16.798       -8.285       12.512       28.496       21.460       38.299      812.037      460.525     1466.778        0.162        0.137       18.730       28.899        2.381      338.239       10.756      865.795
11/10/2013  10:20:00      -14.485       26.736       -0.298       20.619       22.080       19.409      425.129      487.510      376.722        0.111        0.064       30.407       14.307        0.221      338.213       10.712      865.764
11/10/2013  10:21:00       19.008       20.792       25.405       18.925       24.999       17.425      358.164      624.972      303.627        0.136        0.064       28.171       11.977        0.181      338.740       11.597      865.762
11/10/2013  10:22:00       10.646       27.402       44.270       18.430       32.746       27.634      339.653     1072.309      763.630        0.250        0.109       29.397       17.604        0.359      339.046       12.112      865.748
11/10/2013  10:23:00       41.490       54.198       33.864       57.429       45.661       45.942     3298.118     2084.897     2110.633        0.665        0.375       68.256       39.143        0.329      338.562       11.298      865.752
11/10/2013  10:24:00       74.545       66.518       -7.581       36.732       29.797       26.127     1349.237      887.841      682.627        0.648        0.146       99.908       14.982        0.022      338.344       10.932      865.759
11/10/2013  10:25:00       63.666       57.383        7.631       28.165       20.081       21.468      793.247      403.255      460.878        0.453        0.083       85.710        9.895        0.013      338.317       10.888      865.770
11/10/2013  10:26:00       84.785       71.621       23.298       19.406       15.565       28.314      376.584      242.278      801.680        0.714        0.071      110.987        8.140        0.005      338.238       10.753      865.780
11/10/2013  10:27:00       41.260       69.671       15.451       34.468       41.941       39.574     1188.049     1759.089     1566.071        0.565        0.226       80.971       16.190        0.040      338.594       11.353      865.775
11/10/2013  10:28:00       40.119       58.294        4.741       33.255       38.013       35.280     1105.877     1445.005     1244.663        0.441        0.190       70.765       30.903        0.191      338.690       11.514      865.769
11/10/2013  10:29:00       36.764       75.160        4.858       34.943       35.604       36.865     1221.013     1267.665     1359.053        0.544        0.192       83.669       25.485        0.093      338.673       11.484      865.745
11/10/2013  10:30:00       67.368       52.185       22.869       52.048       35.503       37.733     2709.033     1260.453     1423.800        0.659        0.270       85.216       28.622        0.113      338.656       11.456      865.746
11/10/2013  10:31:00       -4.924       46.285        9.855       19.690       42.362       26.664      387.703     1794.580      710.975        0.258        0.145       46.546       25.550        0.301      339.080       12.169      865.734
11/10/2013  10:32:00        3.783       81.969      -13.733       20.313       36.876       22.494      412.622     1359.869      505.993        0.460        0.114       82.057       16.428        0.040      338.553       11.284      865.732
11/10/2013  10:33:00        7.214       25.174       13.246       20.956       29.090       23.535      439.139      846.215      553.894        0.135        0.092       26.188       19.156        0.535      339.270       12.488      865.727
11/10/2013  10:34:00       28.056       31.546       12.649       33.146       24.956       30.973     1098.654      622.807      959.317        0.231        0.134       42.217       22.030        0.272      339.168       12.317      865.721
11/10/2013  10:35:00       36.488       20.728       25.368       23.704       22.425       27.527      561.882      502.898      757.721        0.211        0.091       41.964        8.898        0.045      339.052       12.122      865.710
11/10/2013  10:36:00        0.951       39.159       11.230       27.720       27.206       23.754      768.375      740.168      564.275        0.187        0.104       39.170       19.853        0.257      339.135       12.261      865.693
11/10/2013  10:37:00       -1.310        8.472       18.409       12.109       24.143       14.048      146.633      582.885      197.356        0.067        0.046        8.573       14.634        2.914      339.689       13.195      865.672
11/10/2013  10:38:00       -3.109       25.595       12.458       13.791       28.674       18.655      190.205      822.216      348.009        0.109        0.068       25.783       12.344        0.229      339.401       12.710      865.652
11/10/2013  10:39:00        0.247       30.115       16.366       15.718       37.339       20.330      247.069     1394.208      413.297        0.161        0.103       30.116       23.654        0.617      339.695       13.204      865.644
11/10/2013  10:40:00       11.068        5.725       18.415       18.033       11.730       13.962      325.196      137.604      194.945        0.058        0.033       12.461        8.264        0.440      339.652       13.132      865.640
11/10/2013  10:41:00       16.427        5.240       -3.567       15.062       17.785       15.469      226.873      316.297      239.296        0.055        0.039       17.242       10.386        0.363      339.111       12.222      865.644
11/10/2013  10:42:00        8.200       19.601        9.542       20.427       14.694       15.858      417.279      215.908      251.484        0.071        0.044       21.247       15.477        0.531      339.343       12.610      865.632
11/10/2013  10:43:00        2.098       -5.122       29.665       25.563       17.242       20.511      653.470      297.279      420.704        0.114        0.069        5.535       13.943        6.346      339.974       13.676      865.634
11/10/2013  10:44:00       12.542        8.847       11.944       36.676       38.418       21.226     1345.141     1475.965      450.537        0.182        0.164       15.348       16.392        1.141      339.558       12.975      865.602
11/10/2013  10:45:00       28.101       35.145       44.760       41.129       30.177       31.018     1691.634      910.627      962.117        0.380        0.178       44.998       22.387        0.248      339.956       13.645      865.577
11/10/2013  10:46:00       41.119       27.517       24.901       46.146       23.776       37.650     2129.478      565.308     1417.550        0.359        0.206       49.477       36.349        0.540      339.455       12.800      865.563
11/10/2013  10:47:00        5.362      -25.371        0.539       25.510       33.385       17.862      650.776     1114.575      319.050        0.138        0.104       25.931       12.464        0.231      339.197       12.366      865.543
11/10/2013  10:48:00       -7.215       27.512       51.903       32.908       40.115       43.829     1082.909     1609.226     1920.984        0.406        0.231       28.442       36.370        1.635      339.999       13.717      865.526
11/10/2013  10:49:00       41.121       87.234       99.725       56.774       36.662       31.347     3223.302     1344.137      982.616        1.240        0.278       96.440       27.241        0.080      339.414       12.731      865.514
11/10/2013  10:50:00       76.904       67.030       71.142       49.657       49.189       34.707     2465.816     2419.527     1204.551        1.078        0.304      102.016       34.632        0.115      339.315       12.565      865.504
11/10/2013  10:51:00       96.148       78.865       46.158       46.402       31.574       32.641     2153.103      996.910     1065.430        1.090        0.211      124.355       24.478        0.039      339.050       12.119      865.494
11/10/2013  10:52:00       66.173       82.640       52.576       41.567       35.166       37.079     1727.819     1236.617     1374.840        0.916        0.217      105.869       25.222        0.057      339.173       12.324      865.477
11/10/2013  10:53:00       64.997       64.851       59.219       54.430       31.799       29.969     2962.679     1011.164      898.139        0.840        0.244       91.817       28.149        0.094      339.584       13.017      865.471
11/10/2013  10:54:00       23.883        4.603       23.943       31.444       48.955       27.861      988.731     2396.624      776.243        0.266        0.208       24.323       25.434        1.093      339.801       13.384      865.468
11/10/2013  10:55:00        8.003       53.214       67.961       39.986       39.773       31.256     1598.918     1581.929      976.932        0.584        0.208       53.813       27.314        0.258      339.831       13.435      865.465
11/10/2013  10:56:00       14.821       40.890       56.552       40.012       45.308       21.734     1600.987     2052.823      472.373        0.461        0.206       43.493       18.746        0.186      339.821       13.418      865.462
11/10/2013  10:57:00       30.768       -0.849       27.320       38.330       52.720       40.606     1469.158     2779.409     1648.869        0.379        0.295       30.780       38.153        1.537      339.685       13.188      865.457
11/10/2013  10:58:00       10.687       73.081       99.558       41.435       49.595       26.133     1716.890     2459.652      682.914        1.011        0.243       73.858       25.435        0.119      339.978       13.683      865.464
11/10/2013  10:59:00       24.526       46.616       59.220       49.451       45.123       45.648     2445.415     2036.117     2083.763        0.642        0.328       52.674       25.468        0.234      339.944       13.625      865.466
11/10/2013  11:00:00        9.480       19.863       54.390       30.724       30.804       31.162      943.993      948.869      971.040        0.315        0.143       22.010       21.560        0.960      339.930       13.601      865.460
11/10/2013  11:01:00        5.886       16.875       51.711       28.133       51.131       31.760      791.439     2614.388     1008.712        0.370        0.221       17.872       34.144        3.650      340.112       13.909      865.445
11/10/2013  11:02:00       27.016        7.980       63.021       34.465       41.555       29.540     1187.805     1726.852      872.641        0.428        0.189       28.170       21.081        0.560      339.778       13.347      865.426
11/10/2013  11:03:00        4.750       -4.957       31.299       37.527       50.091       39.434     1408.291     2509.100     1555.066        0.325        0.274        6.866       35.658       26.975      339.681       13.180      865.411
11/10/2013  11:04:00       36.871       53.728       37.972       34.104       40.886       22.582     1163.085     1671.697      509.946        0.452        0.167       65.163       16.405        0.063      339.835       13.441      865.386
11/10/2013  11:05:00        0.080       60.650       81.940       22.375       35.748       23.658      500.647     1277.926      559.707        0.637        0.117       60.650       24.533        0.164      339.893       13.540      865.375
11/10/2013  11:06:00       22.924       44.252       50.277       31.099       37.414       40.108      967.162     1399.791     1608.645        0.449        0.199       49.837       22.198        0.198      340.020       13.754      865.372
11/10/2013  11:07:00       41.939       17.265       29.993       42.906       48.449       35.425     1840.934     2347.270     1254.917        0.420        0.272       45.354       32.887        0.526      339.841       13.451      865.369
11/10/2013  11:08:00       12.209       45.236       66.744       24.789       46.415       23.512      614.498     2154.342      552.824        0.499        0.166       46.855       25.928        0.306      340.232       14.112      865.356
11/10/2013  11:09:00       84.954       43.136       44.546       58.736       51.041       41.651     3449.931     2605.224     1734.778        0.942        0.389       95.277       37.308        0.153      339.856       13.475      865.342
11/10/2013  11:10:00       17.214       32.764       54.973       52.938       52.380       32.775     2802.405     2743.647     1074.223        0.550        0.331       37.011       31.950        0.745      339.996       13.713      865.322
11/10/2013  11:11:00       33.815        2.867       47.848       33.963       67.001       40.433     1153.503     4489.134     1634.858        0.536        0.364       33.936       40.395        1.417      340.101       13.889      865.318
11/10/2013  11:12:00       50.932       21.718       49.250       47.162       75.922       47.275     2224.272     5764.192     2234.928        0.786        0.511       55.369       47.737        0.743      339.836       13.444      865.300
11/10/2013  11:13:00        9.298       14.285       36.360       31.648       42.743       23.237     1001.577     1826.960      539.957        0.249        0.168       17.044       17.140        1.011      340.066       13.831      865.306
11/10/2013  11:14:00        8.683      -66.645        4.598       48.475       59.311       32.970     2349.838     3517.795     1087.009        0.575        0.348       67.208       27.521        0.168      339.946       13.627      865.303
11/10/2013  11:15:00        5.829      -38.805       -3.655       29.435       39.654       28.901      866.396     1572.479      835.288        0.241        0.164       39.241       21.647        0.304      340.039       13.785      865.313
11/10/2013  11:16:00      -13.452      -21.662        6.350       40.786       41.945       23.636     1663.521     1759.407      558.667        0.234        0.199       25.499       23.429        0.844      340.082       13.858      865.308
11/10/2013  11:17:00      -81.711      -89.336       -8.156       34.565       27.025       18.311     1194.749      730.360      335.291        0.849        0.113      121.068       13.218        0.012      339.625       13.085      865.310
11/10/2013  11:18:00      -94.200      -33.384      -13.306       30.102       28.845       19.579      906.133      832.011      383.346        0.614        0.106       99.940       18.565        0.035      339.624       13.084      865.290
11/10/2013  11:19:00      -78.010      -17.359      -29.137       28.779       19.116       19.619      828.210      365.434      384.905        0.441        0.079       79.918       16.748        0.044      339.622       13.082      865.275
11/10/2013  11:20:00      -10.151        7.969        0.929       20.044       14.069       17.265      401.749      197.944      298.081        0.053        0.045       12.905       12.780        0.981      340.003       13.725      865.240
11/10/2013  11:21:00        7.374       16.536       16.601       22.243       13.254       22.272      494.761      175.664      496.048        0.088        0.058       18.106       16.678        0.848      340.279       14.191      865.219
11/10/2013  11:22:00      -35.077       36.395       -5.029       32.395       27.243       22.245     1049.419      742.176      494.858        0.243        0.114       50.547       26.545        0.276      340.208       14.071      865.208
11/10/2013  11:23:00       19.282       45.877       -7.544       33.832       27.563       28.540     1144.616      759.697      814.514        0.263        0.136       49.765       28.016        0.317      340.192       14.043      865.205
11/10/2013  11:24:00       42.093       64.007       11.697       42.073       27.351       27.676     1770.115      748.087      765.980        0.464        0.164       76.607       23.497        0.094      339.945       13.627      865.182
11/10/2013  11:25:00       -7.826       58.902       -0.967       17.262       33.274       23.011      297.974     1107.186      529.491        0.273        0.097       59.420       21.154        0.127      340.299       14.225      865.169
11/10/2013  11:26:00       -1.973      117.956      -11.307       25.211       47.286       21.945      635.604     2235.944      481.567        0.870        0.168      117.972       18.995        0.026      340.155       13.982      865.149
11/10/2013  11:27:00      -12.649       60.253        4.107       27.205       46.389       29.660      740.099     2151.918      879.705        0.379        0.189       61.567       27.071        0.193      340.514       14.588      865.135
11/10/2013  11:28:00       -7.125       75.972       -6.570       23.776       39.908       27.005      565.293     1592.662      729.271        0.438        0.144       76.305       23.754        0.097      340.378       14.358      865.104
11/10/2013  11:29:00       -1.198       99.725       -9.616       26.229       40.679       23.932      687.973     1654.741      572.756        0.648        0.146       99.732       23.986        0.058      340.314       14.249      865.083
11/10/2013  11:30:00       10.182      113.729      -13.452       29.732       34.041       25.838      884.015     1158.781      667.622        0.796        0.136      114.184       22.711        0.040      340.278       14.189      865.056
11/10/2013  11:31:00        3.969       89.835       -4.703       22.782       47.745       29.144      519.003     2279.594      849.354        0.588        0.182       89.923       30.465        0.115      340.469       14.511      865.042
11/10/2013  11:32:00       -4.644       39.117        8.460       20.229       37.536       26.869      409.224     1408.965      721.928        0.208        0.127       39.392       25.207        0.409      340.795       15.063      865.027
11/10/2013  11:33:00       19.054       71.709        2.485       47.547       50.660       31.559     2260.745     2566.434      996.001        0.567        0.291       74.198       31.125        0.176      340.633       14.789      865.018
11/10/2013  11:34:00      103.145       85.865       -4.414       53.690       40.049       42.565     2882.605     1603.883     1811.767        1.216        0.315      134.207       26.970        0.040      340.328       14.274      865.002
11/10/2013  11:35:00      144.030       92.950        3.834       30.120       31.945       32.495      907.234     1020.460     1055.912        1.619        0.149      171.419       14.463        0.007      340.200       14.057      864.988
11/10/2013  11:36:00      115.204       93.851       55.655       31.485       32.037       40.096      991.300     1026.388     1607.652        1.440        0.181      148.593       12.099        0.007      340.484       14.537      864.982
11/10/2013  11:37:00       30.132       59.105       42.049       34.763       36.827       47.964     1208.491     1356.246     2300.551        0.552        0.243       66.343       35.206        0.282      340.635       14.792      864.970
11/10/2013  11:38:00       38.545       56.688       72.637       42.184       36.369       29.431     1779.525     1322.680      866.165        0.697        0.198       68.551       21.884        0.102      340.769       15.018      864.966
11/10/2013  11:39:00       75.082       48.215       19.846       48.007       40.085       39.294     2304.717     1606.832     1544.039        0.690        0.273       89.230       30.888        0.120      340.744       14.977      864.952
11/10/2013  11:40:00       52.379       44.863       10.239       29.935       26.881       32.306      896.096      722.583     1043.675        0.376        0.133       68.966       22.015        0.102      340.739       14.966      864.948
11/10/2013  11:41:00       19.107       70.624       -5.518       38.738       43.843       17.531     1500.631     1922.202      307.336        0.456        0.187       73.163       18.199        0.062      340.429       14.444      864.940
11/10/2013  11:42:00      -14.595       66.555        2.832       21.280       43.274       23.432      452.823     1872.665      549.074        0.376        0.144       68.137       16.690        0.060      340.798       15.067      864.935
11/10/2013  11:43:00       -8.767       73.123       -4.967       27.852       39.453       21.651      775.725     1556.548      468.762        0.412        0.140       73.646       21.766        0.087      340.839       15.136      864.930
11/10/2013  11:44:00       11.418       34.449       13.520       34.557       45.035       23.804     1194.202     2028.173      566.630        0.264        0.189       36.292       25.269        0.485      341.133       15.634      864.908
11/10/2013  11:45:00        1.736       26.476       13.171       24.183       31.389       35.703      584.799      985.262     1274.720        0.186        0.142       26.533       20.809        0.615      341.076       15.537      864.890
11/10/2013  11:46:00       -3.949       -1.098       45.382       27.833       36.166       22.260      774.672     1307.991      495.509        0.233        0.129        4.098       13.439       10.753      341.566       16.367      864.856
11/10/2013  11:47:00       23.858       20.609       59.588       37.487       55.973       44.231     1405.282     3132.961     1956.356        0.552        0.325       31.526       41.823        1.760      341.308       15.931      864.832
11/10/2013  11:48:00       24.455       34.891       73.548       50.060       63.979       54.080     2506.047     4093.350     2924.641        0.837        0.476       42.608       40.403        0.899      341.247       15.828      864.799
11/10/2013  11:49:00       54.922       55.836       92.249       65.561       54.200       41.009     4298.257     2937.662     1681.707        1.178        0.446       78.320       41.733        0.284      340.844       15.146      864.778
11/10/2013  11:50:00       99.279       86.403       40.566       61.946       43.765       39.192     3837.295     1915.334     1536.034        1.313        0.364      131.612       26.398        0.040      340.687       14.878      864.735
11/10/2013  11:51:00       43.429       89.728       90.086       43.514       49.908       40.025     1893.459     2490.821     1602.024        1.202        0.299       99.685       35.511        0.127      340.781       15.039      864.714
11/10/2013  11:52:00      127.420      124.963       81.967       61.030       57.773       51.271     3724.669     3337.751     2628.696        2.413        0.485      178.470       46.093        0.067      340.562       14.666      864.686
11/10/2013  11:53:00       96.116       81.341       66.802       47.402       48.152       37.720     2246.979     2318.653     1422.789        1.315        0.299      125.915       24.561        0.038      340.584       14.706      864.682
11/10/2013  11:54:00       78.547       64.871       30.011       56.823       34.918       35.894     3228.829     1219.233     1288.359        0.851        0.287      101.872       26.643        0.068      340.854       15.162      864.665
11/10/2013  11:55:00       50.430       40.355       33.869       34.620       34.077       27.577     1198.573     1161.225      760.494        0.422        0.156       64.589       20.862        0.104      341.131       15.631      864.657
11/10/2013  11:56:00       79.663       75.426       33.448       60.116       41.152       36.849     3613.982     1693.501     1357.831        0.991        0.333      109.705       33.425        0.093      341.150       15.662      864.642
11/10/2013  11:57:00       47.025      -50.684       16.151       48.556       45.542       32.852     2357.718     2074.103     1079.252        0.528        0.276       69.139       26.166        0.143      340.823       15.109      864.630
11/10/2013  11:58:00       49.604      -11.517        9.574       76.948       71.879       41.220     5921.044     5166.554     1699.077        0.773        0.639       50.923       32.993        0.420      341.032       15.463      864.600
11/10/2013  11:59:00       35.834      -92.260       15.692       70.846       83.206       55.499     5019.100     6923.156     3080.136        1.253        0.751       98.974       51.052        0.266      341.214       15.772      864.585
11/10/2013  12:00:00       69.964      -92.575        3.030       48.940       67.617       43.474     2395.168     4572.070     1889.966        1.116        0.443      116.040       47.042        0.164      341.040       15.477      864.583
11/10/2013  12:01:00       54.456     -116.495       -3.692       49.835       59.459       38.962     2483.480     3535.400     1518.012        1.204        0.377      128.594       41.077        0.102      341.013       15.431      864.563
11/10/2013  12:02:00       68.828     -123.941      -28.930       45.100       49.663       30.826     2034.024     2466.439      950.223        1.319        0.273      141.769       14.129        0.010      341.002       15.413      864.567
11/10/2013  12:03:00       34.621      -51.913        7.424       37.056       33.060       36.542     1373.147     1092.980     1335.353        0.387        0.190       62.398       27.815        0.199      341.107       15.589      864.558
11/10/2013  12:04:00        6.390      -20.432       28.931       28.095       46.951       25.488      789.350     2204.421      649.647        0.247        0.182       21.408       21.637        1.022      341.469       16.203      864.553
11/10/2013  12:05:00       50.819       33.412       31.460       56.547       59.042       41.985     3197.555     3485.917     1762.725        0.657        0.422       60.819       37.377        0.378      341.250       15.832      864.549
11/10/2013  12:06:00       54.519       58.585       21.689       43.656       31.100       30.275     1905.871      967.239      916.551        0.533        0.189       80.028       17.109        0.046      341.210       15.766      864.545
11/10/2013  12:07:00       72.720       37.863        8.952       37.773       34.288       32.878     1426.767     1175.687     1080.941        0.524        0.184       81.986       21.431        0.068      341.073       15.533      864.548
11/10/2013  12:08:00       -6.878      -37.475       -2.641       30.719       46.993       30.738      943.640     2208.315      944.824        0.278        0.205       38.101       22.643        0.353      341.275       15.873      864.533
11/10/2013  12:09:00       54.062       19.325       46.600       39.805       38.670       43.819     1584.475     1495.352     1920.062        0.523        0.250       57.412       32.298        0.316      341.381       16.055      864.522
11/10/2013  12:10:00       83.856       69.882       84.865       72.587       53.412       41.676     5268.812     2852.849     1736.906        1.449        0.493      109.157       39.897        0.134      341.239       15.813      864.511
11/10/2013  12:11:00       24.109      -18.731       41.497       53.543      101.474       61.246     2866.829    10296.996     3751.111        0.978        0.846       30.530       73.188        5.747      341.368       16.032      864.495
11/10/2013  12:12:00       64.739      -34.832       10.622       54.804       53.785       41.730     3003.527     2892.839     1741.414        0.658        0.382       73.514       39.257        0.285      341.192       15.734      864.484
11/10/2013  12:13:00       97.646     -111.237      -12.167       61.344       41.460       34.295     3763.031     1718.952     1176.152        1.436        0.333      148.015       33.182        0.050      341.027       15.455      864.483
11/10/2013  12:14:00      -15.827      -91.531      -13.690       51.488       34.186       23.800     2651.059     1168.690      566.449        0.660        0.219       92.889       10.407        0.013      341.105       15.586      864.466
11/10/2013  12:15:00       -1.404      -84.489       -6.078       38.343       48.581       33.659     1470.179     2360.066     1132.937        0.607        0.248       84.501       30.528        0.131      341.452       16.174      864.452
11/10/2013  12:16:00       10.134      -47.376        0.683       29.228       36.805       26.145      854.273     1354.573      683.546        0.262        0.145       48.448       18.995        0.154      341.406       16.096      864.438
11/10/2013  12:17:00      -51.905      -22.781       14.640       51.558       50.726       35.505     2658.213     2573.118     1260.582        0.496        0.325       56.684       33.788        0.355      341.503       16.261      864.417
11/10/2013  12:18:00        0.719       19.559        3.594       31.015       26.109       27.575      961.948      681.655      760.365        0.140        0.120       19.572       10.407        0.283      341.641       16.494      864.402
11/10/2013  12:19:00       37.068       50.162       39.964       34.860       29.038       22.997     1215.240      843.194      528.878        0.404        0.129       62.372       14.691        0.055      341.969       17.051      864.367
11/10/2013  12:20:00       79.456       74.988       58.847       53.401       55.269       57.010     2851.688     3054.615     3250.177        1.228        0.458      109.254       46.192        0.179      341.631       16.477      864.328
11/10/2013  12:21:00      110.694      105.720       90.240       72.633       54.308       61.520     5275.602     2949.378     3784.675        2.179        0.600      153.068       51.039        0.111      341.206       15.757      864.304
11/10/2013  12:22:00       45.456      105.331      126.140       70.314       60.726       49.502     4943.993     3687.617     2450.483        2.008        0.554      114.721       39.271        0.117      341.390       16.070      864.273
11/10/2013  12:23:00      108.292       59.422       50.354       85.203       61.815       57.378     7259.633     3821.126     3292.202        1.608        0.719      123.524       48.222        0.152      341.165       15.687      864.255
11/10/2013  12:24:00       32.756      -34.873       13.173       35.085       38.831       28.041     1230.947     1507.825      786.277        0.299        0.176       47.844       20.731        0.188      341.273       15.870      864.241
11/10/2013  12:25:00       25.579       13.589        2.923       23.190       30.737       18.611      537.756      944.783      346.388        0.134        0.091       28.965       13.163        0.207      341.250       15.832      864.209
11/10/2013  12:26:00       13.046       28.119       10.590       39.690       38.012       18.699     1575.269     1444.936      349.659        0.222        0.168       30.998       23.123        0.556      341.722       16.632      864.191
11/10/2013  12:27:00       16.464      -24.085       25.776       22.474       42.649       26.452      505.080     1818.905      699.687        0.227        0.151       29.175       14.953        0.263      342.019       17.137      864.171
11/10/2013  12:28:00       62.615      -43.363       26.491       78.192       72.134       61.266     6113.993     5203.298     3753.536        1.078        0.754       76.165       56.838        0.557      341.720       16.628      864.163
11/10/2013  12:29:00       57.482      -79.965        9.825       57.353       89.693       57.319     3289.407     8044.814     3285.450        1.220        0.731       98.481       67.038        0.463      341.422       16.123      864.166
11/10/2013  12:30:00       29.763      -86.287       -3.068       39.517       56.990       31.478     1561.572     3247.887      990.878        0.707        0.290       91.276       17.687        0.038      341.466       16.197      864.153
11/10/2013  12:31:00       28.310       51.411       66.880       36.259       59.242       37.995     1314.703     3509.629     1443.638        0.709        0.313       58.690       33.436        0.325      341.705       16.605      864.157
11/10/2013  12:32:00       25.654       65.138       78.415       54.786       54.039       32.962     3001.529     2920.162     1086.467        0.903        0.350       70.008       30.844        0.194      341.576       16.385      864.163
11/10/2013  12:33:00       56.164       31.233       63.240       46.318       48.847       39.197     2145.353     2386.005     1536.423        0.710        0.303       64.264       35.812        0.311      341.540       16.323      864.161
11/10/2013  12:34:00       63.658       29.823       28.531       37.585       37.919       29.858     1412.623     1437.879      891.479        0.475        0.187       70.298       20.068        0.081      341.392       16.073      864.163
11/10/2013  12:35:00       43.837       32.980       72.248       46.078       49.155       37.480     2123.210     2416.236     1404.755        0.709        0.297       54.858       30.236        0.304      341.563       16.362      864.170
11/10/2013  12:36:00       33.564       54.199       12.898       35.715       27.721       22.112     1275.564      768.431      488.936        0.338        0.127       63.750       14.348        0.051      341.406       16.096      864.160
11/10/2013  12:37:00       61.551       61.128        8.204       28.956       30.579       31.328      838.437      935.061      981.470        0.517        0.138       86.748       20.920        0.058      341.380       16.053      864.150
11/10/2013  12:38:00       11.795      -16.658       26.418       22.350       51.598       35.968      499.526     2662.382     1293.681        0.278        0.223       20.411       39.958        3.833      341.872       16.887      864.140
11/10/2013  12:39:00       -1.356      -21.417       42.824       37.375       95.044       50.250     1396.925     9033.363     2525.058        0.762        0.648       21.460       63.506        8.757      341.989       17.084      864.124
11/10/2013  12:40:00      127.024      107.050       90.410       49.849       44.674       36.934     2484.878     1995.777     1364.089        2.081        0.292      166.117       32.386        0.038      341.455       16.178      864.134
11/10/2013  12:41:00      103.236      137.084       99.786       58.537       42.575       49.786     3426.620     1812.608     2478.683        2.356        0.386      171.609       40.604        0.056      341.455       16.179      864.142
11/10/2013  12:42:00      118.694       82.349       46.825       35.441       31.814       38.629     1256.095     1012.118     1492.182        1.341        0.188      144.464       24.234        0.028      341.313       15.938      864.138
11/10/2013  12:43:00       50.359       72.290       11.566       26.979       17.114       23.499      727.850      292.905      552.194        0.473        0.079       88.101       21.048        0.057      341.286       15.893      864.135
11/10/2013  12:44:00       24.932       65.427       -4.612       28.479       45.450       26.425      811.042     2065.742      698.270        0.425        0.179       70.016       24.383        0.121      341.549       16.339      864.119
11/10/2013  12:45:00       11.888       40.062        9.623       31.031       33.694       31.451      962.897     1135.292      989.153        0.246        0.154       41.788       26.762        0.410      341.679       16.558      864.087
11/10/2013  12:46:00       34.667       25.913       10.125       42.476       39.294       28.289     1804.176     1544.005      800.246        0.306        0.207       43.282       24.368        0.317      341.628       16.472      864.061
11/10/2013  12:47:00       42.899       60.717       65.828       65.731       56.467       46.046     4320.625     3188.511     2120.238        0.974        0.481       74.342       42.288        0.324      341.858       16.862      864.039
11/10/2013  12:48:00       89.278      -34.697       11.304       43.476       38.317       33.881     1890.121     1468.207     1147.928        0.690        0.225       95.784       29.638        0.096      341.410       16.105      864.033
11/10/2013  12:49:00       49.204      -57.090      -18.873       30.533       17.939       18.758      932.263      321.795      351.862        0.382        0.080       75.368       11.563        0.024      341.476       16.214      864.022
11/10/2013  12:50:00      -18.947        0.803       -9.619       16.464       28.392       13.976      271.067      806.109      195.332        0.086        0.064       18.964        8.327        0.193      341.626       16.470      864.027
11/10/2013  12:51:00      -44.197       19.482        7.668       37.917       18.061       17.862     1437.675      326.187      319.054        0.224        0.104       48.300       22.827        0.223      341.956       17.030      864.010
11/10/2013  12:52:00      -67.372       26.095       -6.776       28.063       39.230       20.592      787.513     1538.995      424.046        0.401        0.138       72.249       20.395        0.080      341.959       17.033      863.991
11/10/2013  12:53:00        4.189      -28.804        4.247       21.374       31.900       21.147      456.853     1017.627      447.212        0.139        0.096       29.107       22.448        0.595      342.136       17.334      863.982
11/10/2013  12:54:00      -34.410      -23.324        1.753       24.141       21.327       15.018      582.777      454.839      225.554        0.150        0.063       41.570       12.697        0.093      341.973       17.057      863.965
11/10/2013  12:55:00       63.931       14.881       28.878       62.191       45.543       33.701     3867.700     2074.179     1135.724        0.611        0.354       65.640       21.817        0.110      341.884       16.907      863.964
11/10/2013  12:56:00       17.268      -41.418       14.700       34.603       62.539       32.663     1197.391     3911.116     1066.869        0.420        0.309       44.874       30.921        0.475      342.027       17.148      863.953
11/10/2013  12:57:00       35.818       19.363       57.876       61.793       43.196       30.622     3818.321     1865.869      937.722        0.581        0.331       40.717       24.928        0.375      342.261       17.546      863.929
11/10/2013  12:58:00       84.000       -7.720       34.492       58.093       53.406       42.505     3374.811     2852.154     1806.706        0.817        0.402       84.354       39.030        0.214      341.950       17.019      863.917
11/10/2013  12:59:00       59.746       68.364       64.590       56.166       45.239       38.482     3154.597     2046.610     1480.858        0.955        0.334       90.793       26.664        0.086      341.949       17.017      863.881
11/10/2013  13:00:00      109.124       74.872       21.297       23.784       15.227       29.617      565.685      231.872      877.139        0.982        0.084      132.340        9.989        0.006      341.622       16.463      863.867
11/10/2013  13:01:00       46.470       41.813       15.894       34.321       31.583       29.879     1177.917      997.482      892.759        0.361        0.153       62.512       21.796        0.122      342.048       17.187      863.853
11/10/2013  13:02:00       81.134       39.441       10.724       44.762       33.383       38.946     2003.622     1114.432     1516.785        0.644        0.232       90.212       28.303        0.098      342.083       17.244      863.826
11/10/2013  13:03:00       53.101       58.449        3.398       49.191       32.106       34.850     2419.799     1030.779     1214.509        0.546        0.233       78.968       22.111        0.078      341.962       17.037      863.825
11/10/2013  13:04:00       19.022       33.853        2.781       27.648       29.338       33.692      764.395      860.695     1135.144        0.214        0.138       38.831       26.147        0.453      342.035       17.162      863.821
11/10/2013  13:05:00      107.402       36.188       24.212       59.006       32.872       34.330     3481.724     1080.589     1178.524        0.958        0.287      113.335       21.682        0.037      342.037       17.166      863.813
11/10/2013  13:06:00       64.930       53.172       37.842       40.750       44.593       38.755     1660.587     1988.524     1501.945        0.681        0.258       83.924       23.472        0.078      342.113       17.296      863.820
11/10/2013  13:07:00       29.783      -43.783        3.328       51.571      100.304       29.895     2659.607    10060.818      893.708        0.821        0.681       52.953       30.852        0.339      341.925       16.976      863.799
11/10/2013  13:08:00      159.794     -160.179      -27.486       32.360       47.729       19.589     1047.173     2278.081      383.736        2.783        0.185      226.255       24.870        0.012      341.692       16.576      863.787
11/10/2013  13:09:00       67.158      -77.928       13.575       42.783       43.088       32.298     1830.389     1856.610     1043.147        0.775        0.237      102.874       29.333        0.081      342.003       17.109      863.777
11/10/2013  13:10:00       73.811      -82.315        1.179       48.055       63.290       33.317     2309.264     4005.664     1110.007        0.982        0.371      110.561       28.625        0.067      342.089       17.256      863.742
11/10/2013  13:11:00       49.552      -92.594        2.435       38.582       44.485       36.157     1488.533     1978.884     1307.310        0.790        0.239      105.019       25.586        0.059      342.106       17.286      863.733
11/10/2013  13:12:00       27.673      -25.965       17.393       29.794       39.465       29.257      887.696     1557.485      855.994        0.252        0.165       37.947       33.973        0.802      342.262       17.548      863.727
11/10/2013  13:13:00       42.378       64.637       63.060       40.275       40.559       35.978     1622.067     1645.019     1294.392        0.726        0.228       77.291       26.897        0.121      342.187       17.421      863.719
11/10/2013  13:14:00       54.433       29.125       37.450       32.908       32.177       32.270     1082.908     1035.388     1041.331        0.419        0.158       61.735       20.815        0.114      342.303       17.618      863.714
11/10/2013  13:15:00       19.034       33.593       73.369       57.174       64.965       38.907     3268.902     4220.401     1513.740        0.794        0.450       38.611       32.388        0.704      342.602       18.126      863.702
11/10/2013  13:16:00       31.320       20.897       48.264       52.266       41.792       40.935     2731.763     1746.587     1675.682        0.495        0.308       37.651       39.856        1.121      342.483       17.925      863.693
11/10/2013  13:17:00       50.500       55.828       17.493       58.735       36.675       41.182     3449.849     1345.091     1695.994        0.623        0.325       75.280       26.279        0.122      342.380       17.749      863.687
11/10/2013  13:18:00       37.509        7.041       22.543       52.775       26.817       31.474     2785.176      719.161      990.583        0.323        0.225       38.164       24.603        0.416      342.667       18.237      863.661
11/10/2013  13:19:00       72.350     -115.948      -15.738       54.911       79.234       40.231     3015.266     6278.055     1618.525        1.492        0.546      136.669       43.412        0.101      342.329       17.662      863.628
11/10/2013  13:20:00      112.371     -167.603      -20.588       37.489       46.417       32.910     1405.428     2154.492     1083.073        2.289        0.232      201.787       32.122        0.025      342.098       17.270      863.609
11/10/2013  13:21:00       86.979     -145.995      -16.573       46.495       51.298       36.307     2161.790     2631.446     1318.213        1.763        0.306      169.941       28.968        0.029      342.328       17.662      863.595
11/10/2013  13:22:00       99.345     -156.648        7.934       53.846       67.554       40.257     2899.425     4563.508     1620.627        2.178        0.454      185.494       39.751        0.046      342.230       17.493      863.564
11/10/2013  13:23:00       69.474       56.108       62.217       72.711       51.869       58.028     5286.951     2690.413     3367.265        1.159        0.567       89.302       50.754        0.323      342.507       17.966      863.569
11/10/2013  13:24:00       97.993       48.949       19.488       79.667       62.037       48.093     6346.883     3848.641     2312.951        1.244        0.625      109.539       42.210        0.148      342.279       17.577      863.576
11/10/2013  13:25:00       99.807       27.422       16.981       57.872       45.683       31.669     3349.226     2086.933     1002.949        0.872        0.322      103.506       24.634        0.057      342.400       17.784      863.577
11/10/2013  13:26:00       25.308       24.250       59.525       43.338       50.145       35.070     1878.175     2514.537     1229.932        0.520        0.281       35.050       31.841        0.825      342.723       18.331      863.562
11/10/2013  13:27:00       99.626       88.048       78.484       80.201       54.375       50.519     6432.177     2956.606     2552.190        1.789        0.597      132.958       38.155        0.082      342.591       18.106      863.556
11/10/2013  13:28:00       46.445       31.399       75.900       60.022       75.031       47.538     3602.687     5629.716     2259.876        1.020        0.575       56.063       42.893        0.585      342.766       18.405      863.565
11/10/2013  13:29:00       28.774        9.009       28.041       45.797       42.176       31.207     2097.405     1778.781      973.855        0.327        0.243       30.152       27.434        0.828      342.849       18.546      863.560
11/10/2013  13:30:00       55.232       17.569       20.230       61.307       88.764       29.595     3758.519     7879.113      875.881        0.814        0.626       57.959       21.832        0.142      342.774       18.419      863.540
11/10/2013  13:31:00      109.727       66.402       54.493       85.870       58.401       66.783     7373.688     3410.724     4459.940        1.733        0.762      128.255       57.929        0.204      342.615       18.146      863.538
11/10/2013  13:32:00       78.745       72.288       74.038       56.747       47.070       43.227     3220.261     2215.567     1868.544        1.210        0.365      106.894       34.998        0.107      342.572       18.076      863.543
11/10/2013  13:33:00       26.929       -2.098       22.061       38.731       38.908       27.035     1500.114     1513.860      730.894        0.248        0.187       27.011       20.605        0.582      342.978       18.767      863.538
11/10/2013  13:34:00       38.727      -53.274       18.210       49.933       58.396       41.270     2493.314     3410.056     1703.254        0.614        0.380       65.863       39.947        0.368      343.101       18.976      863.526
11/10/2013  13:35:00       59.973       55.987       60.848       62.117       58.410       47.677     3858.494     3411.734     2273.130        0.999        0.477       82.044       45.565        0.308      342.846       18.540      863.524
11/10/2013  13:36:00       65.252       24.993       56.290       55.910      111.649       77.757     3125.887    12465.485     6046.197        1.484        1.082       69.875       83.647        1.433      342.824       18.503      863.513
11/10/2013  13:37:00      182.437      103.278      108.527      104.872       89.514       70.482    10998.128     8012.702     4967.683        3.985        1.199      209.642       61.687        0.087      342.525       17.992      863.498
11/10/2013  13:38:00      172.754       87.831       48.387       83.903       78.958       59.587     7039.719     6234.367     3550.666        2.836        0.841      193.799       41.165        0.045      342.645       18.197      863.495
11/10/2013  13:39:00       31.872       84.980      108.027       72.550       74.366       44.658     5263.542     5530.294     1994.312        1.635        0.639       90.760       49.050        0.292      342.944       18.708      863.482
11/10/2013  13:40:00       59.576       67.130       64.150       65.436       56.171       46.333     4281.825     3155.192     2146.757        1.088        0.479       89.753       41.066        0.209      342.771       18.412      863.501
11/10/2013  13:41:00       71.716       45.660       63.267       47.944       40.060       39.298     2298.630     1604.775     1544.308        0.834        0.272       85.018       34.250        0.162      342.594       18.112      863.519
11/10/2013  13:42:00       82.130      -54.454        9.405       63.648       81.065       36.147     4051.123     6571.478     1306.625        1.086        0.596       98.542       27.779        0.079      342.660       18.224      863.506
11/10/2013  13:43:00       79.795      -72.358        2.218       51.337       72.357       53.186     2635.439     5235.494     2828.777        1.115        0.535      107.717       49.118        0.208      342.894       18.623      863.489
11/10/2013  13:44:00      104.024     -108.365        6.044       50.574       58.832       38.810     2557.688     3461.178     1506.249        1.506        0.376      150.213       43.749        0.085      342.633       18.178      863.485
11/10/2013  13:45:00       89.710     -106.335       -1.761       66.730       96.121       32.909     4452.950     9239.302     1082.984        1.706        0.739      139.122       51.382        0.136      342.711       18.309      863.477
11/10/2013  13:46:00      127.872      -67.277       11.569       43.667       71.423       38.440     1906.805     5101.236     1477.665        1.475        0.424      144.490       33.890        0.055      342.726       18.337      863.464
11/10/2013  13:47:00       10.299        7.830       31.211       33.965       36.026       27.972     1153.610     1297.857      782.417        0.219        0.162       12.937       29.720        5.277      343.196       19.137      863.450
11/10/2013  13:48:00       42.136       87.599       94.181       63.791       36.126       33.304     4069.262     1305.106     1109.180        1.240        0.324       97.206       32.132        0.109      342.932       18.688      863.439
11/10/2013  13:49:00       46.966       59.584       46.631       41.994       41.742       38.570     1763.479     1742.428     1487.609        0.646        0.250       75.868       26.983        0.126      342.737       18.355      863.425
11/10/2013  13:50:00       44.224        6.611        3.250       44.208       57.386       22.837     1954.308     3293.097      521.539        0.389        0.288       44.715       17.596        0.155      342.865       18.573      863.425
11/10/2013  13:51:00       17.319       16.652       33.640       27.560       57.520       28.614      759.537     3308.550      818.787        0.330        0.244       24.026       31.495        1.718      343.029       18.853      863.411
11/10/2013  13:52:00       11.716       64.753      105.095       64.408       66.311       44.404     4148.430     4397.173     1971.700        1.294        0.526       65.804       43.560        0.438      343.138       19.038      863.395
11/10/2013  13:53:00       63.674     -117.219       11.081       60.179       74.079       43.666     3621.565     5487.727     1906.745        1.446        0.551      133.397       47.555        0.127      342.959       18.732      863.390
11/10/2013  13:54:00       62.899      -94.818       -7.272       55.791       59.153       23.355     3112.645     3499.050      545.455        1.008        0.358      113.783       21.503        0.036      342.943       18.706      863.359
11/10/2013  13:55:00       66.767       82.193       75.170       67.947       49.563       53.282     4616.819     2456.481     2839.009        1.339        0.496      105.894       19.515        0.034      343.049       18.887      863.338
11/10/2013  13:56:00       11.808       12.115       53.253       37.893       80.880       47.409     1435.915     6541.589     2247.635        0.667        0.511       16.918       56.007       10.960      343.218       19.174      863.327
11/10/2013  13:57:00       59.311      -16.641       28.590       49.802       59.959       34.745     2480.209     3595.133     1207.210        0.595        0.364       61.601       31.513        0.262      342.946       18.712      863.317
11/10/2013  13:58:00       83.468       77.447       62.953       48.169       42.356       42.179     2320.209     1794.048     1779.097        1.141        0.295      113.864       23.899        0.044      342.859       18.563      863.301
11/10/2013  13:59:00        3.144       11.769       48.439       23.484       58.569       44.227      551.485     3430.274     1956.029        0.422        0.297       12.182       44.667       13.444      343.172       19.096      863.304
11/10/2013  14:00:00       87.452      -26.169       12.224       60.362       80.213       40.827     3643.576     6434.147     1666.806        1.011        0.587       91.283       37.058        0.165      342.985       18.777      863.301
11/10/2013  14:01:00       92.345       51.329       84.154       70.629       70.097       48.721     4988.441     4913.582     2373.767        1.526        0.614      105.652       41.866        0.157      342.926       18.679      863.287
11/10/2013  14:02:00      116.423       59.615       53.514       71.430       74.444       62.950     5102.292     5541.968     3962.762        1.729        0.730      130.799       50.836        0.151      342.787       18.441      863.299
11/10/2013  14:03:00       47.508      -10.100       27.860       53.849       87.618       34.795     2899.733     7676.937     1210.685        0.746        0.589       48.569       40.657        0.701      343.020       18.837      863.299
11/10/2013  14:04:00       68.430     -111.323       -3.929       33.949       47.499       28.220     1152.536     2256.111      796.379        1.065        0.210      130.673       14.768        0.013      342.868       18.579      863.311
11/10/2013  14:05:00       30.586      -42.766       34.078       38.792       75.692       40.919     1504.837     5729.216     1674.391        0.642        0.445       52.578       48.914        0.865      343.230       19.195      863.302
11/10/2013  14:06:00       22.873       41.328       81.297       53.949       54.695       50.351     2910.480     2991.499     2535.174        0.864        0.422       47.236       37.417        0.627      343.228       19.192      863.310
11/10/2013  14:07:00       99.168      -42.458        6.043       46.609       64.268       38.180     2172.356     4130.324     1457.730        0.972        0.388      107.875       43.938        0.166      342.944       18.710      863.317
11/10/2013  14:08:00       71.004       42.826       63.469       55.372       42.948       41.859     3066.010     1844.533     1752.186        0.878        0.333       82.919       28.157        0.115      342.990       18.786      863.310
11/10/2013  14:09:00      153.894       51.891       14.825       70.348       56.803       50.150     4948.905     3226.552     2515.007        1.864        0.535      162.407       19.975        0.015      342.791       18.446      863.297
11/10/2013  14:10:00       57.375        4.103       25.968       49.033       56.835       35.156     2404.206     3230.258     1235.916        0.543        0.344       57.521       33.551        0.340      342.983       18.775      863.274
11/10/2013  14:11:00       42.404      -13.236       31.161       47.488       39.487       20.146     2255.153     1559.215      405.859        0.358        0.211       44.421       13.403        0.091      343.188       19.125      863.265
11/10/2013  14:12:00       20.591       16.246       44.080       35.633       57.275       26.690     1269.700     3280.383      712.364        0.395        0.263       26.228       35.628        1.845      343.216       19.172      863.253
11/10/2013  14:13:00       12.521        7.368       32.737       28.813       56.468       29.221      830.213     3188.661      853.866        0.308        0.244       14.528       35.363        5.925      343.080       18.939      863.250
11/10/2013  14:14:00       25.585      -97.252      -10.030       33.046       37.645       27.618     1092.039     1417.140      762.732        0.674        0.164      100.561       18.400        0.033      343.003       18.808      863.242
11/10/2013  14:15:00       23.753      -58.904        8.076       32.960       33.956       23.857     1086.390     1153.005      569.167        0.345        0.140       63.513       21.217        0.112      343.249       19.227      863.227
11/10/2013  14:16:00       20.228      -55.775       16.232       33.909       34.008       29.061     1149.792     1156.564      844.560        0.347        0.158       59.330       22.619        0.145      343.206       19.153      863.221
11/10/2013  14:17:00       41.395        0.503        8.270       34.338       27.484       20.964     1179.093      755.387      439.506        0.208        0.119       41.398       23.856        0.332      343.070       18.923      863.222
11/10/2013  14:18:00       46.260      -66.840        3.802       39.999       73.698       34.135     1599.883     5431.352     1165.229        0.741        0.410       81.287       46.329        0.325      343.038       18.870      863.228
11/10/2013  14:19:00       24.482      -35.845       20.237       30.205       74.058       38.602      912.352     5484.536     1490.136        0.509        0.394       43.408       47.839        1.215      343.088       18.953      863.233
11/10/2013  14:20:00       64.948     -105.661       -6.586       58.679       66.843       35.322     3443.167     4467.946     1247.640        1.229        0.458      124.026       44.174        0.127      343.184       19.117      863.237
11/10/2013  14:21:00       31.883      -47.180        4.640       63.636       57.757       37.625     4049.596     3335.848     1415.641        0.603        0.440       56.943       40.241        0.499      343.235       19.204      863.240
11/10/2013  14:22:00       12.851      -64.137        0.262       56.138       39.627       31.172     3151.466     1570.278      971.706        0.499        0.285       65.412       25.841        0.156      343.232       19.198      863.239
11/10/2013  14:23:00       -2.851      -30.689       18.388       36.739       33.351       23.594     1349.733     1112.277      556.669        0.215        0.151       30.821       21.047        0.466      343.436       19.548      863.237
11/10/2013  14:24:00       63.001      -81.681       -8.082       77.900       75.110       45.229     6068.474     5641.502     2045.632        1.223        0.688      103.155       39.554        0.147      343.233       19.200      863.226
11/10/2013  14:25:00      106.175     -167.009       -7.543       45.542       45.493       33.418     2074.065     2069.583     1116.743        2.224        0.263      197.902       25.418        0.016      343.130       19.022      863.215
11/10/2013  14:26:00      114.546     -151.790       -7.360       38.259       39.213       33.018     1463.759     1537.654     1090.178        2.015        0.205      190.160       25.391        0.018      343.083       18.944      863.197
11/10/2013  14:27:00       68.882      -69.164       22.533       66.208       82.225       48.165     4383.558     6760.944     2319.821        1.175        0.673       97.614       40.958        0.176      343.288       19.294      863.190
11/10/2013  14:28:00       12.323      -52.597       20.339       28.094       48.711       38.009      789.279     2372.735     1444.713        0.397        0.230       54.021       35.173        0.424      343.373       19.439      863.190
11/10/2013  14:29:00        0.989        9.964       25.845       20.274       25.591       16.691      411.043      654.898      278.582        0.106        0.067       10.013       11.158        1.242      343.578       19.788      863.192
11/10/2013  14:30:00       34.756      -44.663       35.405       46.279       97.668       48.119     2141.717     9538.943     2315.471        0.922        0.700       56.593       66.005        1.360      343.379       19.448      863.188
11/10/2013  14:31:00      101.635     -184.013      -12.057       39.946       40.331       25.545     1595.675     1626.556      652.563        2.410        0.194      210.215       16.052        0.006      343.140       19.040      863.170
11/10/2013  14:32:00      119.898     -100.405        2.943       67.894       59.888       33.674     4609.557     3586.591     1133.964        1.690        0.467      156.386       36.887        0.056      343.269       19.261      863.165
11/10/2013  14:33:00       86.320      -12.613       64.201       84.248       94.194       62.860     7097.703     8872.429     3951.339        1.582        0.996       87.236       75.732        0.754      343.438       19.549      863.152
11/10/2013  14:34:00       62.480      128.567      116.614       86.133       79.475       68.649     7418.818     6316.330     4712.617        2.624        0.922      142.945       62.001        0.188      343.258       19.240      863.169
11/10/2013  14:35:00       55.915       20.345       48.288       46.942       46.432       36.934     2203.585     2155.927     1364.105        0.580        0.286       59.501       29.426        0.245      343.371       19.436      863.177
11/10/2013  14:36:00       94.995      102.865       70.550       81.477       44.041       58.874     6638.441     1939.569     3466.129        1.831        0.602      140.019       55.906        0.159      343.232       19.198      863.172
11/10/2013  14:37:00      114.051      103.974       69.052       83.584       71.120       55.606     6986.297     5058.067     3091.989        2.186        0.757      154.332       43.720        0.080      343.180       19.107      863.168
11/10/2013  14:38:00       73.635       95.353       64.962       45.571       54.907       37.133     2076.724     3014.741     1378.890        1.260        0.324      120.475       24.397        0.041      343.096       18.967      863.182
11/10/2013  14:39:00       39.471       16.464       20.506       38.401       27.262       27.740     1474.669      743.222      769.512        0.262        0.149       42.767       17.398        0.165      343.322       19.352      863.179
11/10/2013  14:40:00       23.120      -40.727       26.224       40.075       62.789       36.956     1605.988     3942.478     1365.772        0.490        0.346       46.832       41.324        0.779      343.450       19.570      863.189
11/10/2013  14:41:00       86.095      -85.763       -5.299       49.768       59.778       26.032     2476.807     3573.429      677.641        1.076        0.336      121.522       19.023        0.025      343.301       19.315      863.188
11/10/2013  14:42:00       31.237        9.051       26.489       25.867       35.679       16.419      669.110     1272.982      269.580        0.199        0.111       32.521       13.206        0.165      343.417       19.515      863.195
11/10/2013  14:43:00       13.755       29.707       -5.207       38.583       25.364       26.467     1488.612      643.334      700.501        0.197        0.142       32.737       21.493        0.431      343.267       19.258      863.190
11/10/2013  14:44:00       15.072      -21.690       22.766       22.116       43.526       22.807      489.108     1894.478      520.141        0.206        0.145       26.412       16.784        0.404      343.443       19.559      863.199
11/10/2013  14:45:00       -9.779       27.604       19.983       16.601       18.154       19.090      275.593      329.569      364.434        0.111        0.048       29.285       12.531        0.183      343.524       19.697      863.207
11/10/2013  14:46:00       24.384      -38.963        0.402       56.473       37.261       24.568     3189.177     1388.346      603.608        0.365        0.259       45.964       23.735        0.267      343.466       19.597      863.202
11/10/2013  14:47:00       44.094      -48.141       27.371       67.135       87.489       40.268     4507.068     7654.269     1621.473        0.939        0.689       65.283       57.835        0.785      343.385       19.458      863.193
11/10/2013  14:48:00       74.284     -135.835       -4.497       44.262       52.139       31.625     1959.097     2718.459     1000.169        1.483        0.284      154.820       25.941        0.028      343.270       19.263      863.189
11/10/2013  14:49:00       44.711      -37.560       17.241       44.487       78.193       44.255     1979.128     6114.102     1958.502        0.688        0.503       58.393       57.523        0.970      343.278       19.278      863.193
11/10/2013  14:50:00       31.116       26.004       47.052       39.658       38.665       24.354     1572.792     1494.963      593.141        0.376        0.183       40.551       18.167        0.201      343.383       19.455      863.198
11/10/2013  14:51:00        8.452       22.437       12.193       23.340       22.955       23.145      544.776      526.953      535.678        0.117        0.080       23.976       19.751        0.679      343.402       19.490      863.187
11/10/2013  14:52:00        7.304        8.986        0.030       14.671       12.822       13.638      215.228      164.412      185.987        0.035        0.028       11.580        8.771        0.574      343.497       19.650      863.188
11/10/2013  14:53:00       -0.847       46.439       73.121       21.724       59.145       50.928      471.948     3498.128     2593.635        0.703        0.328       46.446       51.769        1.242      343.627       19.871      863.177
11/10/2013  14:54:00       60.911      -41.793       36.585       68.831       91.392       48.371     4737.733     8352.551     2339.747        1.111        0.772       73.870       40.247        0.297      343.395       19.476      863.179
11/10/2013  14:55:00       45.371       18.046       41.769       41.230       57.881       33.714     1699.881     3350.175     1136.616        0.516        0.309       48.828       32.517        0.443      343.421       19.520      863.177
11/10/2013  14:56:00       11.089        3.048       28.874       46.789       47.595       29.818     2189.236     2265.309      889.136        0.315        0.267       11.500       35.202        9.369      343.453       19.576      863.181
11/10/2013  14:57:00       34.695      -63.340       23.996       43.261       88.660       38.309     1871.484     7860.518     1467.592        0.849        0.560       72.220       49.049        0.461      343.396       19.477      863.185
11/10/2013  14:58:00      104.942      -83.198        7.862       66.431       69.369       56.590     4413.039     4812.077     3202.395        1.521        0.621      133.921       48.271        0.130      343.330       19.362      863.172
11/10/2013  14:59:00      123.899     -166.736      -20.119       54.364       49.269       32.439     2955.438     2427.443     1052.278        2.499        0.322      207.730       33.568        0.026      343.173       19.095      863.169
11/10/2013  15:00:00       54.530     -124.366       -7.506       39.732       56.983       33.574     1578.649     3247.017     1127.221        1.222        0.298      135.796       33.506        0.061      343.230       19.196      863.182
11/10/2013  15:01:00       43.759      -95.422        7.348       37.154       43.614       31.954     1380.405     1902.149     1021.079        0.769        0.215      104.978       28.340        0.073      343.396       19.479      863.189
11/10/2013  15:02:00       14.840       28.744       51.494       35.747       48.410       32.109     1277.863     2343.545     1031.019        0.417        0.233       32.349       31.814        0.967      343.478       19.618      863.191
11/10/2013  15:03:00       37.880      -62.346        9.851       46.876       40.672       30.989     2197.322     1654.241      960.303        0.511        0.241       72.952       30.073        0.170      343.416       19.511      863.206
11/10/2013  15:04:00       75.674       48.719       22.119       43.546       35.932       24.054     1896.265     1291.085      578.612        0.618        0.188       90.001       16.983        0.036      343.265       19.255      863.217
11/10/2013  15:05:00       32.418       43.572       47.062       38.568       40.716       37.341     1487.489     1657.816     1394.380        0.485        0.227       54.308       32.695        0.362      343.345       19.392      863.224
11/10/2013  15:06:00       62.565       43.217       15.657       29.698       19.080       20.779      881.950      364.050      431.751        0.385        0.084       76.041       10.891        0.021      343.272       19.267      863.220
11/10/2013  15:07:00       25.005       17.717       30.346       41.442       30.879       21.135     1717.470      953.523      446.681        0.249        0.156       30.645       22.227        0.526      343.537       19.719      863.214
11/10/2013  15:08:00       34.238       12.682       20.346       31.787       41.184       33.793     1010.434     1696.163     1141.992        0.280        0.192       36.512       33.589        0.846      343.491       19.640      863.218
11/10/2013  15:09:00       18.459      -17.225       -2.199       16.229       20.317       17.453      263.387      412.791      304.619        0.081        0.049       25.248       13.075        0.268      343.578       19.788      863.221
11/10/2013  15:10:00       15.821       15.401        7.445       20.478       30.337       20.596      419.366      920.321      424.200        0.115        0.088       22.079       17.691        0.642      343.510       19.674      863.223
11/10/2013  15:11:00       22.115      -74.034       -2.631       52.941       45.953       25.452     2802.758     2111.660      647.815        0.577        0.278       77.267       25.823        0.112      343.543       19.728      863.229
11/10/2013  15:12:00       62.968      -57.975       -5.304       34.637       31.203       22.893     1199.739      973.609      524.096        0.503        0.135       85.592       22.408        0.069      343.451       19.571      863.225
11/10/2013  15:13:00       31.252      -69.792        0.099       22.409       28.156       24.946      502.160      792.776      622.286        0.388        0.096       76.469       20.410        0.071      343.504       19.661      863.236
11/10/2013  15:14:00       30.948     -107.255      -13.553       28.408       27.039       19.400      807.032      731.087      376.363        0.728        0.096      111.630       15.980        0.020      343.394       19.475      863.242
11/10/2013  15:15:00       18.437      -29.652        6.448       27.740       30.579       20.939      769.521      935.063      438.445        0.170        0.107       34.916       14.155        0.164      343.532       19.709      863.243
11/10/2013  15:16:00       46.709      -45.501        1.220       22.833       24.693       17.466      521.339      609.723      305.050        0.284        0.072       65.208       13.522        0.043      343.446       19.563      863.256
11/10/2013  15:17:00       45.154      -19.060       -0.960       18.554       23.577       22.322      344.269      555.853      498.256        0.190        0.070       49.011       15.706        0.103      343.459       19.585      863.268
11/10/2013  15:18:00       21.119      -63.570        6.131       19.050       27.530       21.638      362.901      757.899      468.224        0.306        0.079       66.986       14.988        0.050      343.530       19.706      863.274
11/10/2013  15:19:00      -25.406      -32.929       -9.680       43.547       25.052       23.612     1896.378      627.605      557.521        0.245        0.154       41.590       19.938        0.230      343.487       19.634      863.278
11/10/2013  15:20:00      -16.533       -4.017       12.744       29.528       20.999       23.809      871.915      440.963      566.853        0.117        0.094       17.015       20.475        1.448      343.621       19.860      863.286
11/10/2013  15:21:00       -5.365      -15.838        1.484       20.863       20.060       19.967      435.279      402.413      398.675        0.076        0.062       16.722       15.287        0.836      343.602       19.829      863.290
11/10/2013  15:22:00       14.117      -14.947       16.380       23.321       17.584       13.952      543.885      309.204      194.666        0.087        0.052       20.560       13.105        0.406      343.543       19.728      863.291
11/10/2013  15:23:00       11.971        1.518       17.178       23.069       22.134       12.544      532.193      489.900      157.349        0.081        0.059       12.067       14.930        1.531      343.452       19.574      863.295
11/10/2013  15:24:00        7.949       15.367       19.198       15.766       12.442       12.538      248.554      154.802      157.192        0.061        0.028       17.302        5.299        0.094      343.319       19.347      863.307
11/10/2013  15:25:00        8.538      -24.880        4.517       19.235       19.585       15.214      369.967      383.575      231.468        0.085        0.049       26.304       10.453        0.158      343.522       19.691      863.321
11/10/2013  15:26:00       24.459      -48.859       -1.539       40.711       51.715       27.887     1657.417     2674.413      777.697        0.405        0.255       54.639       28.471        0.272      343.468       19.600      863.331
11/10/2013  15:27:00       39.144      -94.103       -2.561       62.327       62.912       44.361     3884.613     3957.876     1967.927        1.010        0.491      101.919       42.508        0.174      343.342       19.385      863.330
11/10/2013  15:28:00       68.146      -44.383       17.199       56.677       75.720       32.072     3212.302     5733.447     1028.619        0.844        0.499       81.325       43.379        0.285      343.309       19.327      863.332
11/10/2013  15:29:00        1.836       -5.991       20.893       23.164       39.715       21.067      536.554     1577.310      443.831        0.152        0.128        6.266       13.836        4.876      343.425       19.527      863.330
11/10/2013  15:30:00        8.504      -34.604       -1.209       31.232       27.759       27.538      975.450      770.570      758.322        0.189        0.125       35.633       23.817        0.447      343.561       19.760      863.335
11/10/2013  15:31:00      -32.825      -22.955       14.832       43.484       30.812       22.794     1890.863      949.401      519.580        0.259        0.168       40.056       20.671        0.266      343.616       19.852      863.335
11/10/2013  15:32:00     -100.642      -46.891       -5.669       58.741       33.968       18.406     3450.489     1153.851      338.783        0.865        0.247      111.030       20.298        0.033      343.445       19.560      863.334
11/10/2013  15:33:00     -100.140      -48.056        1.054       62.737       37.945       21.461     3935.984     1439.800      460.576        0.909        0.292      111.074       23.905        0.046      343.465       19.594      863.340
11/10/2013  15:34:00      -45.069      -75.503       -1.254       30.226       42.677       19.057      913.607     1821.296      363.179        0.542        0.155       87.931       16.260        0.034      343.436       19.545      863.347
11/10/2013  15:35:00      -18.767      -64.107       -3.983       24.257       25.172       14.897      588.382      633.621      221.908        0.296        0.072       66.798        6.085        0.008      343.558       19.755      863.344
11/10/2013  15:36:00       11.716       -1.767        9.301       20.097       26.868       18.918      403.882      721.896      357.876        0.086        0.074       11.849       18.081        2.329      343.499       19.654      863.342
11/10/2013  15:37:00       48.176      -40.790        2.601       32.602       35.994       20.188     1062.869     1295.590      407.550        0.338        0.138       63.124       22.592        0.128      343.446       19.563      863.345
11/10/2013  15:38:00       18.599      -11.945       22.077       23.490       38.887       24.518      551.778     1512.214      601.113        0.182        0.133       22.105       19.795        0.802      343.410       19.502      863.352
11/10/2013  15:39:00       15.396      -32.135        3.165       22.417       27.282       13.476      502.541      744.307      181.606        0.135        0.071       35.633       12.867        0.130      343.502       19.660      863.370
11/10/2013  15:40:00        3.605      -33.285        2.169       26.612       17.709       18.958      708.212      313.619      359.397        0.125        0.069       33.480       12.039        0.129      343.675       19.953      863.384
11/10/2013  15:41:00      -24.930      -39.394       -0.970       24.561       26.939       18.303      603.219      725.692      334.998        0.192        0.083       46.619       13.293        0.081      343.522       19.692      863.401
11/10/2013  15:42:00      -58.646      -47.561       -8.775       42.159       28.067       23.927     1777.387      787.737      572.494        0.446        0.157       75.508       13.724        0.033      343.426       19.530      863.404
11/10/2013  15:43:00       -6.327      -18.659      -11.870       31.905       17.573       16.225     1017.899      308.795      263.251        0.106        0.079       19.702        9.647        0.240      343.464       19.593      863.408
11/10/2013  15:44:00      -39.398      -22.477        1.979       36.256       33.529       17.141     1314.497     1124.197      293.803        0.240        0.137       45.359       16.185        0.127      343.508       19.669      863.412
11/10/2013  15:45:00      -72.365      -79.715      -10.981       48.228       32.186       30.860     2325.943     1035.941      952.357        0.801        0.216      107.663       22.469        0.044      343.397       19.479      863.411
11/10/2013  15:46:00      -29.956      -36.794        3.074       48.438       33.761       25.152     2346.255     1139.799      632.633        0.319        0.206       47.447       25.269        0.284      343.581       19.793      863.409
11/10/2013  15:47:00       24.363      -33.420        5.057       22.974       30.130       22.103      527.794      907.822      488.560        0.183        0.096       41.358       15.217        0.135      343.500       19.654      863.416
11/10/2013  15:48:00       -9.921      -11.196       -0.706       17.633       25.207       20.196      310.916      635.407      407.882        0.079        0.068       14.959       13.474        0.811      343.500       19.655      863.406
11/10/2013  15:49:00      -22.118      -21.975        4.631       25.016       32.743       12.084      625.808     1072.120      146.032        0.142        0.092       31.179       12.562        0.162      343.552       19.744      863.411
11/10/2013  15:50:00       -4.965      -18.758        7.567       26.255       25.187       15.185      689.320      634.401      230.589        0.099        0.078       19.404       17.264        0.792      343.548       19.737      863.403
11/10/2013  15:51:00       -1.606        9.864        4.668       16.987       16.684       14.678      288.571      278.360      215.430        0.045        0.039        9.994        7.920        0.628      343.510       19.672      863.403
11/10/2013  15:52:00      -43.489      -13.755        6.146       35.994       25.864       15.390     1295.577      668.950      236.842        0.216        0.110       45.613       18.545        0.165      343.587       19.803      863.413
11/10/2013  15:53:00      -48.813       21.497        4.096       15.150       15.599       11.927      229.508      243.328      142.255        0.174        0.031       53.337        8.505        0.025      343.573       19.778      863.400
11/10/2013  15:54:00      -52.151      -15.927        1.825       33.984       33.937       14.360     1154.900     1151.715      206.200        0.274        0.126       54.529        9.423        0.030      343.559       19.757      863.412
11/10/2013  15:55:00      -34.454      -33.683        6.962       45.878       39.698       25.498     2104.806     1575.911      650.157        0.335        0.217       48.184       27.378        0.323      343.499       19.653      863.422
11/10/2013  15:56:00      -68.752      -25.636        0.306       20.515       19.119       15.922      420.853      365.534      253.512        0.321        0.052       73.376       10.682        0.021      343.538       19.721      863.425
11/10/2013  15:57:00      -37.560      -35.397        6.275       34.638       20.447       15.382     1199.814      418.090      236.611        0.228        0.093       51.611       16.194        0.098      343.577       19.787      863.432
11/10/2013  15:58:00      -74.335     -101.892       -6.294       24.041       38.730       17.711      577.972     1500.050      313.682        0.917        0.120      126.125       14.295        0.013      343.444       19.561      863.440
11/10/2013  15:59:00      -69.761      -64.613       -1.940       43.275       36.454       21.614     1872.684     1328.917      467.159        0.636        0.183       95.087       21.282        0.050      343.483       19.627      863.438
11/10/2013  16:00:00      -58.443      -41.106        3.499       45.359       35.673       25.264     2057.437     1272.539      638.256        0.454        0.198       71.451       24.280        0.115      343.408       19.498      863.434
11/10/2013  16:01:00      -59.870      -85.656        4.829       36.486       44.124       20.633     1331.241     1946.961      425.741        0.732        0.185      104.505       21.680        0.043      343.403       19.490      863.437
11/10/2013  16:02:00      -80.384      -65.544        0.818       43.329       39.168       25.194     1877.372     1534.101      634.761        0.740        0.202      103.719       25.255        0.059      343.422       19.522      863.432
11/10/2013  16:03:00      -63.495      -63.608        2.860       42.651       37.149       22.971     1819.125     1380.040      527.679        0.591        0.186       89.875       22.012        0.060      343.457       19.581      863.426
11/10/2013  16:04:00      -37.985      -24.431        8.224       38.043       20.552       14.903     1447.296      422.404      222.094        0.210        0.105       45.164       17.086        0.143      343.487       19.635      863.436
11/10/2013  16:05:00      -66.699      -42.055       -1.032       23.037       23.255       12.137      530.695      540.799      147.310        0.372        0.061       78.850       10.688        0.018      343.448       19.567      863.428
11/10/2013  16:06:00      -70.000      -54.366       -5.264       56.594       30.056       23.594     3202.901      903.381      556.688        0.627        0.233       88.632       28.295        0.102      343.382       19.454      863.426
11/10/2013  16:07:00     -116.709      -58.973      -17.512       30.020       20.243       20.771      901.184      409.795      431.447        0.957        0.087      130.762       16.279        0.015      343.354       19.406      863.427
11/10/2013  16:08:00      -40.366      -28.308       -1.567       53.273       26.307       16.227     2838.044      692.064      263.300        0.311        0.190       49.303       22.973        0.217      343.379       19.448      863.421
11/10/2013  16:09:00      -34.945      -31.371        2.882       34.700       31.947       16.232     1204.073     1020.642      263.489        0.235        0.124       46.961       14.954        0.101      343.385       19.460      863.426
11/10/2013  16:10:00      -70.235      -48.632       -0.834       32.608       25.101       18.721     1063.252      630.039      350.468        0.467        0.102       85.428       16.541        0.037      343.431       19.537      863.425
11/10/2013  16:11:00      -64.319      -34.171       10.631       49.264       31.892       20.457     2426.939     1017.085      418.473        0.464        0.193       72.833       22.082        0.092      343.303       19.319      863.441
11/10/2013  16:12:00      -58.062      -53.764       -5.501       52.761       25.896       15.935     2783.773      670.608      253.915        0.500        0.185       79.131       15.632        0.039      343.328       19.362      863.453
11/10/2013  16:13:00      -99.983      -84.485      -10.537       26.877       31.874       19.403      722.375     1015.975      376.461        0.968        0.106      130.898       17.790        0.018      343.339       19.380      863.467
11/10/2013  16:14:00     -101.500      -69.370      -18.775       15.992       15.314       12.991      255.758      234.531      168.763        0.806        0.033      122.941        8.072        0.004      343.363       19.423      863.467
11/10/2013  16:15:00      -80.324      -60.404       -4.742       25.374       18.181       14.668      643.860      330.544      215.154        0.566        0.059      100.502       10.384        0.011      343.406       19.496      863.481
11/10/2013  16:16:00      -52.724      -63.358        0.126       40.768       35.893       21.775     1662.019     1288.328      474.145        0.511        0.171       82.426       20.588        0.062      343.380       19.453      863.483
11/10/2013  16:17:00      -73.947      -63.836       -2.238       28.432       29.021       19.118      808.390      842.239      365.483        0.578        0.101       97.690       19.122        0.038      343.350       19.400      863.500
11/10/2013  16:18:00      -71.718      -37.007       -6.667       28.320       20.292       12.191      801.995      411.773      148.631        0.396        0.068       80.703       14.169        0.031      343.357       19.412      863.505
11/10/2013  16:19:00      -87.200      -26.197       -5.950       20.512       17.504       10.258      420.726      306.391      105.217        0.458        0.042       91.050       12.444        0.019      343.327       19.361      863.515
11/10/2013  16:20:00      -79.854      -19.166       -1.015       30.670       25.921       18.763      940.631      671.913      352.040        0.435        0.098       82.122       20.304        0.061      343.392       19.471      863.508
11/10/2013  16:21:00      -96.798      -31.197       -6.544       24.852       20.515       13.963      617.618      420.872      194.967        0.581        0.062      101.701       13.054        0.016      343.230       19.195      863.507
11/10/2013  16:22:00      -97.532      -21.129       -3.302       23.986       26.092       15.530      575.316      680.800      241.189        0.573        0.075       99.795       11.886        0.014      343.164       19.083      863.522
11/10/2013  16:23:00      -91.078      -31.247       -1.448       22.394       19.784       15.580      501.513      391.408      242.741        0.520        0.057       96.290       15.032        0.024      343.213       19.166      863.528
11/10/2013  16:24:00      -85.712      -26.534       -1.038       29.893       24.739       13.159      893.568      612.006      173.169        0.486        0.084       89.725       13.750        0.023      343.157       19.071      863.543
11/10/2013  16:25:00      -79.408      -31.965        4.108       35.451       31.604       17.225     1256.778      998.816      296.704        0.495        0.128       85.600       15.612        0.033      343.102       18.978      863.558
11/10/2013  16:26:00      -87.706      -41.795        2.235       29.400       23.671       13.828      864.357      560.339      191.205        0.553        0.081       97.155       12.949        0.018      343.068       18.918      863.571
11/10/2013  16:27:00     -103.182      -36.410        3.335       31.254       25.082       16.065      976.815      629.115      258.092        0.692        0.093      109.417       13.475        0.015      343.053       18.893      863.572
11/10/2013  16:28:00     -136.077      -50.119        2.550       26.388       24.202       16.108      696.322      585.723      259.453        1.129        0.077      145.014       14.828        0.010      343.101       18.975      863.572
11/10/2013  16:29:00     -113.995      -26.291        1.900       44.541       34.314       23.552     1983.887     1177.463      554.701        0.870        0.186      116.987       24.076        0.042      343.102       18.979      863.577
11/10/2013  16:30:00     -111.091      -58.845       -1.495       39.861       32.897       18.463     1588.930     1082.242      340.883        0.941        0.151      125.714       12.493        0.010      343.023       18.844      863.569
11/10/2013  16:31:00      -74.387      -42.558        7.854       44.881       20.496       17.312     2014.324      420.068      299.721        0.507        0.137       85.701       13.421        0.025      342.980       18.770      863.569
11/10/2013  16:32:00     -105.929      -38.852       -1.328       35.385       20.364       18.605     1252.089      414.679      346.159        0.737        0.101      112.829       18.462        0.027      342.961       18.736      863.569
11/10/2013  16:33:00     -109.484      -41.944       -0.550       17.338       18.466       13.110      300.617      340.987      171.884        0.728        0.041      117.244       10.330        0.008      342.966       18.747      863.572
11/10/2013  16:34:00      -99.256      -27.584        0.799       17.620       19.088       10.765      310.471      364.346      115.892        0.570        0.040      103.017        9.102        0.008      342.847       18.542      863.573
11/10/2013  16:35:00      -96.108      -32.743       -5.678       19.597       23.199       10.672      384.024      538.180      113.895        0.569        0.052      101.532        5.778        0.003      342.807       18.474      863.571
11/10/2013  16:36:00      -89.596      -36.699       -9.182       25.339       22.960        9.339      642.047      527.175       87.216        0.536        0.063       96.820        8.405        0.008      342.725       18.335      863.575
11/10/2013  16:37:00      -84.928      -18.807       -1.442       25.536       27.654       18.461      652.067      764.749      340.812        0.466        0.088       86.986       15.256        0.031      342.660       18.226      863.576
11/10/2013  16:38:00      -36.271       -3.935        5.715       19.556       20.477       15.314      382.453      419.322      234.511        0.120        0.052       36.484       10.396        0.081      342.438       17.848      863.579
11/10/2013  16:39:00      -58.309      -19.842        0.997       32.903       20.061       15.483     1082.615      402.429      239.728        0.276        0.086       61.593       16.374        0.071      342.459       17.884      863.587
11/10/2013  16:40:00      -64.841      -10.082        3.810       30.026       28.731       17.287      901.589      825.465      298.831        0.317        0.101       65.620       16.848        0.066      342.376       17.742      863.590
11/10/2013  16:41:00      -77.512      -14.577        2.773       33.698       27.573       18.620     1135.560      760.294      346.714        0.424        0.112       78.871       18.430        0.055      342.314       17.638      863.606
11/10/2013  16:42:00      -93.925      -38.171        1.047       30.426       31.700       15.196      925.712     1004.907      230.914        0.622        0.108      101.385       11.373        0.013      342.441       17.852      863.615
11/10/2013  16:43:00      -94.448      -30.944       -1.001       25.470       22.839       12.824      648.698      521.624      164.467        0.561        0.067       99.388        9.677        0.009      342.331       17.666      863.619
11/10/2013  16:44:00      -93.661      -28.542        3.904       27.970       26.673       16.206      782.324      711.473      262.638        0.568        0.088       97.914        7.853        0.006      342.261       17.547      863.620
11/10/2013  16:45:00      -93.841      -23.599        4.876       23.809       22.697       14.825      566.885      515.168      219.791        0.534        0.065       96.763       11.640        0.014      342.305       17.621      863.629
11/10/2013  16:46:00      -93.841      -21.167       -0.715       23.536       22.525       13.107      553.921      507.362      171.786        0.524        0.062       96.199       11.425        0.014      342.225       17.487      863.629
11/10/2013  16:47:00      -85.472      -15.497        1.847       28.270       19.380       13.798      799.184      375.571      190.378        0.446        0.068       86.866       10.715        0.015      342.124       17.314      863.640
11/10/2013  16:48:00      -70.619      -18.904       -0.977       20.683       21.696       16.523      427.767      470.734      273.018        0.326        0.059       73.105       14.383        0.039      341.979       17.068      863.642
11/10/2013  16:49:00      -72.938      -22.193        3.161       22.041       25.053       12.901      485.805      627.670      166.428        0.355        0.064       76.239        9.839        0.017      341.895       16.924      863.651
11/10/2013  16:50:00      -61.082      -34.813       -2.961       26.703       21.807       15.606      713.047      475.544      243.555        0.319        0.072       70.307       12.269        0.030      341.759       16.696      863.654
11/10/2013  16:51:00      -78.131      -33.329       -2.052       21.910       22.160       13.537      480.041      491.053      183.241        0.419        0.058       84.943        9.650        0.013      341.592       16.411      863.649
11/10/2013  16:52:00      -82.508      -20.315       -5.075       18.165       16.349       10.093      329.969      267.278      101.868        0.397        0.035       84.972        6.145        0.005      341.594       16.416      863.652
11/10/2013  16:53:00      -72.705      -39.000       -2.754       20.598       21.087       14.667      424.257      444.679      215.129        0.395        0.054       82.505       10.054        0.015      341.423       16.126      863.654
11/10/2013  16:54:00      -52.971      -21.715        1.870       21.834       17.373       10.646      476.745      301.810      113.346        0.209        0.045       57.249       10.738        0.035      341.306       15.927      863.638
11/10/2013  16:55:00      -68.850      -16.066        0.243       33.005       23.769       14.306     1089.316      564.944      204.670        0.343        0.093       70.700       17.114        0.059      341.465       16.198      863.635
11/10/2013  16:56:00      -55.004      -24.646       -1.688       20.918       24.659       12.493      437.544      608.079      156.080        0.242        0.060       60.273        9.237        0.023      341.381       16.055      863.634
11/10/2013  16:57:00      -68.578      -38.613        0.378       21.678       18.061       10.028      469.947      326.210      100.569        0.355        0.045       78.702       10.448        0.018      341.424       16.127      863.641
11/10/2013  16:58:00      -85.069      -31.638       -0.353       22.814       18.881       11.825      520.459      356.497      139.834        0.463        0.051       90.762       10.171        0.013      341.368       16.032      863.651
11/10/2013  16:59:00      -48.921      -20.033        4.193       33.998       21.929       14.519     1155.887      480.893      210.796        0.233        0.092       52.864       14.035        0.070      341.212       15.767      863.662
11/10/2013  17:00:00      -33.076      -13.532        5.443       27.637       20.260       14.329      763.786      410.473      205.328        0.134        0.069       35.737       14.887        0.174      341.247       15.827      863.680
11/10/2013  17:01:00      -38.173      -14.221        5.415       28.894       19.585       13.295      834.874      383.569      176.746        0.154        0.070       40.736       11.885        0.085      341.099       15.577      863.701
11/10/2013  17:02:00      -49.493      -41.315       -0.177       35.367       24.953       17.437     1250.846      622.656      304.032        0.317        0.109       64.471       17.244        0.072      341.167       15.692      863.722
11/10/2013  17:03:00      -90.460      -26.362      -12.720       30.869       28.965       17.230      952.891      838.958      296.881        0.556        0.104       94.223       15.189        0.026      340.939       15.307      863.750
11/10/2013  17:04:00     -141.586       -4.694      -22.086       48.654       28.446       25.661     2367.238      809.193      658.512        1.220        0.192      141.664       21.524        0.023      340.976       15.368      863.776
11/10/2013  17:05:00     -142.262       -6.823      -19.502       26.737       31.359       19.406      714.890      983.394      376.600        1.137        0.104      142.426       15.951        0.013      340.935       15.298      863.785
11/10/2013  17:06:00     -106.205      -19.351       -9.650       38.746       31.927       22.217     1501.229     1019.363      493.610        0.738        0.151      107.954       15.823        0.021      340.825       15.112      863.789
11/10/2013  17:07:00     -127.494       -5.542      -13.912       44.517       29.222       19.378     1981.774      853.949      375.512        0.984        0.161      127.614       21.125        0.027      340.850       15.154      863.789
11/10/2013  17:08:00     -167.598      -46.832      -17.237       22.999       18.909       16.687      528.947      357.544      278.454        1.587        0.058      174.018        8.047        0.002      340.744       14.976      863.808
11/10/2013  17:09:00     -132.104      -35.923       -9.238       23.093       25.506       13.128      533.284      650.555      172.333        1.009        0.068      136.901       10.452        0.006      340.734       14.960      863.826
11/10/2013  17:10:00     -126.424      -35.076      -19.815       20.779       19.579       11.922      431.768      383.333      142.132        0.928        0.048      131.199        7.391        0.003      340.762       15.007      863.841
11/10/2013  17:11:00     -102.891      -27.790       -6.037       14.362       26.138       13.324      206.272      683.172      177.529        0.623        0.053      106.578        9.526        0.008      340.855       15.164      863.856
11/10/2013  17:12:00      -89.848        4.211       -3.425       39.154       18.690       17.701     1533.040      349.311      313.337        0.515        0.110       89.947       21.097        0.055      340.959       15.340      863.872
11/10/2013  17:13:00      -65.694        0.962       -4.206       28.640       21.299       15.544      820.256      453.662      241.629        0.292        0.076       65.701       11.261        0.029      340.997       15.404      863.888
11/10/2013  17:14:00      -88.140       10.560       -7.818       42.514       32.431       25.906     1807.413     1051.748      671.115        0.574        0.177       88.771       24.445        0.076      340.942       15.311      863.907
11/10/2013  17:15:00      -97.706       -1.806       -7.651       40.934       32.737       22.731     1675.567     1071.707      516.705        0.644        0.163       97.722       17.640        0.033      340.894       15.230      863.930
11/10/2013  17:16:00      -91.464      -38.788        5.240       45.559       39.617       26.876     2075.640     1569.514      722.299        0.713        0.218       99.349       26.014        0.069      340.637       14.795      863.953
11/10/2013  17:17:00     -110.464      -30.608       -3.715       37.753       29.183       14.880     1425.320      851.664      221.402        0.783        0.125      114.627       11.555        0.010      340.552       14.651      863.970
11/10/2013  17:18:00      -70.980       -3.311       -3.591       17.632       17.315       12.969      310.876      299.826      168.200        0.292        0.039       71.057       11.275        0.025      340.394       14.385      863.991
11/10/2013  17:19:00      -66.452      -15.181       -5.833       18.869       16.835       11.664      356.051      283.430      136.042        0.273        0.039       68.164        8.660        0.016      340.446       14.471      864.006
11/10/2013  17:20:00      -63.578        7.227      -13.687       16.695       11.709       10.323      278.728      137.105      106.564        0.240        0.026       63.987        5.276        0.007      340.486       14.540      864.012
11/10/2013  17:21:00      -62.271       -4.109       -9.725       11.141       12.878       10.351      124.126      165.851      107.153        0.219        0.020       62.407        5.923        0.009      340.568       14.678      864.020
11/10/2013  17:22:00      -73.142      -25.713      -22.187       23.526       14.692       13.713      553.466      215.867      188.060        0.373        0.048       77.530        9.437        0.015      340.527       14.608      864.029
11/10/2013  17:23:00      -93.413      -46.715      -17.389       26.749       27.016       14.663      715.500      729.852      215.016        0.644        0.083      104.443        4.807        0.002      340.295       14.217      864.041
11/10/2013  17:24:00     -107.190      -24.687      -21.956       17.224       20.204       11.679      296.659      408.185      136.391        0.671        0.042      109.996       11.632        0.011      340.210       14.072      864.056
11/10/2013  17:25:00      -57.189      -41.289       -4.385       32.510       29.449       20.317     1056.916      867.216      412.767        0.367        0.117       70.536       17.157        0.059      340.233       14.111      864.064
11/10/2013  17:26:00     -104.566      -50.650      -17.261       19.163       17.847       14.211      367.231      318.520      201.961        0.734        0.044      116.187       11.562        0.010      340.149       13.970      864.079
11/10/2013  17:27:00     -125.374      -59.608      -17.461       37.420       32.476       21.492     1400.292     1054.664      461.899        1.125        0.146      138.823       14.733        0.011      340.116       13.915      864.091
11/10/2013  17:28:00     -125.536      -78.974      -15.331       24.303       23.330       15.735      590.634      544.279      247.591        1.181        0.069      148.311        9.684        0.004      340.055       13.811      864.096
11/10/2013  17:29:00     -136.820      -29.210      -15.476       25.320       22.862       17.211      641.104      522.671      296.224        1.064        0.073      139.904       14.870        0.011      339.978       13.682      864.106
11/10/2013  17:30:00     -123.250      -30.715      -17.095       13.343       16.370       12.712      178.036      267.975      161.586        0.852        0.030      127.019        8.816        0.005      340.005       13.727      864.109
11/10/2013  17:31:00     -104.890      -38.570       -3.586       36.500       47.766       19.660     1332.250     2281.543      386.527        0.825        0.200      111.757       18.900        0.029      339.928       13.597      864.113
11/10/2013  17:32:00     -116.337      -30.243      -18.862       32.136       23.724       15.138     1032.729      562.824      229.152        0.831        0.091      120.204        8.161        0.005      339.920       13.584      864.114
11/10/2013  17:33:00     -123.429      -43.326      -20.645       26.176       22.011       16.309      685.183      484.465      265.976        0.949        0.072      130.812        7.985        0.004      339.917       13.579      864.117
11/10/2013  17:34:00     -107.919      -55.234      -20.260       41.172       24.515       18.035     1695.109      600.990      325.264        0.886        0.131      121.233       11.974        0.010      339.918       13.581      864.134
11/10/2013  17:35:00     -161.534      -59.436      -17.796       29.236       29.774       17.040      854.725      886.492      290.375        1.599        0.102      172.121       14.089        0.007      339.870       13.499      864.145
11/10/2013  17:36:00     -159.218      -31.805      -16.042       14.956       18.204        9.249      223.676      331.382       85.542        1.363        0.032      162.364        6.393        0.002      339.867       13.494      864.162
11/10/2013  17:37:00     -163.925      -38.905      -24.989       20.071       17.673       14.814      402.836      312.342      219.440        1.497        0.047      168.479       12.674        0.006      339.804       13.389      864.168
11/10/2013  17:38:00     -153.292      -48.260      -18.946       20.114       19.771       14.995      404.577      390.873      224.846        1.360        0.051      160.710        9.597        0.004      339.787       13.361      864.184
11/10/2013  17:39:00     -112.747      -45.467       -8.498       35.536       34.408       19.056     1262.826     1183.881      363.139        0.883        0.140      121.570       16.157        0.018      339.739       13.279      864.188
11/10/2013  17:40:00      -80.061       -6.923       -4.959       25.963       24.540       15.601      674.084      602.204      243.376        0.400        0.076       80.359       12.419        0.024      339.803       13.387      864.189
11/10/2013  17:41:00      -66.666      -19.047      -15.550       15.361       19.148       15.876      235.963      366.629      252.055        0.295        0.043       69.333       10.197        0.022      339.972       13.671      864.196
11/10/2013  17:42:00      -81.211      -37.279      -30.997       18.885       21.627       10.223      356.650      467.716      104.501        0.494        0.046       89.358        3.795        0.002      339.903       13.556      864.195
11/10/2013  17:43:00     -108.268      -51.189      -17.556       22.764       22.994       13.111      518.181      528.715      171.886        0.793        0.061      119.760        9.674        0.007      339.713       13.235      864.191
11/10/2013  17:44:00     -117.294      -31.172      -18.149       27.839       35.042       20.655      775.020     1227.969      426.619        0.874        0.121      121.366       17.278        0.020      339.730       13.265      864.197
11/10/2013  17:45:00      -89.540      -46.359       -7.854       29.677       27.920       19.645      880.720      779.506      385.945        0.614        0.102      100.829        8.289        0.007      339.644       13.119      864.202
11/10/2013  17:46:00      -74.860      -42.982      -19.215       31.519       26.074       21.675      993.452      679.832      469.800        0.498        0.107       86.322       13.695        0.025      339.663       13.151      864.211
11/10/2013  17:47:00      -99.497      -46.439      -16.351       27.626       34.405       23.214      763.214     1183.733      538.899        0.740        0.124      109.801       13.487        0.015      339.557       12.972      864.223
11/10/2013  17:48:00      -98.241      -39.411      -18.156       25.745       28.509       17.443      662.792      812.760      304.257        0.666        0.089      105.851        7.855        0.006      339.558       12.973      864.231
11/10/2013  17:49:00      -77.494      -47.767      -16.831       17.095       24.475       16.635      292.239      599.013      276.714        0.487        0.058       91.033        8.475        0.009      339.635       13.105      864.241
11/10/2013  17:50:00      -77.024      -13.625       -8.388       25.493       31.317       19.097      649.879      980.724      364.685        0.409        0.100       78.220       16.154        0.043      339.565       12.987      864.252
11/10/2013  17:51:00     -113.552      -36.465      -20.084       22.627       29.282       13.971      512.002      857.446      195.184        0.810        0.078      119.263        9.229        0.006      339.620       13.079      864.255
11/10/2013  17:52:00     -143.891      -17.231      -14.506       38.420       34.105       23.883     1476.085     1163.179      570.391        1.221        0.160      144.919       21.507        0.022      339.587       13.023      864.254
11/10/2013  17:53:00     -120.010      -21.853      -24.341       39.764       22.739       19.342     1581.169      517.065      374.118        0.897        0.124      121.983       19.729        0.026      339.551       12.962      864.254
11/10/2013  17:54:00     -121.427       -1.518      -19.904       35.539       32.153       24.960     1263.001     1033.802      623.020        0.903        0.146      121.436       19.626        0.026      339.617       13.075      864.249
11/10/2013  17:55:00      -78.911       15.127      -25.744       25.944       30.082       20.316      673.095      904.949      412.759        0.455        0.100       80.347       10.774        0.018      339.719       13.245      864.263
11/10/2013  17:56:00      -84.325        8.062      -14.675       35.318       20.564       13.229     1247.347      422.892      174.997        0.462        0.092       84.710       12.786        0.023      339.684       13.185      864.275
11/10/2013  17:57:00      -48.472      -24.458      -16.855       22.868       25.589       15.835      522.939      654.785      250.753        0.233        0.071       54.293        9.718        0.032      339.801       13.384      864.294
11/10/2013  17:58:00      -72.216      -30.811      -10.838       16.792       15.493       17.207      281.967      240.044      296.095        0.355        0.041       78.514        6.673        0.007      339.836       13.442      864.308
11/10/2013  17:59:00      -86.122      -23.331      -18.173       15.169       18.201       10.727      230.096      331.292      115.072        0.448        0.034       89.226        7.517        0.007      339.761       13.316      864.332
11/10/2013  18:00:00      -93.356      -20.182      -17.291       11.906       12.269       12.732      141.763      150.518      162.095        0.494        0.023       95.513        6.324        0.004      339.691       13.197      864.346
11/10/2013  18:01:00      -72.628      -11.406      -17.140       13.990       25.532       15.573      195.728      651.898      242.520        0.339        0.055       73.518        9.914        0.018      339.838       13.446      864.354
11/10/2013  18:02:00      -75.034       -5.832      -17.299       12.945       12.676       10.027      167.583      160.669      100.533        0.320        0.021       75.261        7.397        0.010      339.730       13.264      864.357
11/10/2013  18:03:00      -93.787       -6.077      -18.016       19.679       14.252       14.551      387.250      203.121      211.732        0.498        0.040       93.984        8.846        0.009      339.910       13.569      864.357
11/10/2013  18:04:00     -107.077      -36.657      -22.810       19.704       18.389       15.302      388.242      338.143      234.166        0.714        0.048      113.178       13.404        0.014      339.541       12.945      864.360
11/10/2013  18:05:00     -102.885      -28.274      -21.982       16.058       17.153       10.663      257.845      294.228      113.706        0.627        0.033      106.700       10.935        0.011      339.386       12.683      864.352
11/10/2013  18:06:00     -121.398      -11.743      -25.774       15.790       16.233       14.925      249.335      263.494      222.756        0.814        0.037      121.964       11.924        0.010      339.396       12.699      864.356
11/10/2013  18:07:00      -91.819      -25.122      -17.789       20.612       17.792       10.587      424.854      316.551      112.076        0.512        0.043       95.193        6.321        0.004      339.414       12.731      864.379
11/10/2013  18:08:00      -76.982      -28.732      -20.155       16.544       17.166       10.865      273.691      294.679      118.040        0.392        0.034       82.169        8.776        0.011      339.465       12.818      864.393
11/10/2013  18:09:00      -92.693      -21.647      -23.926       20.802       13.452        9.368      432.742      180.945       87.768        0.517        0.035       95.187        7.260        0.006      339.486       12.853      864.404
11/10/2013  18:10:00      -58.139      -34.687      -14.268       15.417       16.776       12.157      237.683      281.448      147.804        0.273        0.033       67.700        7.167        0.011      339.486       12.850      864.421
11/10/2013  18:11:00      -92.489      -17.315      -17.410       24.520       15.818       12.537      601.248      250.224      157.180        0.508        0.050       94.095        9.753        0.011      339.400       12.709      864.429
11/10/2013  18:12:00     -123.371      -23.600      -20.514       14.544       16.102       11.132      211.528      259.264      123.925        0.840        0.030      125.608        8.581        0.005      339.363       12.644      864.430
11/10/2013  18:13:00     -138.269      -41.429      -22.279       24.379       18.030       13.397      594.319      325.065      179.485        1.121        0.055      144.342        9.788        0.005      339.390       12.690      864.428
11/10/2013  18:14:00      -98.451      -83.557      -14.277       27.614       27.608       21.685      762.543      762.183      470.236        0.944        0.100      129.129       14.838        0.013      339.392       12.694      864.435
11/10/2013  18:15:00     -129.396      -75.768      -14.915       25.949       21.540       15.240      673.366      463.988      232.266        1.204        0.068      149.947        6.470        0.002      339.298       12.536      864.456
11/10/2013  18:16:00     -133.339      -44.219      -18.936       44.822       26.896       16.207     2008.969      723.402      262.666        1.154        0.150      140.480       18.568        0.017      339.208       12.384      864.467
11/10/2013  18:17:00     -148.312      -60.135      -14.416       24.223       24.352       16.232      586.749      593.012      263.466        1.363        0.072      160.040       12.029        0.006      339.175       12.330      864.481
11/10/2013  18:18:00     -112.933      -37.457      -14.689       19.494       26.348       19.563      380.015      694.242      382.696        0.791        0.073      118.983       13.917        0.014      339.141       12.272      864.499
11/10/2013  18:19:00      -88.987      -23.326       -4.253       50.675       41.774       22.262     2567.944     1745.028      495.580        0.664        0.240       91.993       20.051        0.048      339.259       12.470      864.511
11/10/2013  18:20:00      -46.406        1.324       -4.717       35.546       35.209       23.961     1263.550     1239.658      574.137        0.263        0.154       46.425       12.113        0.068      339.410       12.723      864.511
11/10/2013  18:21:00      -74.684       -3.830      -11.412       39.988       33.502       23.343     1599.039     1122.394      544.892        0.449        0.163       74.783       18.043        0.058      339.494       12.866      864.507
11/10/2013  18:22:00     -100.796       10.164      -11.809       44.037       31.852       21.131     1939.251     1014.547      446.518        0.690        0.170      101.307       16.278        0.026      339.617       13.072      864.502
11/10/2013  18:23:00      -77.141      -25.235       -2.048       26.510       38.748       17.904      702.790     1501.374      320.548        0.456        0.126       81.164        8.348        0.011      339.383       12.679      864.512
11/10/2013  18:24:00      -70.726      -13.173      -14.719       27.449       21.558       17.389      753.428      464.758      302.360        0.346        0.076       71.942       15.298        0.045      339.342       12.609      864.515
11/10/2013  18:25:00     -102.202       -6.309      -10.759       35.490       23.831       20.926     1259.541      567.928      437.905        0.643        0.113      102.397       13.851        0.018      339.382       12.677      864.515
11/10/2013  18:26:00     -100.292       -8.304      -19.229       20.025       23.896       15.236      401.013      571.030      232.126        0.585        0.060      100.635       12.748        0.016      339.270       12.489      864.520
11/10/2013  18:27:00     -112.980       -5.117      -19.982       12.149       22.163       12.429      147.589      491.196      154.472        0.699        0.040      113.096        6.110        0.003      339.299       12.537      864.525
11/10/2013  18:28:00      -92.857      -15.372      -23.327       22.541       19.890       18.673      508.118      395.613      348.676        0.533        0.063       94.121       12.421        0.017      339.272       12.491      864.526
11/10/2013  18:29:00      -97.080      -12.190      -17.066       16.925       22.121       17.433      286.466      489.354      303.914        0.547        0.054       97.842       14.406        0.022      339.279       12.504      864.547
11/10/2013  18:30:00      -89.274      -15.489      -10.629       15.886       24.659       20.471      252.370      608.059      419.055        0.480        0.064       90.608       16.765        0.034      339.291       12.523      864.558
11/10/2013  18:31:00      -75.318      -15.364      -13.568       17.277       21.257       12.095      298.509      451.860      146.296        0.349        0.045       76.869       10.424        0.018      339.250       12.454      864.567
11/10/2013  18:32:00      -78.273      -36.555      -17.097       19.802       16.174       11.374      392.130      261.595      129.358        0.427        0.039       86.389        7.792        0.008      339.229       12.418      864.576
11/10/2013  18:33:00      -85.921       -9.244      -17.371       20.124       21.080       10.588      404.995      444.370      112.100        0.437        0.048       86.417        8.160        0.009      339.568       12.990      864.590
11/10/2013  18:34:00      -83.232       -9.109      -21.493       22.751       14.347       12.042      517.602      205.836      145.021        0.417        0.043       83.729        8.968        0.011      339.644       13.118      864.594
11/10/2013  18:35:00     -102.200      -25.962      -20.230       17.832       16.729       12.008      317.997      279.844      144.181        0.613        0.037      105.446        7.617        0.005      339.404       12.713      864.606
11/10/2013  18:36:00      -89.390      -19.079      -22.914        9.919       14.458        9.632       98.387      209.033       92.777        0.464        0.020       91.404        7.373        0.007      339.314       12.561      864.619
11/10/2013  18:37:00     -126.300      -11.925      -24.242       13.224       13.700       10.760      174.877      187.691      115.770        0.858        0.024      126.862        8.004        0.004      339.363       12.645      864.623
11/10/2013  18:38:00     -143.052       -5.501      -24.214       20.445       20.604       11.101      418.011      424.525      123.241        1.102        0.048      143.158       13.027        0.008      339.320       12.573      864.644
11/10/2013  18:39:00     -137.684      -42.114      -20.676       40.910       31.856       18.781     1673.647     1014.807      352.717        1.210        0.152      143.981       11.653        0.007      339.086       12.179      864.653
11/10/2013  18:40:00     -100.575      -18.620       -3.492       52.239       43.159       29.717     2728.914     1862.670      883.087        0.797        0.274      102.284       28.515        0.078      338.921       11.902      864.670
11/10/2013  18:41:00     -102.871       -9.077        2.933       72.346       58.729       32.352     5233.969     3449.152     1046.673        1.020        0.486      103.271       33.277        0.104      339.007       12.046      864.692
11/10/2013  18:42:00     -185.268        0.452      -14.037       66.486       52.109       28.607     4420.393     2715.325      818.359        2.124        0.398      185.268       24.370        0.017      339.190       12.350      864.712
11/10/2013  18:43:00     -162.192       -3.850      -10.249       58.816       49.328       34.131     3459.285     2433.263     1164.926        1.674        0.353      162.237       29.856        0.034      339.114       12.226      864.739
11/10/2013  18:44:00     -128.616      -29.586       -7.808       40.358       45.146       30.028     1628.779     2038.181      901.685        1.102        0.228      131.975       26.384        0.040      338.999       12.032      864.762
11/10/2013  18:45:00     -131.283      -55.995       -0.075       48.802       52.653       24.143     2381.587     2772.327      582.876        1.305        0.287      142.726       24.882        0.030      338.972       11.987      864.778
11/10/2013  18:46:00      -97.470      -15.555       -2.178       45.568       26.610       19.312     2076.422      708.069      372.942        0.645        0.158       98.703       21.847        0.049      338.990       12.017      864.804
11/10/2013  18:47:00      -62.780      -33.908        1.423       25.242       23.998       20.228      637.149      575.900      409.178        0.336        0.081       71.351       16.786        0.055      338.974       11.990      864.821
11/10/2013  18:48:00      -43.435      -36.462        1.325       36.155       20.684       15.527     1307.178      427.809      241.082        0.260        0.099       56.710       16.660        0.086      339.123       12.240      864.857
11/10/2013  18:49:00      -32.950      -36.216       10.178       41.677       24.817       17.533     1736.967      615.861      307.417        0.258        0.133       48.962       20.979        0.184      339.075       12.159      864.877
11/10/2013  18:50:00      -70.903      -49.954        3.130       40.636       22.252       16.442     1651.264      495.143      270.353        0.497        0.121       86.734       15.239        0.031      339.124       12.242      864.886
11/10/2013  18:51:00      -67.304      -85.451        3.902       38.734       41.936       23.040     1500.328     1758.601      530.859        0.782        0.189      108.774       20.836        0.037      339.345       12.614      864.890
11/10/2013  18:52:00      -58.236      -70.781        5.350       39.750       45.524       24.017     1580.074     2072.393      576.800        0.633        0.211       91.659       27.062        0.087      339.361       12.642      864.893
11/10/2013  18:53:00      -97.646      -57.937      -14.884       38.125       26.528       20.547     1453.518      703.714      422.164        0.785        0.129      113.541       17.262        0.023      339.371       12.659      864.884
11/10/2013  18:54:00      -87.720      -57.361        6.135       38.761       34.857       24.983     1502.399     1215.036      624.145        0.718        0.167      104.810       24.625        0.055      339.134       12.260      864.893
11/10/2013  18:55:00     -100.803      -54.023        1.023       45.878       31.755       22.462     2104.816     1008.387      504.530        0.835        0.181      114.367       21.541        0.035      339.039       12.099      864.898
11/10/2013  18:56:00      -95.187      -60.866        2.958       48.778       35.077       25.200     2379.280     1230.412      635.047        0.851        0.212      112.983       24.583        0.047      339.089       12.183      864.907
11/10/2013  18:57:00     -103.809      -67.357        1.992       40.038       34.406       21.960     1603.002     1183.748      482.236        0.929        0.163      123.747       13.249        0.011      339.144       12.277      864.911
11/10/2013  18:58:00      -89.976      -52.350        1.545       34.591       25.926       19.551     1196.529      672.167      382.225        0.654        0.113      104.097       20.274        0.038      339.141       12.271      864.940
11/10/2013  18:59:00      -95.000      -64.646       -2.948       25.573       20.550       16.234      653.960      422.282      263.539        0.728        0.067      114.909       14.139        0.015      339.079       12.166      864.942
11/10/2013  19:00:00      -69.768      -50.689        9.942       34.945       31.585       24.896     1221.120      997.587      619.813        0.519        0.142       86.237       19.429        0.051      338.955       11.958      864.953
11/10/2013  19:01:00      -56.727      -43.373        3.429       33.744       33.413       21.403     1138.637     1116.441      458.081        0.391        0.136       71.408       17.244        0.058      338.956       11.960      864.940
11/10/2013  19:02:00      -89.949      -41.815       -3.404       43.232       22.129       17.145     1868.974      489.711      293.941        0.625        0.133       99.193       23.071        0.054      338.972       11.988      864.945
11/10/2013  19:03:00     -161.289       -6.198      -19.822       30.387       23.764       16.552      923.394      564.749      273.970        1.410        0.088      161.408       15.070        0.009      338.924       11.907      864.934
11/10/2013  19:04:00     -153.924       -2.926      -15.452       49.253       34.514       21.915     2425.824     1191.207      480.250        1.402        0.205      153.952       20.429        0.018      338.871       11.817      864.930
11/10/2013  19:05:00     -162.378      -12.215      -12.561       48.178       47.877       25.795     2321.133     2292.162      665.400        1.598        0.264      162.837       23.452        0.021      338.855       11.790      864.920
11/10/2013  19:06:00     -165.700       29.900      -17.181       50.637       45.422       30.826     2564.078     2063.125      950.254        1.711        0.279      168.377       17.420        0.011      339.138       12.266      864.936
11/10/2013  19:07:00     -187.222       59.377      -10.620       47.992       35.850       27.792     2303.256     1285.236      772.391        2.152        0.218      196.412       21.774        0.012      339.521       12.909      864.939
11/10/2013  19:08:00     -186.938       56.960      -12.215       51.187       35.742       26.576     2620.147     1277.466      706.290        2.147        0.230      195.423       16.449        0.007      339.499       12.871      864.945
11/10/2013  19:09:00     -155.292       68.700      -13.899       46.295       34.039       28.439     2143.265     1158.650      808.777        1.657        0.206      169.809       21.758        0.016      339.554       12.967      864.942
11/10/2013  19:10:00     -157.770       63.477      -15.974       44.138       31.327       28.439     1948.127      981.402      808.771        1.646        0.187      170.061       24.940        0.022      339.625       13.085      864.933
11/10/2013  19:11:00     -155.089       67.876      -15.212       64.796       41.876       28.801     4198.553     1753.567      829.492        1.784        0.339      169.292       25.836        0.023      339.820       13.414      864.922
11/10/2013  19:12:00     -103.202       48.061      -13.312       45.932       34.432       24.140     2109.767     1185.546      582.743        0.851        0.194      113.844       17.510        0.024      339.721       13.250      864.923
11/10/2013  19:13:00      -84.934       26.562       -1.192       40.439       39.338       22.809     1635.316     1547.486      520.232        0.581        0.185       88.991       14.618        0.027      339.739       13.277      864.929
11/10/2013  19:14:00      -44.437      -17.733       -4.513       26.522       27.829       19.565      703.402      774.446      382.772        0.208        0.093       47.845        6.070        0.016      339.499       12.874      864.930
11/10/2013  19:15:00      -44.254      -30.602      -18.846       23.111       14.703       18.353      534.109      216.182      336.838        0.217        0.054       53.804       16.408        0.093      339.377       12.670      864.950
11/10/2013  19:16:00      -43.943      -32.469      -11.599       21.208       14.322        9.164      449.791      205.122       83.977        0.193        0.037       54.638        6.671        0.015      339.478       12.840      864.960
11/10/2013  19:17:00     -157.393      -29.661      -21.396       54.091       45.461       21.799     2925.865     2066.705      475.202        1.579        0.273      160.164       20.312        0.016      338.840       11.765      864.989
11/10/2013  19:18:00     -158.543       14.477      -15.345       59.668       53.567       29.954     3560.249     2869.371      897.258        1.645        0.366      159.202       24.916        0.024      338.635       11.419      865.015
11/10/2013  19:19:00     -173.436      -10.444      -15.071       51.719       56.185       31.093     2674.805     3156.729      966.771        1.861        0.340      173.750       28.029        0.026      338.761       11.630      865.036
11/10/2013  19:20:00     -155.150      -40.565       -7.489       42.055       41.822       26.975     1768.635     1749.111      727.627        1.501        0.212      160.365       22.032        0.019      338.592       11.349      865.056
11/10/2013  19:21:00     -229.306      -31.870      -30.766       24.105       25.331       18.890      581.033      641.677      356.840        2.806        0.079      231.510       10.664        0.002      338.815       11.720      865.056
11/10/2013  19:22:00     -204.883      -39.318      -20.463       29.692       26.012       22.382      881.621      676.635      500.960        2.300        0.103      208.621       20.237        0.009      338.735       11.587      865.068
11/10/2013  19:23:00     -161.732      -64.459       -4.863       39.584       37.821       22.436     1566.899     1430.443      503.384        1.692        0.175      174.104       21.725        0.016      338.740       11.598      865.075
11/10/2013  19:24:00     -152.966      -55.609       -3.342       27.661       34.568       16.702      765.109     1194.966      278.947        1.437        0.112      162.760       12.155        0.006      338.722       11.568      865.078
11/10/2013  19:25:00     -174.967      -53.892      -10.241       20.780       16.509       16.526      431.813      272.543      273.123        1.730        0.049      183.079       13.431        0.005      338.813       11.719      865.082
11/10/2013  19:26:00     -146.531      -47.065       -8.735       18.747       22.114       11.809      351.440      489.022      139.449        1.237        0.049      153.904        9.669        0.004      338.674       11.485      865.077
11/10/2013  19:27:00     -148.055      -67.189       -3.851       27.380       22.654       11.861      749.637      513.184      140.683        1.393        0.070      162.588       11.476        0.005      338.645       11.438      865.070
11/10/2013  19:28:00     -174.856      -59.168       -7.805       35.152       31.002       21.657     1235.684      961.152      469.043        1.840        0.133      184.596       20.026        0.012      338.621       11.397      865.075
11/10/2013  19:29:00     -186.566      -10.443      -26.139       28.897       25.679       20.095      835.043      659.388      403.821        1.875        0.095      186.858       12.890        0.005      338.566       11.304      865.071
11/10/2013  19:30:00     -129.545       -6.807       -6.462       43.806       36.335       30.575     1918.947     1320.232      934.857        1.052        0.209      129.724       27.807        0.046      338.678       11.492      865.065
11/10/2013  19:31:00      -88.860      -14.717       -0.936       60.729       41.368       25.293     3687.996     1711.346      639.713        0.708        0.302       90.071       27.743        0.095      338.570       11.312      865.046
11/10/2013  19:32:00     -184.338      -84.455       -6.300       67.747       68.392       34.082     4589.686     4677.477     1161.578        2.579        0.521      202.764       27.087        0.018      338.510       11.208      865.040
11/10/2013  19:33:00     -177.839      -71.303      -16.984       47.078       43.643       27.803     2216.383     1904.687      773.017        2.095        0.245      191.600       22.065        0.013      338.298       10.851      865.038
11/10/2013  19:34:00     -120.371      -33.211      -10.728       27.774       26.649       21.029      771.405      710.191      442.214        0.882        0.096      124.869       14.595        0.014      338.303       10.863      865.011
11/10/2013  19:35:00      -96.130      -61.916        1.644       42.770       43.668       22.484     1829.249     1906.858      505.545        0.866        0.212      114.344       20.792        0.033      338.293       10.846      865.013
11/10/2013  19:36:00     -138.380      -38.819      -12.486       41.764       42.584       25.447     1744.249     1813.420      647.544        1.251        0.210      143.722       24.196        0.028      338.308       10.871      865.012
11/10/2013  19:37:00     -134.572      -32.719       -3.916       52.635       37.851       24.330     2770.435     1432.684      591.937        1.199        0.240      138.493       17.536        0.016      338.393       11.014      865.032
11/10/2013  19:38:00     -133.723       15.922       -2.428       87.391       46.878       33.261     7637.196     2197.503     1106.296        1.454        0.547      134.668       43.342        0.104      338.417       11.053      865.062
11/10/2013  19:39:00     -133.550      -20.727      -21.165       48.315       53.720       25.659     2334.294     2885.824      658.406        1.229        0.294      135.149       18.377        0.018      338.395       11.016      865.074
11/10/2013  19:40:00     -114.640      -64.041       -1.268       43.866       41.184       24.503     1924.252     1696.147      600.400        1.073        0.211      131.315       17.524        0.018      338.167       10.634      865.081
11/10/2013  19:41:00     -163.665      -38.957      -13.760       48.698       46.561       23.993     2371.469     2167.921      575.648        1.680        0.256      168.237       22.551        0.018      338.159       10.621      865.086
11/10/2013  19:42:00     -102.117      -55.979      -21.160       39.969       33.350       24.286     1597.555     1112.224      589.827        0.865        0.165      116.453       18.850        0.026      338.221       10.724      865.096
11/10/2013  19:43:00     -134.433      -76.412      -11.455       51.976       45.410       33.144     2701.464     2062.088     1098.537        1.495        0.293      154.632       25.405        0.027      338.143       10.593      865.103
11/10/2013  19:44:00      -80.842      -77.566        4.646       80.530       42.664       31.054     6485.051     1820.256      964.364        1.092        0.463      112.036       38.164        0.116      338.217       10.716      865.123
11/10/2013  19:45:00      -67.366      -59.967       -7.096       42.916       46.525       29.676     1841.774     2164.556      880.636        0.653        0.244       90.190       32.826        0.132      338.471       11.145      865.125
11/10/2013  19:46:00     -108.080      -17.118      -11.382       28.670       26.626       17.226      821.990      708.959      296.751        0.697        0.091      109.427       12.519        0.013      338.366       10.969      865.098
11/10/2013  19:47:00      -94.943       -3.395      -12.637       10.744       17.960        8.478      115.433      322.558       71.881        0.485        0.025       95.003        6.509        0.005      338.409       11.041      865.102
11/10/2013  19:48:00     -137.230      -67.808      -14.602       19.643       21.453       10.370      385.852      460.241      107.530        1.230        0.048      153.068        8.647        0.003      338.439       11.092      865.105
11/10/2013  19:49:00     -119.445      -70.365      -14.124       28.730       16.259       15.357      825.432      264.345      235.848        1.037        0.066      138.630        9.655        0.005      338.334       10.916      865.131
11/10/2013  19:50:00      -45.321      -59.737        7.132       50.035       43.335       33.513     2503.496     1877.938     1123.138        0.559        0.275       74.983       23.977        0.102      338.221       10.724      865.154
11/10/2013  19:51:00     -106.728      -55.485        7.582       73.347       50.457       32.282     5379.830     2545.878     1042.103        1.175        0.448      120.289       33.735        0.079      338.271       10.809      865.164
11/10/2013  19:52:00      -64.737      -43.258       12.647       51.648       48.459       27.703     2667.531     2348.242      767.431        0.600        0.289       77.860       28.138        0.131      338.169       10.637      865.171
11/10/2013  19:53:00      -50.655      -36.523       10.837       42.519       27.251       22.732     1807.862      742.624      516.730        0.354        0.153       62.449       20.862        0.112      338.195       10.681      865.160
11/10/2013  19:54:00      -78.426      -44.462        0.280       34.067       19.474       14.479     1160.584      379.239      209.642        0.494        0.087       90.153       16.517        0.034      338.161       10.625      865.177
11/10/2013  19:55:00      -48.143      -36.134        2.592       27.717       19.273       13.358      768.237      371.456      178.429        0.247        0.066       60.195       14.502        0.058      338.138       10.587      865.186
11/10/2013  19:56:00      -75.322      -36.374       -6.585       25.430       19.557       10.686      646.707      382.459      114.191        0.409        0.057       83.645        9.174        0.012      338.169       10.638      865.187
11/10/2013  19:57:00     -135.092      -16.286      -11.091       19.283       16.892       16.057      371.838      285.328      257.830        0.978        0.046      136.070        4.117        0.001      338.115       10.546      865.190
11/10/2013  19:58:00     -182.757      -78.701       -4.421       34.338       24.911       13.230     1179.073      620.577      175.031        2.079        0.099      198.982        8.612        0.002      338.109       10.536      865.181
11/10/2013  19:59:00     -132.655      -32.625       -1.372       64.184       40.342       22.378     4119.639     1627.444      500.759        1.245        0.312      136.608       24.066        0.031      338.016       10.380      865.174
11/10/2013  20:00:00     -119.257      -18.916       -5.229       65.551       44.658       30.978     4296.957     1994.340      959.615        1.093        0.363      120.747       24.659        0.042      337.910       10.202      865.156
11/10/2013  20:01:00      -60.164       -2.870       -7.372       29.332       18.090       16.527      860.361      327.241      273.137        0.257        0.073       60.233       14.980        0.062      337.876       10.146      865.150
11/10/2013  20:02:00     -144.928      -44.705      -20.530       36.008       26.689       16.486     1296.564      712.287      271.773        1.285        0.114      151.667       14.968        0.010      337.887       10.166      865.141
11/10/2013  20:03:00     -127.245      -65.946       -6.404       61.638       46.486       24.201     3799.285     2160.955      585.670        1.356        0.327      143.319       28.016        0.038      337.871       10.138      865.158
11/10/2013  20:04:00      -65.085      -33.543      -15.130       34.226       32.293       15.449     1171.435     1042.865      238.657        0.402        0.123       73.220       12.066        0.027      337.885       10.161      865.173
11/10/2013  20:05:00      -37.030      -42.112       -7.216       38.371       33.916       21.956     1472.306     1150.297      482.086        0.315        0.155       56.077       21.565        0.148      337.856       10.112      865.192
11/10/2013  20:06:00     -112.220      -57.105        0.620       24.286       27.461       21.274      589.799      754.119      452.594        0.883        0.090      125.914       14.290        0.013      337.769        9.966      865.222
11/10/2013  20:07:00      -44.501      -49.816        5.536       39.248       24.282       18.649     1540.400      589.620      347.788        0.348        0.124       66.798       19.167        0.082      337.830       10.068      865.225
11/10/2013  20:08:00      -85.432      -28.307       -4.408       25.345       25.573       15.148      642.362      653.997      229.454        0.482        0.076       90.000       12.100        0.018      337.868       10.131      865.202
11/10/2013  20:09:00     -117.079       23.319      -12.709       19.761       14.477       10.966      390.478      209.572      120.255        0.757        0.036      119.379        5.448        0.002      337.940       10.255      865.176
11/10/2013  20:10:00     -125.422        4.063      -16.150       14.100       14.056        9.174      198.808      197.580       84.159        0.824        0.024      125.488        6.199        0.002      337.988       10.335      865.145
11/10/2013  20:11:00     -118.249       -6.761      -21.211       36.229       20.630       19.577     1312.542      425.604      383.274        0.830        0.106      118.442       21.175        0.032      337.879       10.151      865.131
11/10/2013  20:12:00     -115.982      -22.014      -15.080       33.517       24.582       15.876     1123.391      604.293      252.053        0.807        0.099      118.053       14.706        0.016      337.791       10.004      865.140
11/10/2013  20:13:00     -113.487      -21.247       -7.105       39.829       29.069       20.399     1586.346      845.010      416.122        0.811        0.142      115.459       17.965        0.024      337.596        9.677      865.144
11/10/2013  20:14:00      -84.853      -51.638       -3.386       32.015       30.949       22.490     1024.991      957.828      505.778        0.618        0.124       99.331       19.631        0.039      337.552        9.604      865.165
11/10/2013  20:15:00      -98.872      -61.685       -8.592       31.096       29.444       20.937      966.954      866.923      438.377        0.796        0.114      116.536       15.477        0.018      337.575        9.642      865.182
11/10/2013  20:16:00     -117.263      -41.281      -20.149       22.511       17.491       14.788      506.757      305.945      218.699        0.845        0.052      124.317        7.185        0.003      337.584        9.656      865.200
11/10/2013  20:17:00     -175.134      -38.018      -15.493       30.638       22.061       14.244      938.666      486.670      202.900        1.699        0.081      179.213        6.240        0.001      337.586        9.661      865.212
11/10/2013  20:18:00     -137.375      -17.792      -14.825       33.732       23.968       16.494     1137.819      574.458      272.068        1.070        0.099      138.523       13.078        0.009      337.508        9.530      865.209
11/10/2013  20:19:00      -84.951      -22.021       -4.283       40.368       31.491       21.579     1629.539      991.671      465.666        0.540        0.154       87.758       21.850        0.062      337.437        9.411      865.219
11/10/2013  20:20:00      -98.305      -18.511       -1.538       51.332       40.202       27.922     2634.931     1616.197      779.637        0.752        0.252      100.032       29.195        0.085      337.472        9.469      865.218
11/10/2013  20:21:00     -160.619      -40.332      -11.067       25.962       26.417       17.120      674.000      697.875      293.080        1.461        0.083      165.605       13.755        0.007      337.502        9.520      865.229
11/10/2013  20:22:00     -143.328      -58.967      -12.563       23.915       24.956       20.465      571.944      622.785      418.805        1.290        0.081      154.983       16.470        0.011      337.546        9.593      865.237
11/10/2013  20:23:00     -113.656      -59.692      -11.845       35.593       18.525       14.304     1266.838      343.173      204.611        0.922        0.091      128.378       10.614        0.007      337.658        9.780      865.232
11/10/2013  20:24:00     -122.851      -24.556      -14.435       26.711       18.243       17.440      713.480      332.813      304.153        0.863        0.068      125.281       14.021        0.013      337.666        9.793      865.231
11/10/2013  20:25:00     -127.624      -40.578      -11.933       37.682       24.960       19.464     1419.911      623.023      378.830        1.025        0.121      133.919       13.329        0.010      337.569        9.632      865.232
11/10/2013  20:26:00      -95.551      -15.512      -13.294       45.057       28.055       22.570     2030.104      787.089      509.403        0.644        0.166       96.802       18.467        0.036      337.551        9.602      865.246
11/10/2013  20:27:00      -93.602      -17.861      -15.084       43.343       31.186       19.411     1878.595      972.577      376.775        0.627        0.161       95.290       11.989        0.016      337.538        9.579      865.252
11/10/2013  20:28:00      -63.799      -21.652       -6.729       34.231       33.351       23.537     1171.781     1112.278      553.978        0.371        0.142       67.373       15.923        0.056      337.493        9.504      865.285
11/10/2013  20:29:00      -63.188      -34.651       -3.139       45.355       25.977       19.455     2057.046      674.788      378.478        0.416        0.156       72.066       18.004        0.062      337.474        9.472      865.302
11/10/2013  20:30:00      -62.355      -27.546       -6.925       27.246       28.150       21.881      742.367      792.430      478.792        0.335        0.101       68.168       19.124        0.079      337.488        9.497      865.300
11/10/2013  20:31:00      -93.161      -12.454      -14.934       32.085       24.448       19.214     1029.465      597.724      369.177        0.553        0.100       93.990       18.122        0.037      337.557        9.611      865.292
11/10/2013  20:32:00     -118.940      -26.619      -26.587       32.011       21.507       13.770     1024.672      462.567      189.610        0.862        0.084      121.883       11.601        0.009      337.498        9.512      865.289
11/10/2013  20:33:00      -67.520      -46.047       -5.715       58.365       37.435       31.867     3406.458     1401.346     1015.500        0.627        0.291       81.727       39.411        0.233      337.440        9.413      865.307
11/10/2013  20:34:00      -18.501      -40.474       -5.972       31.231       31.732       21.585      975.356     1006.922      465.916        0.223        0.122       44.502       16.367        0.135      337.426        9.391      865.324
11/10/2013  20:35:00      -80.343      -16.504       -4.824       29.517       29.383       18.997      871.242      863.341      360.884        0.442        0.105       82.021        9.235        0.013      337.637        9.745      865.323
11/10/2013  20:36:00      -59.278        3.741       -6.814       16.969       21.551       14.272      287.935      464.460      203.699        0.227        0.048       59.396       10.705        0.032      337.786        9.996      865.325
11/10/2013  20:37:00      -69.177       -4.645      -10.359       18.111       13.991        8.960      328.018      195.748       80.286        0.276        0.030       69.333        6.224        0.008      337.655        9.776      865.324
11/10/2013  20:38:00      -70.829      -34.512      -18.417       13.519       14.885       11.497      182.762      221.558      132.180        0.354        0.027       78.790        4.838        0.004      337.575        9.642      865.329
11/10/2013  20:39:00      -90.094      -34.671      -11.501       18.660       14.498        9.012      348.204      210.189       81.216        0.505        0.032       96.535        8.322        0.007      337.478        9.479      865.332
11/10/2013  20:40:00      -84.097       -1.208      -11.255       25.068       13.196       16.220      628.387      174.134      263.096        0.413        0.053       84.106       14.616        0.030      337.466        9.461      865.349
11/10/2013  20:41:00      -61.430       -9.801      -15.367       22.587       16.727       13.448      510.166      279.788      180.851        0.254        0.049       62.207       12.226        0.039      337.603        9.689      865.362
11/10/2013  20:42:00      -68.528      -33.970       -9.480       37.128       16.459        9.890     1378.461      270.888       97.811        0.384        0.087       76.485       10.901        0.020      337.568        9.629      865.362
11/10/2013  20:43:00     -103.761      -41.492      -14.389       16.815       19.910        8.765      282.746      396.389       76.818        0.673        0.038      111.749        7.386        0.004      337.478        9.479      865.373
11/10/2013  20:44:00     -101.113      -12.514      -20.392       13.555       16.382       11.041      183.749      268.368      121.909        0.569        0.029      101.884        6.749        0.004      337.422        9.385      865.356
11/10/2013  20:45:00      -79.016      -15.143       -9.915       18.358       15.146       13.361      337.011      229.398      178.528        0.366        0.037       80.454        9.158        0.013      337.385        9.322      865.341
11/10/2013  20:46:00      -93.473      -20.652      -10.452       29.414       23.034       14.458      865.175      530.582      209.036        0.544        0.080       95.727       13.405        0.020      337.390        9.332      865.353
11/10/2013  20:47:00      -38.804      -31.710       -3.732       37.942       20.885       21.305     1439.568      436.187      453.919        0.243        0.116       50.113       15.352        0.094      337.358        9.279      865.364
11/10/2013  20:48:00      -50.285      -44.681        3.157       47.109       23.777       12.657     2219.224      565.356      160.193        0.374        0.147       67.268       17.630        0.069      337.445        9.424      865.392
11/10/2013  20:49:00      -23.277      -49.485        2.397       19.564       20.960       15.022      382.737      439.325      225.656        0.202        0.052       54.686       11.810        0.047      337.542        9.585      865.402
11/10/2013  20:50:00      -17.257      -25.260       -9.617       18.909       15.346       16.058      357.540      235.511      257.858        0.094        0.043       30.592        9.742        0.101      337.744        9.925      865.397
11/10/2013  20:51:00      -83.389       -8.084       -9.261       41.786       16.354       19.303     1746.068      267.451      372.599        0.475        0.119       83.780       23.103        0.076      337.771        9.970      865.392
11/10/2013  20:52:00     -149.253      -22.992      -21.645       30.198       26.043       14.992      911.912      678.219      224.774        1.254        0.091      151.013       14.057        0.009      337.324        9.222      865.384
11/10/2013  20:53:00     -159.083       -9.549      -17.693       38.355       28.857       21.342     1471.126      832.752      455.496        1.424        0.138      159.369       17.092        0.012      337.209        9.030      865.379
11/10/2013  20:54:00     -116.235      -17.763       -6.304       35.788       34.642       20.089     1280.815     1200.096      403.583        0.837        0.144      117.585       19.948        0.029      337.307        9.192      865.381
11/10/2013  20:55:00     -111.669      -51.885      -13.557       36.172       28.322       20.761     1308.415      802.140      431.005        0.894        0.127      123.134        5.764        0.002      337.234        9.071      865.392
11/10/2013  20:56:00     -124.561      -39.426       -7.813       49.492       43.653       25.627     2449.421     1905.602      656.753        1.107        0.251      130.652       22.020        0.028      337.279        9.146      865.410
11/10/2013  20:57:00     -105.879      -42.273       -3.332       45.253       30.006       21.559     2047.875      900.362      464.807        0.821        0.171      114.006       21.201        0.035      337.302        9.184      865.439
11/10/2013  20:58:00     -135.585      -47.263      -12.506       41.031       33.649       21.026     1683.548     1132.270      442.112        1.202        0.163      143.586       21.830        0.023      337.237        9.077      865.449
11/10/2013  20:59:00     -118.586      -39.748       -3.201       35.436       38.060       21.856     1255.690     1448.532      477.685        0.942        0.159      125.070       20.115        0.026      337.245        9.089      865.465
11/10/2013  21:00:00     -102.717      -40.075       -5.243       56.887       31.718       23.825     3236.136     1006.055      567.632        0.850        0.240      110.258       29.680        0.072      337.188        8.994      865.481
11/10/2013  21:01:00      -97.546      -47.375        2.790       48.884       34.084       20.609     2389.623     1161.711      424.734        0.787        0.199      108.442       23.332        0.046      337.167        8.958      865.473
11/10/2013  21:02:00     -113.775      -84.739        0.172       43.414       34.070       26.238     1884.799     1160.739      688.425        1.193        0.187      141.864       25.264        0.032      337.177        8.975      865.471
11/10/2013  21:03:00     -108.944      -62.504       -3.267       48.924       29.500       22.277     2393.598      870.233      496.255        0.977        0.188      125.601       17.069        0.018      337.111        8.864      865.481
11/10/2013  21:04:00     -117.914      -74.177       -9.043       31.788       28.473       22.040     1010.482      810.697      485.759        1.090        0.115      139.305       19.063        0.019      337.080        8.812      865.489
11/10/2013  21:05:00     -100.916      -73.108       -4.513       43.741       30.851       23.907     1913.270      951.768      571.554        0.949        0.172      124.615       20.786        0.028      337.075        8.804      865.493
11/10/2013  21:06:00     -125.320      -53.236       -9.900       28.211       22.537       15.098      795.841      507.898      227.963        1.008        0.077      136.158       13.532        0.010      337.108        8.860      865.505
11/10/2013  21:07:00     -120.938      -27.878      -10.355       11.538       11.100       12.690      133.114      123.214      161.041        0.796        0.021      124.109        7.006        0.003      337.122        8.883      865.495
11/10/2013  21:08:00     -101.200      -41.277      -12.742       16.805       24.741        8.947      282.419      612.119       80.048        0.654        0.049      109.294        8.502        0.006      337.110        8.864      865.488
11/10/2013  21:09:00      -83.290      -46.101       -5.636       26.966       26.209       17.169      727.159      686.890      294.787        0.540        0.085       95.197       12.515        0.017      337.124        8.885      865.498
11/10/2013  21:10:00      -91.225      -50.097       -1.404       44.869       34.907       24.547     2013.183     1218.471      602.566        0.733        0.192      104.076       24.014        0.053      337.055        8.769      865.505
11/10/2013  21:11:00     -114.648      -34.782      -12.242       34.961       37.115       21.611     1222.238     1377.556      467.036        0.878        0.153      119.808       16.353        0.019      337.069        8.793      865.520
11/10/2013  21:12:00      -88.012      -40.479      -11.460       39.237       34.438       22.862     1539.533     1186.004      522.665        0.638        0.162       96.875       23.018        0.056      337.033        8.733      865.537
11/10/2013  21:13:00      -28.938      -21.912       13.386       52.923       20.533       22.632     2800.810      421.590      512.202        0.262        0.187       36.298       28.594        0.621      336.957        8.605      865.539
11/10/2013  21:14:00      -95.410      -48.820      -12.660       17.621       26.743       13.021      310.482      715.184      169.546        0.642        0.060      107.175        6.294        0.003      336.992        8.663      865.529
11/10/2013  21:15:00     -115.156      -59.126      -12.273       16.634       18.285       13.257      276.685      334.347      175.743        0.885        0.039      129.448       10.149        0.006      336.984        8.651      865.525
11/10/2013  21:16:00     -120.281      -52.848      -10.994       23.611       16.473       10.783      557.491      271.348      116.267        0.916        0.047      131.379        4.341        0.001      337.034        8.734      865.538
11/10/2013  21:17:00     -102.961      -58.191       -5.127       33.084       20.803       21.363     1094.563      432.764      456.357        0.800        0.099      118.267       14.732        0.016      337.024        8.717      865.543
11/10/2013  21:18:00     -108.396      -60.948       -4.426       15.696       16.915       12.201      246.358      286.109      148.854        0.808        0.034      124.355        6.923        0.003      337.046        8.756      865.548
11/10/2013  21:19:00      -99.712      -55.633      -12.148       18.895       17.294       14.726      357.019      299.087      216.862        0.703        0.044      114.182        7.728        0.005      337.005        8.685      865.563
11/10/2013  21:20:00      -90.827      -53.684      -13.264       17.157       16.686       11.791      294.357      278.431      139.034        0.601        0.036      105.506       10.371        0.010      337.081        8.813      865.564
11/10/2013  21:21:00     -107.872      -51.358      -15.733       13.453       10.457        8.125      180.988      109.358       66.020        0.744        0.018      119.475        5.219        0.002      337.213        9.035      865.565
11/10/2013  21:22:00     -101.847      -49.362      -13.532       11.457       10.864        7.211      131.262      118.033       52.000        0.665        0.015      113.178        4.410        0.002      337.184        8.985      865.574
11/10/2013  21:23:00     -112.088      -52.046      -14.441        8.982        9.961        9.059       80.678       99.212       82.072        0.787        0.013      123.582        3.398        0.001      337.127        8.891      865.576
11/10/2013  21:24:00     -115.703      -39.174      -13.072       12.686       13.081       12.684      160.928      171.122      160.882        0.779        0.025      122.154        6.838        0.003      337.044        8.751      865.572
11/10/2013  21:25:00     -148.519      -42.846      -13.778       11.528       12.275        9.732      132.892      150.667       94.719        1.223        0.019      154.576        4.390        0.001      337.006        8.688      865.587
11/10/2013  21:26:00     -158.641      -51.943      -25.567       12.970       14.664       12.035      168.212      215.021      144.844        1.452        0.026      166.928        3.205        0.000      336.923        8.548      865.579
11/10/2013  21:27:00     -147.942      -51.342      -26.115       20.251       16.307       11.147      410.116      265.928      124.256        1.300        0.040      156.598        6.256        0.002      336.870        8.461      865.574
11/10/2013  21:28:00     -125.139      -61.220      -11.522       32.147       29.073       19.544     1033.453      845.255      381.949        1.090        0.113      139.311       11.588        0.007      336.790        8.330      865.581
11/10/2013  21:29:00      -96.056      -39.461       -6.784       48.914       29.114       24.433     2392.535      847.607      596.956        0.733        0.192      103.846       24.432        0.055      336.739        8.242      865.591
11/10/2013  21:30:00     -117.710      -34.413       -0.670       45.838       42.478       24.953     2101.122     1804.368      622.664        0.978        0.226      122.637       23.070        0.035      336.695        8.170      865.599
11/10/2013  21:31:00      -76.572      -20.133      -10.201       35.818       29.002       24.203     1282.963      841.108      585.772        0.454        0.135       79.175       23.071        0.085      336.688        8.157      865.612
11/10/2013  21:32:00      -95.353      -30.394      -19.310       34.214       27.722       18.421     1170.576      768.513      339.332        0.633        0.114      100.080        7.553        0.006      336.774        8.305      865.611
11/10/2013  21:33:00      -86.922      -27.705      -14.795       32.004       28.514       20.093     1024.271      813.070      403.735        0.539        0.112       91.231       19.080        0.044      336.703        8.184      865.605
11/10/2013  21:34:00     -131.727      -15.802      -20.941       17.656       22.222       12.537      311.722      493.828      157.165        0.950        0.048      132.671        8.453        0.004      336.738        8.242      865.602
11/10/2013  21:35:00     -113.623      -11.606      -15.453       32.099       22.513       16.292     1030.321      506.852      265.418        0.754        0.090      114.214       16.133        0.020      336.665        8.121      865.607
11/10/2013  21:36:00     -109.489      -21.313      -20.377       21.406       28.691       16.645      458.218      823.158      277.067        0.721        0.078      111.544       13.506        0.015      336.710        8.196      865.601
11/10/2013  21:37:00     -115.809      -40.100      -11.156       25.586       33.503       16.658      654.638     1122.473      277.498        0.860        0.103      122.555       12.681        0.011      336.671        8.130      865.596
11/10/2013  21:38:00      -96.858      -52.298       -9.251       31.966       29.357       28.320     1021.795      861.834      802.030        0.744        0.134      110.075       20.817        0.036      336.618        8.041      865.600
11/10/2013  21:39:00     -115.132      -47.553      -12.973       29.470       38.248       23.861      868.486     1462.911      569.371        0.929        0.145      124.566       12.015        0.009      336.580        7.977      865.604
11/10/2013  21:40:00     -115.533      -46.404       -6.883       32.736       33.411       25.810     1071.675     1116.268      666.161        0.920        0.143      124.504       18.025        0.021      336.600        8.012      865.611
11/10/2013  21:41:00      -61.510      -54.609      -13.149       30.706       26.555       24.247      942.868      705.181      587.919        0.459        0.112       82.253       20.703        0.063      336.667        8.123      865.627
11/10/2013  21:42:00      -71.891      -46.138      -21.119       25.568       29.208       22.869      653.707      853.081      523.007        0.489        0.101       85.422       18.420        0.047      336.703        8.184      865.643
11/10/2013  21:43:00      -99.554      -40.407      -13.792       31.368       25.020       11.892      983.957      625.987      141.421        0.674        0.088      107.442        9.943        0.009      336.623        8.051      865.658
11/10/2013  21:44:00     -126.820      -58.242      -16.720       22.910       27.598       15.496      524.850      761.673      240.115        1.064        0.076      139.555       12.000        0.007      336.636        8.073      865.670
11/10/2013  21:45:00      -99.225      -42.499       -8.724       47.539       26.830       23.448     2259.963      719.823      549.821        0.763        0.176      107.943       23.139        0.046      336.614        8.035      865.685
11/10/2013  21:46:00      -75.694      -33.680        0.678       58.732       31.169       22.526     3449.426      971.497      507.413        0.590        0.246       82.849       28.551        0.119      336.562        7.949      865.702
11/10/2013  21:47:00      -28.487      -12.930        9.427       39.649       25.410       24.853     1572.048      645.690      617.656        0.195        0.142       31.284       27.763        0.788      336.529        7.892      865.700
11/10/2013  21:48:00      -58.526      -11.951       -4.006       26.123       19.885       15.224      682.397      395.395      231.775        0.245        0.065       59.734        9.167        0.024      336.562        7.948      865.703
11/10/2013  21:49:00      -79.134      -23.723       -8.910       24.890       19.724       13.549      619.506      389.050      183.578        0.405        0.060       82.613       11.477        0.019      336.642        8.082      865.695
11/10/2013  21:50:00      -97.453      -29.562       -9.631       19.917       19.801       15.207      396.679      392.062      231.268        0.574        0.051      101.838       10.504        0.011      336.684        8.153      865.676
11/10/2013  21:51:00     -131.867      -36.179      -19.926       14.666       15.786        9.616      215.087      249.185       92.463        0.983        0.028      136.740        7.915        0.003      336.574        7.968      865.665
11/10/2013  21:52:00     -131.158      -47.861      -16.858       17.462       10.124       11.872      304.905      102.487      140.946        1.016        0.027      139.618        8.874        0.004      336.562        7.948      865.651
11/10/2013  21:53:00     -133.078      -41.719      -22.780       13.659       13.570       10.830      186.574      184.155      117.284        1.023        0.024      139.464        6.925        0.002      336.620        8.046      865.647
11/10/2013  21:54:00      -95.441      -51.003      -12.153       31.446       25.392       16.601      988.855      644.750      275.579        0.688        0.095      108.214       13.097        0.015      336.558        7.941      865.652
11/10/2013  21:55:00     -125.462      -29.906      -18.093       22.530       24.652       17.085      507.586      607.729      291.911        0.918        0.070      128.977        7.884        0.004      336.512        7.863      865.659
11/10/2013  21:56:00      -89.019      -44.927      -21.694       33.139       26.325       20.431     1098.171      693.012      417.428        0.631        0.110       99.714       14.833        0.022      336.555        7.934      865.660
11/10/2013  21:57:00      -54.494      -48.649      -12.485       49.257       33.400       30.411     2426.297     1115.570      924.803        0.498        0.223       73.050       32.945        0.203      336.487        7.821      865.678
11/10/2013  21:58:00      -80.150      -34.681      -21.285       30.232       34.456       20.765      913.981     1187.216      431.188        0.531        0.127       87.331        9.370        0.012      336.490        7.828      865.692
11/10/2013  21:59:00     -135.672       -6.789      -26.712       21.172       19.986       11.682      448.265      399.437      136.457        1.008        0.049      135.842        9.542        0.005      336.517        7.873      865.700
11/10/2013  22:00:00     -120.096      -38.559      -25.479       19.219       27.010       13.312      369.366      729.539      177.220        0.892        0.064      126.134       12.688        0.010      336.501        7.846      865.710
11/10/2013  22:01:00     -126.135      -55.660      -18.772       15.684       22.199       12.219      245.980      492.809      149.298        1.012        0.044      137.870        7.183        0.003      336.460        7.775      865.717
11/10/2013  22:02:00     -164.233      -56.000      -18.354       21.359       18.118       11.958      456.192      328.280      143.002        1.569        0.046      173.518        9.949        0.003      336.500        7.845      865.715
11/10/2013  22:03:00     -136.652      -58.758      -16.418       13.058       14.821       12.361      170.512      219.653      152.801        1.147        0.027      148.749        7.131        0.002      336.436        7.736      865.709
11/10/2013  22:04:00     -114.174      -34.410      -12.042       15.144       15.815       11.116      229.343      250.117      123.575        0.748        0.030      119.247        6.871        0.003      336.376        7.637      865.712
11/10/2013  22:05:00     -114.416      -24.158      -13.734       14.218       15.216        9.235      202.148      231.529       85.282        0.719        0.026      116.938        8.112        0.005      336.421        7.712      865.706
11/10/2013  22:06:00     -115.741      -15.094      -18.371       12.432       14.023       11.873      154.543      196.651      140.968        0.723        0.025      116.721        6.338        0.003      336.466        7.786      865.700
11/10/2013  22:07:00     -108.315      -43.375      -14.393       27.680       28.080       15.057      766.168      788.489      226.716        0.780        0.089      116.677       14.863        0.016      336.466        7.785      865.687
11/10/2013  22:08:00      -83.250      -51.557      -11.543       31.442       31.949       19.379      988.615     1020.743      375.528        0.605        0.119       97.922       15.470        0.025      336.410        7.692      865.681
11/10/2013  22:09:00     -116.203      -43.630      -22.646       23.726       31.211       17.631      562.913      974.152      310.852        0.888        0.092      124.124        6.892        0.003      336.380        7.641      865.669
11/10/2013  22:10:00      -97.388      -50.872       -5.839       34.038       30.962       22.520     1158.592      958.644      507.169        0.737        0.131      109.875       21.483        0.038      336.291        7.494      865.667
11/10/2013  22:11:00     -117.655      -46.016      -22.599       28.482       29.227       16.601      811.207      854.209      275.584        0.921        0.097      126.333       11.624        0.008      336.274        7.465      865.676
11/10/2013  22:12:00      -97.673      -38.259      -13.660       25.986       41.005       18.462      675.274     1681.413      340.833        0.694        0.135      104.899       10.509        0.010      336.228        7.389      865.674
11/10/2013  22:13:00      -93.631      -44.400      -14.099       39.521       31.991       27.559     1561.941     1023.444      759.519        0.714        0.167      103.625       21.437        0.043      336.260        7.442      865.676
11/10/2013  22:14:00     -113.201      -44.662      -18.156       38.269       41.273       23.983     1464.480     1703.423      575.198        0.944        0.187      121.693       18.009        0.022      336.197        7.337      865.684
11/10/2013  22:15:00     -109.633      -42.755      -10.832       42.181       34.616       25.502     1779.258     1198.275      650.368        0.880        0.181      117.675       22.803        0.038      336.178        7.304      865.681
11/10/2013  22:16:00      -57.904      -34.543       -2.986       46.261       29.786       24.128     2140.078      887.216      582.172        0.408        0.180       67.425       23.422        0.121      336.137        7.236      865.686
11/10/2013  22:17:00      -68.129      -20.390        3.025       32.207       32.799       21.181     1037.265     1075.752      448.619        0.381        0.128       71.115       16.076        0.051      336.182        7.311      865.701
11/10/2013  22:18:00      -60.776      -14.988       -4.586       54.874       25.047       18.907     3011.125      627.328      357.490        0.397        0.200       62.596       22.118        0.125      336.200        7.341      865.699
11/10/2013  22:19:00     -121.965      -10.495      -18.213       32.700       32.603       18.652     1069.282     1062.969      347.885        0.890        0.124      122.416       14.004        0.013      336.169        7.290      865.694
11/10/2013  22:20:00     -107.153      -17.957      -16.550       20.370       23.511       15.875      414.917      552.752      252.022        0.665        0.061      108.647       14.556        0.018      336.126        7.217      865.695
11/10/2013  22:21:00     -106.947      -23.034      -11.501       22.696       21.541       15.834      515.091      464.008      250.727        0.666        0.061      109.399        8.800        0.006      336.156        7.268      865.697
11/10/2013  22:22:00     -106.291      -42.477      -15.995       26.138       28.426       19.542      683.213      808.029      381.908        0.762        0.094      114.465       16.965        0.022      336.203        7.346      865.701
11/10/2013  22:23:00     -113.384      -58.311       -8.306       25.508       20.788       14.249      650.636      432.142      203.025        0.881        0.064      127.500       10.240        0.006      336.190        7.325      865.725
11/10/2013  22:24:00     -128.583      -60.433      -18.700       14.665       18.892       13.834      215.077      356.906      191.381        1.065        0.038      142.077        8.680        0.004      336.191        7.325      865.731
11/10/2013  22:25:00     -126.731      -70.891      -12.704       23.712       19.097       15.947      562.252      364.685      254.318        1.121        0.059      145.211        7.535        0.003      336.231        7.394      865.729
11/10/2013  22:26:00     -117.546      -57.823      -15.870       24.716       18.660       13.408      610.878      348.210      179.775        0.928        0.057      130.998        9.628        0.005      336.206        7.352      865.739
11/10/2013  22:27:00     -125.893      -58.463      -15.383       16.047       18.324       11.196      257.492      335.779      125.358        1.011        0.036      138.805        8.118        0.003      336.170        7.292      865.722
11/10/2013  22:28:00     -143.374      -58.651      -15.649       12.102       13.361        9.189      146.457      178.508       84.444        1.233        0.020      154.907        7.561        0.002      336.211        7.361      865.701
11/10/2013  22:29:00     -127.424      -32.412      -14.105       17.825       12.309       10.073      317.740      151.524      101.461        0.903        0.029      131.482        7.596        0.003      336.146        7.252      865.688
11/10/2013  22:30:00     -132.634      -32.599      -16.153       17.427       13.914       14.377      303.690      193.590      206.695        0.981        0.035      136.581       11.164        0.007      336.186        7.318      865.684
11/10/2013  22:31:00     -115.576      -34.334      -16.343       15.349       15.544       12.087      235.577      241.630      146.106        0.771        0.031      120.568        3.782        0.001      336.170        7.292      865.703
11/10/2013  22:32:00     -113.342      -40.531      -13.661       15.108       17.100       13.376      228.244      292.402      178.916        0.769        0.035      120.371       11.115        0.009      336.167        7.285      865.704
11/10/2013  22:33:00     -105.723      -48.621      -13.831       21.095       19.446       17.799      444.990      378.132      316.793        0.744        0.057      116.367       14.867        0.016      336.183        7.313      865.714
11/10/2013  22:34:00     -110.129      -23.214      -15.838       18.129       20.125       18.562      328.666      405.022      344.547        0.700        0.054      112.549       12.203        0.012      336.195        7.333      865.723
11/10/2013  22:35:00      -99.782      -14.773      -17.006       20.416       20.398       14.196      416.806      416.073      201.514        0.575        0.052      100.870        9.434        0.009      336.162        7.279      865.711
11/10/2013  22:36:00      -83.528      -31.355      -16.941       17.102       19.255       10.923      292.495      370.767      119.305        0.451        0.039       89.219       10.848        0.015      336.078        7.138      865.709
11/10/2013  22:37:00      -77.719      -31.945      -11.262       16.996       16.754       15.286      288.868      280.712      233.661        0.400        0.040       84.029        4.830        0.003      336.077        7.137      865.702
11/10/2013  22:38:00     -113.184      -30.968      -14.060       23.757       20.620       15.670      564.410      425.175      245.537        0.760        0.062      117.344       10.579        0.008      336.100        7.174      865.693
11/10/2013  22:39:00      -88.604      -41.954       -5.613       16.893       19.412       22.403      285.388      376.832      501.888        0.540        0.058       98.035       15.927        0.026      336.021        7.043      865.703
11/10/2013  22:40:00      -93.185      -53.899      -19.492       19.259       22.408       13.468      370.917      502.137      181.380        0.651        0.053      107.650        9.771        0.008      336.038        7.071      865.711
11/10/2013  22:41:00     -127.932      -53.997      -15.380       25.127       25.430       13.960      631.366      646.692      194.868        1.050        0.074      138.860       10.362        0.006      335.966        6.950      865.705
11/10/2013  22:42:00     -137.651      -48.045       -9.723       23.146       14.735       11.277      535.727      217.120      127.181        1.112        0.044      145.794        9.644        0.004      335.926        6.884      865.706
11/10/2013  22:43:00     -110.046      -29.291      -11.882       17.452       13.755       12.750      304.557      189.205      162.572        0.688        0.033      113.878        9.811        0.007      335.937        6.902      865.717
11/10/2013  22:44:00     -125.615      -35.327      -16.805       16.828       15.020        9.652      283.173      225.587       93.165        0.896        0.030      130.488        7.675        0.003      336.020        7.040      865.702
11/10/2013  22:45:00     -127.149      -32.619      -14.196       17.873       16.738       11.232      319.434      280.169      126.148        0.908        0.036      131.267        6.733        0.003      335.952        6.928      865.693
11/10/2013  22:46:00      -77.710      -64.215      -15.526       26.878       22.366       25.319      722.424      500.220      641.054        0.613        0.093      100.809       18.542        0.034      335.985        6.983      865.711
11/10/2013  22:47:00      -64.998      -55.782       -6.792       30.060       26.013       19.290      903.584      676.697      372.115        0.467        0.098       85.652       13.845        0.026      335.928        6.887      865.720
11/10/2013  22:48:00     -111.491      -48.157      -17.684       23.638       17.920       15.982      558.750      321.112      255.437        0.810        0.057      121.447       10.825        0.008      335.904        6.849      865.720
11/10/2013  22:49:00      -92.456      -67.040      -13.902       25.973       28.941       16.495      674.605      837.568      272.069        0.751        0.089      114.203        7.463        0.004      335.854        6.765      865.712
11/10/2013  22:50:00     -111.345      -62.759      -16.181       19.558       26.196       16.094      382.500      686.212      259.024        0.896        0.066      127.814        8.831        0.005      335.838        6.739      865.710
11/10/2013  22:51:00      -63.527      -58.077       -7.683       40.853       31.152       26.597     1669.008      970.444      707.420        0.541        0.167       86.074       25.793        0.090      335.811        6.694      865.725
11/10/2013  22:52:00      -43.420      -43.203        8.973       38.813       35.566       23.454     1506.450     1264.948      550.073        0.358        0.166       61.252       25.957        0.180      335.760        6.609      865.727
11/10/2013  22:53:00      -72.105      -33.043        7.367       51.275       35.204       24.716     2629.149     1239.315      610.870        0.541        0.224       79.316       27.573        0.121      335.773        6.631      865.720
11/10/2013  22:54:00      -84.282      -30.615        4.593       69.416       38.753       23.891     4818.547     1501.813      570.788        0.748        0.345       89.671       29.005        0.105      335.873        6.796      865.717
11/10/2013  22:55:00      -87.415      -38.334       -6.550       34.018       26.025       16.322     1157.256      677.304      266.416        0.563        0.105       95.451       12.146        0.016      335.837        6.738      865.718
11/10/2013  22:56:00      -60.122      -35.490       -2.579       53.134       20.383       23.783     2823.206      415.453      565.619        0.434        0.190       69.815       29.279        0.176      335.848        6.756      865.705
11/10/2013  22:57:00      -64.721      -38.594       -9.928       33.141       22.698       21.033     1098.342      515.186      442.380        0.392        0.103       75.354       16.945        0.051      335.847        6.752      865.694
11/10/2013  22:58:00      -70.452      -45.407       -0.031       36.807       34.268       21.380     1354.761     1174.294      457.089        0.501        0.149       83.817       20.142        0.058      335.779        6.640      865.685
11/10/2013  22:59:00      -91.071      -19.376       -4.075       60.201       33.504       30.749     3624.118     1122.514      945.504        0.719        0.285       93.110       28.790        0.096      335.878        6.805      865.673
11/10/2013  23:00:00      -76.116       -6.124       -9.857       40.572       51.973       27.584     1646.096     2701.239      760.867        0.552        0.255       76.362       20.315        0.071      335.913        6.864      865.658
11/10/2013  23:01:00      -79.453       -4.710       -8.316       40.762       36.362       24.060     1661.546     1322.162      578.871        0.498        0.178       79.592       22.257        0.078      335.919        6.873      865.653
11/10/2013  23:02:00      -50.715      -22.665       -7.857       29.770       19.300       13.434      886.281      372.491      180.485        0.229        0.072       55.550       13.145        0.056      335.908        6.855      865.657
11/10/2013  23:03:00      -69.607      -35.299       -4.207       34.980       24.909       20.043     1223.583      620.438      401.718        0.418        0.112       78.046       21.698        0.077      335.858        6.772      865.658
11/10/2013  23:04:00     -117.967      -37.499      -20.574       18.956       25.843       16.189      359.322      667.863      262.078        0.852        0.064      123.784       12.247        0.010      335.865        6.782      865.659
11/10/2013  23:05:00      -96.233      -52.900      -17.141       23.897       29.549       16.383      571.065      873.118      268.396        0.703        0.086      109.815        7.884        0.005      335.873        6.796      865.656
11/10/2013  23:06:00      -96.446      -59.569      -10.278       33.565       28.322       21.134     1126.596      802.134      446.638        0.767        0.119      113.359       18.017        0.025      335.855        6.766      865.665
11/10/2013  23:07:00     -138.266      -44.038      -12.686       28.278       23.752       17.182      799.670      564.142      295.233        1.144        0.083      145.110       11.114        0.006      335.851        6.760      865.666
11/10/2013  23:08:00      -93.439      -55.919       -4.291       34.951       21.863       16.972     1221.589      477.987      288.037        0.693        0.099      108.894       10.531        0.009      335.842        6.745      865.662
11/10/2013  23:09:00      -90.182      -35.830       -4.581       32.922       25.544       20.464     1083.838      652.484      418.789        0.580        0.108       97.039       17.128        0.031      335.797        6.672      865.668
11/10/2013  23:10:00      -86.922      -41.844       -7.993       26.596       21.392       16.124      707.347      457.610      259.968        0.540        0.071       96.470       12.287        0.016      335.871        6.793      865.681
11/10/2013  23:11:00      -90.812      -28.761       -3.191       39.802       15.712       14.016     1584.218      246.867      196.457        0.556        0.101       95.257       19.992        0.044      335.920        6.874      865.679
11/10/2013  23:12:00     -107.298      -39.487      -16.684       15.707       12.309        8.909      246.706      151.505       79.368        0.691        0.024      114.333        8.294        0.005      335.999        7.007      865.675
11/10/2013  23:13:00     -124.498      -42.824      -14.984       11.364       14.457        7.221      129.140      209.008       52.147        0.897        0.020      131.657        5.150        0.002      336.094        7.164      865.668
11/10/2013  23:14:00     -113.641      -45.639      -17.403       10.056       13.174       10.208      101.126      173.563      104.205        0.784        0.019      122.463        2.697        0.000      336.193        7.330      865.670
11/10/2013  23:15:00      -99.679      -58.823      -10.432       23.198       20.692       15.516      538.129      428.177      240.754        0.736        0.060      115.741       14.544        0.016      336.208        7.355      865.677
11/10/2013  23:16:00      -88.501      -54.629       -5.172       17.645       11.145       11.850      311.341      124.215      140.425        0.571        0.029      104.004        8.777        0.007      336.109        7.190      865.676
11/10/2013  23:17:00      -86.709      -61.128       -4.786       32.638       18.414       13.983     1065.231      339.061      195.527        0.644        0.080      106.090       10.628        0.010      335.926        6.885      865.678
11/10/2013  23:18:00      -88.671      -81.615       -5.420       43.393       28.703       19.344     1882.971      823.881      374.176        0.882        0.154      120.514       13.012        0.012      335.901        6.843      865.679
11/10/2013  23:19:00     -123.277      -53.029        2.023       27.625       22.277       17.285      763.135      496.269      298.784        0.979        0.078      134.198       13.312        0.010      335.840        6.741      865.670
11/10/2013  23:20:00     -131.147      -69.112       -9.518       16.261       19.137       11.047      264.409      366.234      122.034        1.141        0.038      148.243        6.316        0.002      335.800        6.675      865.660
11/10/2013  23:21:00     -120.007      -65.582      -10.016       14.277       18.557       14.234      203.821      344.360      202.594        0.978        0.038      136.758        9.896        0.005      335.782        6.646      865.656
11/10/2013  23:22:00     -119.227      -54.696       -6.745       26.563       20.837       12.872      705.603      434.167      165.697        0.928        0.065      131.174        8.231        0.004      335.791        6.660      865.657
11/10/2013  23:23:00     -121.888      -48.040       -5.977       22.300       12.717       10.306      497.274      161.718      106.208        0.898        0.038      131.013       11.167        0.007      335.817        6.702      865.663
11/10/2013  23:24:00     -103.463      -39.875       -1.627       24.277       16.900       14.974      589.385      285.611      224.235        0.670        0.055      110.881       14.952        0.018      335.798        6.672      865.670
11/10/2013  23:25:00     -108.424      -40.861       -5.862       18.512       16.476       11.750      342.709      271.468      138.053        0.711        0.038      115.868       11.461        0.010      335.758        6.606      865.665
11/10/2013  23:26:00     -108.374      -48.667       -7.621       12.042       11.456        9.906      145.017      131.240       98.128        0.727        0.019      118.800        7.741        0.004      335.763        6.615      865.652
11/10/2013  23:27:00      -99.219      -55.896       -5.864       28.131       20.712       14.098      791.350      428.981      198.743        0.721        0.071      113.880       12.351        0.012      335.733        6.563      865.646
11/10/2013  23:28:00     -110.306      -63.656       -9.977       13.507       16.931       11.689      182.440      286.660      136.631        0.846        0.030      127.356        6.191        0.002      335.693        6.498      865.656
11/10/2013  23:29:00     -108.539      -51.745      -15.395       15.404        8.699        8.761      237.290       75.675       76.761        0.754        0.019      120.242        3.317        0.001      335.697        6.504      865.667
11/10/2013  23:30:00     -112.668      -43.030      -16.851        9.786       12.740        8.280       95.771      162.308       68.553        0.758        0.016      120.605        4.404        0.001      335.808        6.688      865.667
11/10/2013  23:31:00     -128.686      -54.683      -24.030       11.200       14.749       11.597      125.435      217.538      134.495        1.030        0.024      139.822        9.947        0.005      335.842        6.744      865.668
11/10/2013  23:32:00      -98.516      -63.044      -10.457       32.716       19.999       16.137     1070.358      399.947      260.403        0.776        0.087      116.961       10.645        0.008      335.805        6.684      865.672
11/10/2013  23:33:00     -110.672      -72.597       -4.475       27.922       21.988       18.548      779.616      483.474      344.012        0.957        0.080      132.358       11.989        0.008      335.736        6.568      865.675
11/10/2013  23:34:00      -88.555      -75.573       -1.380       37.673       31.503       25.801     1419.220      992.454      665.703        0.832        0.154      116.418       21.322        0.034      335.691        6.494      865.680
11/10/2013  23:35:00     -128.345      -60.120      -10.167       26.221       17.520       17.312      687.545      306.934      299.690        1.074        0.065      141.728       13.027        0.008      335.667        6.455      865.661
11/10/2013  23:36:00     -120.138      -73.162       -7.029       23.265       18.384       13.281      541.270      337.989      176.375        1.045        0.053      140.662       10.915        0.006      335.784        6.649      865.648
11/10/2013  23:37:00     -112.823      -65.262      -11.374       14.888       14.549       12.947      221.641      211.673      167.618        0.886        0.030      130.339        8.716        0.004      335.841        6.742      865.636
11/10/2013  23:38:00     -104.931      -62.313       -7.396       15.570       21.899       11.378      242.437      479.547      129.449        0.790        0.043      122.038        8.285        0.005      335.822        6.713      865.643
11/10/2013  23:39:00     -117.574      -35.778      -17.633       11.846       10.714       12.043      140.339      114.789      145.024        0.791        0.020      122.897        4.718        0.001      335.734        6.566      865.634
11/10/2013  23:40:00     -114.905      -33.530      -12.307       19.695       13.605       12.288      387.876      185.087      150.988        0.760        0.036      119.697        5.543        0.002      335.632        6.395      865.624
11/10/2013  23:41:00     -126.148      -39.318      -11.827       14.128       12.651       11.706      199.598      160.058      137.024        0.905        0.025      132.134        8.698        0.004      335.517        6.204      865.615
11/10/2013  23:42:00     -128.808      -60.780      -11.802       13.565       11.620        9.401      184.007      135.029       88.370        1.042        0.020      142.428        6.775        0.002      335.560        6.276      865.612
11/10/2013  23:43:00     -119.625      -71.901       -8.559       18.858       14.858       12.052      355.626      220.757      145.251        1.014        0.036      139.570        7.215        0.003      335.574        6.299      865.628
11/10/2013  23:44:00     -126.782      -46.099      -17.057       12.191       14.093        8.370      148.619      198.617       70.063        0.945        0.021      134.903        5.647        0.002      335.529        6.223      865.644
11/10/2013  23:45:00     -137.671      -39.091      -11.546       14.418       11.805       11.314      207.873      139.366      128.018        1.054        0.024      143.113        7.507        0.003      335.486        6.152      865.648
11/10/2013  23:46:00     -144.919      -29.666      -21.758       17.768       13.793       11.206      315.699      190.247      125.570        1.149        0.032      147.924       10.402        0.005      335.473        6.129      865.641
11/10/2013  23:47:00     -136.132      -43.000      -22.033       16.871       18.995       13.010      284.624      360.811      169.267        1.084        0.041      142.761        9.500        0.004      335.444        6.082      865.648
11/10/2013  23:48:00      -85.871      -47.684      -13.845       21.127       20.718       16.287      446.355      429.253      265.256        0.549        0.057       98.222       14.186        0.021      335.420        6.040      865.654
11/10/2013  23:49:00      -61.485      -34.092       -8.285       20.743       18.751       13.719      430.263      351.617      188.200        0.299        0.049       70.304        9.604        0.019      335.415        6.032      865.669
11/10/2013  23:50:00      -78.919      -47.019      -18.447       17.811       20.731       13.498      317.214      429.760      182.190        0.485        0.046       91.864        9.568        0.011      335.467        6.119      865.681
11/10/2013  23:51:00      -85.425      -44.395      -14.018       14.555       18.746       13.304      211.836      351.412      176.988        0.510        0.037       96.272        9.500        0.010      335.518        6.205      865.680
11/10/2013  23:52:00      -85.432      -43.682      -13.543       17.423       16.297       14.848      303.564      265.599      220.452        0.509        0.039       95.951        8.719        0.008      335.566        6.285      865.696
11/10/2013  23:53:00      -78.858      -46.267       -7.402       19.947       13.702       13.046      397.894      187.753      170.192        0.458        0.038       91.428        8.833        0.009      335.526        6.217      865.717
11/10/2013  23:54:00      -95.940      -47.388       -6.267       13.302       14.856        9.163      176.945      220.709       83.963        0.599        0.024      107.005        7.160        0.004      335.537        6.237      865.727
11/10/2013  23:55:00      -93.388      -46.390       -2.098       22.363       17.026       14.558      500.090      289.882      211.937        0.594        0.050      104.276       12.701        0.015      335.546        6.252      865.735
11/10/2013  23:56:00      -80.175      -52.155       -0.002       34.633       24.169       21.708     1199.472      584.129      471.257        0.570        0.113       95.646       19.838        0.043      335.441        6.076      865.733
11/10/2013  23:57:00      -98.134      -53.170       -1.456       25.724       17.673       18.285      661.715      312.326      334.337        0.688        0.065      111.612       14.644        0.017      335.378        5.970      865.740
11/10/2013  23:58:00      -76.036      -43.043        3.870       40.139       25.878       19.013     1611.103      669.673      361.485        0.515        0.132       87.374       19.808        0.051      335.416        6.034      865.742
11/10/2013  23:59:00      -80.411      -52.063       -4.305       37.875       19.710       15.947     1434.553      388.488      254.300        0.564        0.104       95.794       16.372        0.029      335.359        5.939      865.745
